<?xml version="1.0" encoding="UTF-8" standalone="no" ?>
<gpx xmlns="http://www.topografix.com/GPX/1/1" xmlns:xsi="http://www.w3.org/2001/XMLSchema-instance" xsi:schemaLocation="http://www.topografix.com/GPX/1/1 http://www.topografix.com/GPX/1/1/gpx.xsd" version="1.1" creator="VisuGPX - https://www.visugpx.com">
  <metadata>
    <name>Ma GTJ Gravel customisée</name>
  </metadata>
  <trk>
    <name><![CDATA[Bout de GTJ Gravielo]]></name>
    <extensions>
      <line xmlns="http://www.topografix.com/GPX/gpx_style/0/2">
        <color>0000FF</color>
        <width>4</width>
      </line>
    </extensions>
    <trkseg>
      <trkpt lat="47.51691" lon="6.7777">
        <ele>380.6</ele>
        <time>2024-05-08T07:44:34Z</time>
      </trkpt>
      <trkpt lat="47.51691" lon="6.7777">
        <ele>380.6</ele>
        <time>2024-05-08T07:44:44Z</time>
      </trkpt>
      <trkpt lat="47.51693" lon="6.77762">
        <ele>380</ele>
        <time>2024-05-08T07:44:55Z</time>
      </trkpt>
      <trkpt lat="47.51693" lon="6.77762">
        <ele>380</ele>
        <time>2024-05-08T07:45:05Z</time>
      </trkpt>
      <trkpt lat="47.51654" lon="6.77754">
        <ele>376.5</ele>
        <time>2024-05-08T07:45:16Z</time>
      </trkpt>
      <trkpt lat="47.51576" lon="6.7773">
        <ele>369.2</ele>
        <time>2024-05-08T07:45:27Z</time>
      </trkpt>
      <trkpt lat="47.51488" lon="6.77719">
        <ele>359.8</ele>
        <time>2024-05-08T07:45:37Z</time>
      </trkpt>
      <trkpt lat="47.51418" lon="6.77732">
        <ele>351.2</ele>
        <time>2024-05-08T07:45:47Z</time>
      </trkpt>
      <trkpt lat="47.51373" lon="6.77759">
        <ele>345.1</ele>
        <time>2024-05-08T07:45:58Z</time>
      </trkpt>
      <trkpt lat="47.51328" lon="6.77774">
        <ele>340.2</ele>
        <time>2024-05-08T07:46:09Z</time>
      </trkpt>
      <trkpt lat="47.51267" lon="6.77784">
        <ele>332.9</ele>
        <time>2024-05-08T07:46:19Z</time>
      </trkpt>
      <trkpt lat="47.51199" lon="6.77784">
        <ele>326.1</ele>
        <time>2024-05-08T07:46:29Z</time>
      </trkpt>
      <trkpt lat="47.51113" lon="6.77782">
        <ele>320.1</ele>
        <time>2024-05-08T07:46:39Z</time>
      </trkpt>
      <trkpt lat="47.51049" lon="6.77765">
        <ele>318.2</ele>
        <time>2024-05-08T07:46:50Z</time>
      </trkpt>
      <trkpt lat="47.5101" lon="6.77729">
        <ele>316.8</ele>
        <time>2024-05-08T07:47:00Z</time>
      </trkpt>
      <trkpt lat="47.50962" lon="6.7769">
        <ele>315.3</ele>
        <time>2024-05-08T07:47:11Z</time>
      </trkpt>
      <trkpt lat="47.50947" lon="6.77699">
        <ele>315.1</ele>
        <time>2024-05-08T07:47:21Z</time>
      </trkpt>
      <trkpt lat="47.50906" lon="6.77698">
        <ele>314.9</ele>
        <time>2024-05-08T07:47:31Z</time>
      </trkpt>
      <trkpt lat="47.50872" lon="6.77685">
        <ele>314.8</ele>
        <time>2024-05-08T07:47:42Z</time>
      </trkpt>
      <trkpt lat="47.50835" lon="6.77628">
        <ele>314.8</ele>
        <time>2024-05-08T07:47:52Z</time>
      </trkpt>
      <trkpt lat="47.50781" lon="6.77582">
        <ele>314.8</ele>
        <time>2024-05-08T07:48:03Z</time>
      </trkpt>
      <trkpt lat="47.50732" lon="6.7754">
        <ele>314.9</ele>
        <time>2024-05-08T07:48:13Z</time>
      </trkpt>
      <trkpt lat="47.50679" lon="6.77524">
        <ele>315.4</ele>
        <time>2024-05-08T07:48:25Z</time>
      </trkpt>
      <trkpt lat="47.50648" lon="6.77534">
        <ele>315.4</ele>
        <time>2024-05-08T07:48:36Z</time>
      </trkpt>
      <trkpt lat="47.50607" lon="6.77527">
        <ele>315.5</ele>
        <time>2024-05-08T07:48:46Z</time>
      </trkpt>
      <trkpt lat="47.50564" lon="6.77549">
        <ele>315.5</ele>
        <time>2024-05-08T07:48:56Z</time>
      </trkpt>
      <trkpt lat="47.50526" lon="6.77507">
        <ele>315.5</ele>
        <time>2024-05-08T07:49:07Z</time>
      </trkpt>
      <trkpt lat="47.50471" lon="6.77464">
        <ele>315.3</ele>
        <time>2024-05-08T07:49:17Z</time>
      </trkpt>
      <trkpt lat="47.50415" lon="6.77416">
        <ele>315.1</ele>
        <time>2024-05-08T07:49:28Z</time>
      </trkpt>
      <trkpt lat="47.50363" lon="6.77373">
        <ele>315</ele>
        <time>2024-05-08T07:49:38Z</time>
      </trkpt>
      <trkpt lat="47.50309" lon="6.7733">
        <ele>315</ele>
        <time>2024-05-08T07:49:48Z</time>
      </trkpt>
      <trkpt lat="47.50248" lon="6.77287">
        <ele>315</ele>
        <time>2024-05-08T07:50:00Z</time>
      </trkpt>
      <trkpt lat="47.50186" lon="6.7724">
        <ele>314.5</ele>
        <time>2024-05-08T07:50:10Z</time>
      </trkpt>
      <trkpt lat="47.50128" lon="6.77201">
        <ele>315</ele>
        <time>2024-05-08T07:50:21Z</time>
      </trkpt>
      <trkpt lat="47.50074" lon="6.77205">
        <ele>316.2</ele>
        <time>2024-05-08T07:50:32Z</time>
      </trkpt>
      <trkpt lat="47.50014" lon="6.77228">
        <ele>315.5</ele>
        <time>2024-05-08T07:50:42Z</time>
      </trkpt>
      <trkpt lat="47.49953" lon="6.77258">
        <ele>314.2</ele>
        <time>2024-05-08T07:50:53Z</time>
      </trkpt>
      <trkpt lat="47.49895" lon="6.77294">
        <ele>313.5</ele>
        <time>2024-05-08T07:51:03Z</time>
      </trkpt>
      <trkpt lat="47.4983" lon="6.77302">
        <ele>313.1</ele>
        <time>2024-05-08T07:51:13Z</time>
      </trkpt>
      <trkpt lat="47.49756" lon="6.77308">
        <ele>312.8</ele>
        <time>2024-05-08T07:51:24Z</time>
      </trkpt>
      <trkpt lat="47.49691" lon="6.77335">
        <ele>312.6</ele>
        <time>2024-05-08T07:51:35Z</time>
      </trkpt>
      <trkpt lat="47.4962" lon="6.77353">
        <ele>312.5</ele>
        <time>2024-05-08T07:51:46Z</time>
      </trkpt>
      <trkpt lat="47.49555" lon="6.77361">
        <ele>312.5</ele>
        <time>2024-05-08T07:51:56Z</time>
      </trkpt>
      <trkpt lat="47.4949" lon="6.77354">
        <ele>312.4</ele>
        <time>2024-05-08T07:52:06Z</time>
      </trkpt>
      <trkpt lat="47.49421" lon="6.77349">
        <ele>312.3</ele>
        <time>2024-05-08T07:52:17Z</time>
      </trkpt>
      <trkpt lat="47.4935" lon="6.77344">
        <ele>312.3</ele>
        <time>2024-05-08T07:52:28Z</time>
      </trkpt>
      <trkpt lat="47.49283" lon="6.77324">
        <ele>312</ele>
        <time>2024-05-08T07:52:38Z</time>
      </trkpt>
      <trkpt lat="47.49225" lon="6.77336">
        <ele>312.4</ele>
        <time>2024-05-08T07:52:48Z</time>
      </trkpt>
      <trkpt lat="47.49159" lon="6.7733">
        <ele>312.7</ele>
        <time>2024-05-08T07:53:00Z</time>
      </trkpt>
      <trkpt lat="47.49091" lon="6.77324">
        <ele>312.5</ele>
        <time>2024-05-08T07:53:11Z</time>
      </trkpt>
      <trkpt lat="47.49021" lon="6.77321">
        <ele>312.6</ele>
        <time>2024-05-08T07:53:21Z</time>
      </trkpt>
      <trkpt lat="47.4895" lon="6.77315">
        <ele>312.6</ele>
        <time>2024-05-08T07:53:32Z</time>
      </trkpt>
      <trkpt lat="47.48878" lon="6.77287">
        <ele>312.5</ele>
        <time>2024-05-08T07:53:43Z</time>
      </trkpt>
      <trkpt lat="47.48817" lon="6.77254">
        <ele>312.5</ele>
        <time>2024-05-08T07:53:54Z</time>
      </trkpt>
      <trkpt lat="47.48751" lon="6.77201">
        <ele>312.4</ele>
        <time>2024-05-08T07:54:04Z</time>
      </trkpt>
      <trkpt lat="47.48685" lon="6.77151">
        <ele>312.4</ele>
        <time>2024-05-08T07:54:16Z</time>
      </trkpt>
      <trkpt lat="47.48631" lon="6.77091">
        <ele>313</ele>
        <time>2024-05-08T07:54:26Z</time>
      </trkpt>
      <trkpt lat="47.48569" lon="6.77053">
        <ele>312.8</ele>
        <time>2024-05-08T07:54:37Z</time>
      </trkpt>
      <trkpt lat="47.48499" lon="6.77008">
        <ele>311.5</ele>
        <time>2024-05-08T07:54:47Z</time>
      </trkpt>
      <trkpt lat="47.48428" lon="6.76962">
        <ele>311.4</ele>
        <time>2024-05-08T07:54:58Z</time>
      </trkpt>
      <trkpt lat="47.48353" lon="6.7692">
        <ele>311.3</ele>
        <time>2024-05-08T07:55:09Z</time>
      </trkpt>
      <trkpt lat="47.48294" lon="6.76875">
        <ele>311.5</ele>
        <time>2024-05-08T07:55:20Z</time>
      </trkpt>
      <trkpt lat="47.4824" lon="6.76804">
        <ele>311.9</ele>
        <time>2024-05-08T07:55:30Z</time>
      </trkpt>
      <trkpt lat="47.48177" lon="6.76766">
        <ele>311.5</ele>
        <time>2024-05-08T07:55:40Z</time>
      </trkpt>
      <trkpt lat="47.4813" lon="6.76685">
        <ele>311.6</ele>
        <time>2024-05-08T07:55:51Z</time>
      </trkpt>
      <trkpt lat="47.48095" lon="6.76617">
        <ele>312.1</ele>
        <time>2024-05-08T07:56:02Z</time>
      </trkpt>
      <trkpt lat="47.48122" lon="6.76536">
        <ele>313.2</ele>
        <time>2024-05-08T07:56:12Z</time>
      </trkpt>
      <trkpt lat="47.48089" lon="6.7652">
        <ele>313.8</ele>
        <time>2024-05-08T07:56:22Z</time>
      </trkpt>
      <trkpt lat="47.48044" lon="6.76564">
        <ele>314.1</ele>
        <time>2024-05-08T07:56:34Z</time>
      </trkpt>
      <trkpt lat="47.47992" lon="6.76603">
        <ele>314.2</ele>
        <time>2024-05-08T07:56:45Z</time>
      </trkpt>
      <trkpt lat="47.47945" lon="6.76625">
        <ele>313.2</ele>
        <time>2024-05-08T07:56:55Z</time>
      </trkpt>
      <trkpt lat="47.47881" lon="6.76688">
        <ele>311.2</ele>
        <time>2024-05-08T07:57:05Z</time>
      </trkpt>
      <trkpt lat="47.47838" lon="6.76777">
        <ele>311.7</ele>
        <time>2024-05-08T07:57:16Z</time>
      </trkpt>
      <trkpt lat="47.47785" lon="6.76794">
        <ele>312.5</ele>
        <time>2024-05-08T07:57:27Z</time>
      </trkpt>
      <trkpt lat="47.47731" lon="6.76779">
        <ele>312.5</ele>
        <time>2024-05-08T07:57:37Z</time>
      </trkpt>
      <trkpt lat="47.47657" lon="6.76729">
        <ele>311.6</ele>
        <time>2024-05-08T07:57:47Z</time>
      </trkpt>
      <trkpt lat="47.47588" lon="6.76687">
        <ele>311.9</ele>
        <time>2024-05-08T07:57:57Z</time>
      </trkpt>
      <trkpt lat="47.4753" lon="6.76628">
        <ele>312.8</ele>
        <time>2024-05-08T07:58:09Z</time>
      </trkpt>
      <trkpt lat="47.47488" lon="6.76566">
        <ele>313.5</ele>
        <time>2024-05-08T07:58:20Z</time>
      </trkpt>
      <trkpt lat="47.4744" lon="6.76502">
        <ele>313</ele>
        <time>2024-05-08T07:58:31Z</time>
      </trkpt>
      <trkpt lat="47.47376" lon="6.76506">
        <ele>313.3</ele>
        <time>2024-05-08T07:58:41Z</time>
      </trkpt>
      <trkpt lat="47.4733" lon="6.76512">
        <ele>314.3</ele>
        <time>2024-05-08T07:58:51Z</time>
      </trkpt>
      <trkpt lat="47.47283" lon="6.76517">
        <ele>315.8</ele>
        <time>2024-05-08T07:59:01Z</time>
      </trkpt>
      <trkpt lat="47.47231" lon="6.76522">
        <ele>317.6</ele>
        <time>2024-05-08T07:59:12Z</time>
      </trkpt>
      <trkpt lat="47.47185" lon="6.76527">
        <ele>318.9</ele>
        <time>2024-05-08T07:59:22Z</time>
      </trkpt>
      <trkpt lat="47.47133" lon="6.76533">
        <ele>320.3</ele>
        <time>2024-05-08T07:59:33Z</time>
      </trkpt>
      <trkpt lat="47.47087" lon="6.76538">
        <ele>321.8</ele>
        <time>2024-05-08T07:59:43Z</time>
      </trkpt>
      <trkpt lat="47.47034" lon="6.76539">
        <ele>323.7</ele>
        <time>2024-05-08T07:59:54Z</time>
      </trkpt>
      <trkpt lat="47.46991" lon="6.76529">
        <ele>325.2</ele>
        <time>2024-05-08T08:00:04Z</time>
      </trkpt>
      <trkpt lat="47.46948" lon="6.76508">
        <ele>326.4</ele>
        <time>2024-05-08T08:00:14Z</time>
      </trkpt>
      <trkpt lat="47.46902" lon="6.76471">
        <ele>328</ele>
        <time>2024-05-08T08:00:25Z</time>
      </trkpt>
      <trkpt lat="47.46857" lon="6.76443">
        <ele>329.5</ele>
        <time>2024-05-08T08:00:36Z</time>
      </trkpt>
      <trkpt lat="47.46816" lon="6.76429">
        <ele>330.8</ele>
        <time>2024-05-08T08:00:47Z</time>
      </trkpt>
      <trkpt lat="47.46771" lon="6.7643">
        <ele>332.2</ele>
        <time>2024-05-08T08:00:57Z</time>
      </trkpt>
      <trkpt lat="47.46732" lon="6.76447">
        <ele>333</ele>
        <time>2024-05-08T08:01:07Z</time>
      </trkpt>
      <trkpt lat="47.46698" lon="6.76465">
        <ele>334.2</ele>
        <time>2024-05-08T08:01:17Z</time>
      </trkpt>
      <trkpt lat="47.46661" lon="6.76483">
        <ele>335.5</ele>
        <time>2024-05-08T08:01:28Z</time>
      </trkpt>
      <trkpt lat="47.46627" lon="6.765">
        <ele>336.7</ele>
        <time>2024-05-08T08:01:39Z</time>
      </trkpt>
      <trkpt lat="47.46584" lon="6.76522">
        <ele>338.2</ele>
        <time>2024-05-08T08:01:49Z</time>
      </trkpt>
      <trkpt lat="47.46543" lon="6.76533">
        <ele>340</ele>
        <time>2024-05-08T08:02:00Z</time>
      </trkpt>
      <trkpt lat="47.46505" lon="6.76534">
        <ele>342.3</ele>
        <time>2024-05-08T08:02:11Z</time>
      </trkpt>
      <trkpt lat="47.46468" lon="6.76527">
        <ele>344.7</ele>
        <time>2024-05-08T08:02:21Z</time>
      </trkpt>
      <trkpt lat="47.46435" lon="6.76521">
        <ele>346.9</ele>
        <time>2024-05-08T08:02:32Z</time>
      </trkpt>
      <trkpt lat="47.46397" lon="6.76517">
        <ele>349</ele>
        <time>2024-05-08T08:02:42Z</time>
      </trkpt>
      <trkpt lat="47.4636" lon="6.76522">
        <ele>350.5</ele>
        <time>2024-05-08T08:02:52Z</time>
      </trkpt>
      <trkpt lat="47.4632" lon="6.76538">
        <ele>352.1</ele>
        <time>2024-05-08T08:03:03Z</time>
      </trkpt>
      <trkpt lat="47.4628" lon="6.76565">
        <ele>353.8</ele>
        <time>2024-05-08T08:03:13Z</time>
      </trkpt>
      <trkpt lat="47.46238" lon="6.76596">
        <ele>355.6</ele>
        <time>2024-05-08T08:03:24Z</time>
      </trkpt>
      <trkpt lat="47.46197" lon="6.76624">
        <ele>357</ele>
        <time>2024-05-08T08:03:34Z</time>
      </trkpt>
      <trkpt lat="47.46154" lon="6.76651">
        <ele>358.2</ele>
        <time>2024-05-08T08:03:45Z</time>
      </trkpt>
      <trkpt lat="47.46112" lon="6.76669">
        <ele>359.4</ele>
        <time>2024-05-08T08:03:56Z</time>
      </trkpt>
      <trkpt lat="47.46069" lon="6.76681">
        <ele>360.6</ele>
        <time>2024-05-08T08:04:06Z</time>
      </trkpt>
      <trkpt lat="47.46028" lon="6.76692">
        <ele>361.9</ele>
        <time>2024-05-08T08:04:16Z</time>
      </trkpt>
      <trkpt lat="47.45989" lon="6.76698">
        <ele>363.2</ele>
        <time>2024-05-08T08:04:26Z</time>
      </trkpt>
      <trkpt lat="47.45946" lon="6.76708">
        <ele>364.8</ele>
        <time>2024-05-08T08:04:37Z</time>
      </trkpt>
      <trkpt lat="47.45907" lon="6.76718">
        <ele>366.4</ele>
        <time>2024-05-08T08:04:47Z</time>
      </trkpt>
      <trkpt lat="47.45867" lon="6.76727">
        <ele>368.1</ele>
        <time>2024-05-08T08:04:57Z</time>
      </trkpt>
      <trkpt lat="47.45831" lon="6.76724">
        <ele>369.5</ele>
        <time>2024-05-08T08:05:07Z</time>
      </trkpt>
      <trkpt lat="47.45789" lon="6.76723">
        <ele>370.9</ele>
        <time>2024-05-08T08:05:17Z</time>
      </trkpt>
      <trkpt lat="47.45739" lon="6.76721">
        <ele>372.6</ele>
        <time>2024-05-08T08:05:28Z</time>
      </trkpt>
      <trkpt lat="47.457" lon="6.76721">
        <ele>374</ele>
        <time>2024-05-08T08:05:38Z</time>
      </trkpt>
      <trkpt lat="47.45658" lon="6.7672">
        <ele>375.5</ele>
        <time>2024-05-08T08:05:48Z</time>
      </trkpt>
      <trkpt lat="47.45613" lon="6.76728">
        <ele>377.2</ele>
        <time>2024-05-08T08:05:59Z</time>
      </trkpt>
      <trkpt lat="47.45566" lon="6.76739">
        <ele>378.8</ele>
        <time>2024-05-08T08:06:09Z</time>
      </trkpt>
      <trkpt lat="47.45519" lon="6.76752">
        <ele>380.5</ele>
        <time>2024-05-08T08:06:20Z</time>
      </trkpt>
      <trkpt lat="47.45476" lon="6.76765">
        <ele>382</ele>
        <time>2024-05-08T08:06:30Z</time>
      </trkpt>
      <trkpt lat="47.45434" lon="6.76776">
        <ele>383.4</ele>
        <time>2024-05-08T08:06:40Z</time>
      </trkpt>
      <trkpt lat="47.45393" lon="6.76786">
        <ele>384.7</ele>
        <time>2024-05-08T08:06:51Z</time>
      </trkpt>
      <trkpt lat="47.45346" lon="6.76791">
        <ele>385.7</ele>
        <time>2024-05-08T08:07:01Z</time>
      </trkpt>
      <trkpt lat="47.45296" lon="6.76778">
        <ele>386</ele>
        <time>2024-05-08T08:07:11Z</time>
      </trkpt>
      <trkpt lat="47.45246" lon="6.76746">
        <ele>386.2</ele>
        <time>2024-05-08T08:07:22Z</time>
      </trkpt>
      <trkpt lat="47.45215" lon="6.76757">
        <ele>385.6</ele>
        <time>2024-05-08T08:07:32Z</time>
      </trkpt>
      <trkpt lat="47.45176" lon="6.76836">
        <ele>382.5</ele>
        <time>2024-05-08T08:07:42Z</time>
      </trkpt>
      <trkpt lat="47.45129" lon="6.76941">
        <ele>378.5</ele>
        <time>2024-05-08T08:07:52Z</time>
      </trkpt>
      <trkpt lat="47.45086" lon="6.77043">
        <ele>375.1</ele>
        <time>2024-05-08T08:08:02Z</time>
      </trkpt>
      <trkpt lat="47.4506" lon="6.77163">
        <ele>372.3</ele>
        <time>2024-05-08T08:08:13Z</time>
      </trkpt>
      <trkpt lat="47.4504" lon="6.7728">
        <ele>369</ele>
        <time>2024-05-08T08:08:24Z</time>
      </trkpt>
      <trkpt lat="47.45001" lon="6.77389">
        <ele>365.6</ele>
        <time>2024-05-08T08:08:36Z</time>
      </trkpt>
      <trkpt lat="47.44965" lon="6.77486">
        <ele>363.8</ele>
        <time>2024-05-08T08:08:47Z</time>
      </trkpt>
      <trkpt lat="47.44932" lon="6.77574">
        <ele>362.5</ele>
        <time>2024-05-08T08:08:57Z</time>
      </trkpt>
      <trkpt lat="47.44896" lon="6.77669">
        <ele>362</ele>
        <time>2024-05-08T08:09:07Z</time>
      </trkpt>
      <trkpt lat="47.44852" lon="6.77748">
        <ele>361</ele>
        <time>2024-05-08T08:09:17Z</time>
      </trkpt>
      <trkpt lat="47.44784" lon="6.77809">
        <ele>359.1</ele>
        <time>2024-05-08T08:09:28Z</time>
      </trkpt>
      <trkpt lat="47.44696" lon="6.77829">
        <ele>355.4</ele>
        <time>2024-05-08T08:09:39Z</time>
      </trkpt>
      <trkpt lat="47.44606" lon="6.778">
        <ele>350.7</ele>
        <time>2024-05-08T08:09:50Z</time>
      </trkpt>
      <trkpt lat="47.44501" lon="6.77737">
        <ele>344.7</ele>
        <time>2024-05-08T08:10:00Z</time>
      </trkpt>
      <trkpt lat="47.44405" lon="6.77679">
        <ele>340</ele>
        <time>2024-05-08T08:10:10Z</time>
      </trkpt>
      <trkpt lat="47.44307" lon="6.77652">
        <ele>338.1</ele>
        <time>2024-05-08T08:10:21Z</time>
      </trkpt>
      <trkpt lat="47.44221" lon="6.77692">
        <ele>338.7</ele>
        <time>2024-05-08T08:10:32Z</time>
      </trkpt>
      <trkpt lat="47.44154" lon="6.77751">
        <ele>338.9</ele>
        <time>2024-05-08T08:10:42Z</time>
      </trkpt>
      <trkpt lat="47.44097" lon="6.77802">
        <ele>339.1</ele>
        <time>2024-05-08T08:10:52Z</time>
      </trkpt>
      <trkpt lat="47.44036" lon="6.77854">
        <ele>339.5</ele>
        <time>2024-05-08T08:11:03Z</time>
      </trkpt>
      <trkpt lat="47.43982" lon="6.77897">
        <ele>339.8</ele>
        <time>2024-05-08T08:11:13Z</time>
      </trkpt>
      <trkpt lat="47.43924" lon="6.7795">
        <ele>339.8</ele>
        <time>2024-05-08T08:11:24Z</time>
      </trkpt>
      <trkpt lat="47.43871" lon="6.77999">
        <ele>339.9</ele>
        <time>2024-05-08T08:11:34Z</time>
      </trkpt>
      <trkpt lat="47.43817" lon="6.78045">
        <ele>339.8</ele>
        <time>2024-05-08T08:11:44Z</time>
      </trkpt>
      <trkpt lat="47.43764" lon="6.78093">
        <ele>340.2</ele>
        <time>2024-05-08T08:11:54Z</time>
      </trkpt>
      <trkpt lat="47.43705" lon="6.78143">
        <ele>340.3</ele>
        <time>2024-05-08T08:12:05Z</time>
      </trkpt>
      <trkpt lat="47.43651" lon="6.7819">
        <ele>340.3</ele>
        <time>2024-05-08T08:12:15Z</time>
      </trkpt>
      <trkpt lat="47.43593" lon="6.78243">
        <ele>340.6</ele>
        <time>2024-05-08T08:12:26Z</time>
      </trkpt>
      <trkpt lat="47.43532" lon="6.78293">
        <ele>340.9</ele>
        <time>2024-05-08T08:12:37Z</time>
      </trkpt>
      <trkpt lat="47.4348" lon="6.78339">
        <ele>341</ele>
        <time>2024-05-08T08:12:47Z</time>
      </trkpt>
      <trkpt lat="47.43424" lon="6.78384">
        <ele>341.2</ele>
        <time>2024-05-08T08:12:58Z</time>
      </trkpt>
      <trkpt lat="47.43383" lon="6.78412">
        <ele>341.2</ele>
        <time>2024-05-08T08:13:08Z</time>
      </trkpt>
      <trkpt lat="47.4338" lon="6.78411">
        <ele>341.2</ele>
        <time>2024-05-08T08:13:19Z</time>
      </trkpt>
      <trkpt lat="47.43354" lon="6.78447">
        <ele>341.4</ele>
        <time>2024-05-08T08:13:30Z</time>
      </trkpt>
      <trkpt lat="47.43293" lon="6.78438">
        <ele>341.6</ele>
        <time>2024-05-08T08:13:41Z</time>
      </trkpt>
      <trkpt lat="47.4323" lon="6.78414">
        <ele>341.8</ele>
        <time>2024-05-08T08:13:52Z</time>
      </trkpt>
      <trkpt lat="47.43166" lon="6.78389">
        <ele>342.1</ele>
        <time>2024-05-08T08:14:03Z</time>
      </trkpt>
      <trkpt lat="47.43097" lon="6.78363">
        <ele>342.2</ele>
        <time>2024-05-08T08:14:15Z</time>
      </trkpt>
      <trkpt lat="47.43028" lon="6.78333">
        <ele>342.5</ele>
        <time>2024-05-08T08:14:25Z</time>
      </trkpt>
      <trkpt lat="47.42964" lon="6.78308">
        <ele>342.6</ele>
        <time>2024-05-08T08:14:35Z</time>
      </trkpt>
      <trkpt lat="47.42893" lon="6.78282">
        <ele>342.8</ele>
        <time>2024-05-08T08:14:47Z</time>
      </trkpt>
      <trkpt lat="47.42827" lon="6.78239">
        <ele>342.9</ele>
        <time>2024-05-08T08:14:57Z</time>
      </trkpt>
      <trkpt lat="47.4276" lon="6.78225">
        <ele>343.1</ele>
        <time>2024-05-08T08:15:08Z</time>
      </trkpt>
      <trkpt lat="47.42693" lon="6.78197">
        <ele>343.3</ele>
        <time>2024-05-08T08:15:20Z</time>
      </trkpt>
      <trkpt lat="47.42632" lon="6.78175">
        <ele>343.5</ele>
        <time>2024-05-08T08:15:30Z</time>
      </trkpt>
      <trkpt lat="47.42565" lon="6.7815">
        <ele>343.8</ele>
        <time>2024-05-08T08:15:41Z</time>
      </trkpt>
      <trkpt lat="47.42495" lon="6.78121">
        <ele>343.9</ele>
        <time>2024-05-08T08:15:51Z</time>
      </trkpt>
      <trkpt lat="47.42431" lon="6.78097">
        <ele>343.7</ele>
        <time>2024-05-08T08:16:02Z</time>
      </trkpt>
      <trkpt lat="47.42358" lon="6.78069">
        <ele>343.4</ele>
        <time>2024-05-08T08:16:12Z</time>
      </trkpt>
      <trkpt lat="47.42285" lon="6.78041">
        <ele>343.5</ele>
        <time>2024-05-08T08:16:22Z</time>
      </trkpt>
      <trkpt lat="47.42205" lon="6.78009">
        <ele>343.8</ele>
        <time>2024-05-08T08:16:33Z</time>
      </trkpt>
      <trkpt lat="47.42135" lon="6.77981">
        <ele>344</ele>
        <time>2024-05-08T08:16:43Z</time>
      </trkpt>
      <trkpt lat="47.42066" lon="6.77955">
        <ele>344.2</ele>
        <time>2024-05-08T08:16:53Z</time>
      </trkpt>
      <trkpt lat="47.41997" lon="6.77928">
        <ele>344.3</ele>
        <time>2024-05-08T08:17:03Z</time>
      </trkpt>
      <trkpt lat="47.41924" lon="6.77899">
        <ele>344.7</ele>
        <time>2024-05-08T08:17:14Z</time>
      </trkpt>
      <trkpt lat="47.41862" lon="6.77876">
        <ele>345.2</ele>
        <time>2024-05-08T08:17:25Z</time>
      </trkpt>
      <trkpt lat="47.41794" lon="6.77849">
        <ele>345.9</ele>
        <time>2024-05-08T08:17:35Z</time>
      </trkpt>
      <trkpt lat="47.41733" lon="6.77826">
        <ele>346.4</ele>
        <time>2024-05-08T08:17:46Z</time>
      </trkpt>
      <trkpt lat="47.41678" lon="6.77806">
        <ele>346.4</ele>
        <time>2024-05-08T08:17:57Z</time>
      </trkpt>
      <trkpt lat="47.41629" lon="6.77785">
        <ele>346.3</ele>
        <time>2024-05-08T08:18:07Z</time>
      </trkpt>
      <trkpt lat="47.4158" lon="6.77775">
        <ele>346</ele>
        <time>2024-05-08T08:18:18Z</time>
      </trkpt>
      <trkpt lat="47.41548" lon="6.77789">
        <ele>345.2</ele>
        <time>2024-05-08T08:18:29Z</time>
      </trkpt>
      <trkpt lat="47.41552" lon="6.77881">
        <ele>344</ele>
        <time>2024-05-08T08:18:39Z</time>
      </trkpt>
      <trkpt lat="47.41516" lon="6.77935">
        <ele>343.9</ele>
        <time>2024-05-08T08:18:50Z</time>
      </trkpt>
      <trkpt lat="47.41468" lon="6.77933">
        <ele>344</ele>
        <time>2024-05-08T08:19:01Z</time>
      </trkpt>
      <trkpt lat="47.41491" lon="6.7798">
        <ele>343.5</ele>
        <time>2024-05-08T08:19:11Z</time>
      </trkpt>
      <trkpt lat="47.41529" lon="6.78042">
        <ele>343.5</ele>
        <time>2024-05-08T08:19:21Z</time>
      </trkpt>
      <trkpt lat="47.41573" lon="6.78089">
        <ele>344.2</ele>
        <time>2024-05-08T08:19:32Z</time>
      </trkpt>
      <trkpt lat="47.41576" lon="6.78157">
        <ele>343.9</ele>
        <time>2024-05-08T08:19:42Z</time>
      </trkpt>
      <trkpt lat="47.41533" lon="6.78175">
        <ele>343.7</ele>
        <time>2024-05-08T08:19:52Z</time>
      </trkpt>
      <trkpt lat="47.41478" lon="6.78154">
        <ele>343.7</ele>
        <time>2024-05-08T08:20:02Z</time>
      </trkpt>
      <trkpt lat="47.41417" lon="6.78108">
        <ele>343.5</ele>
        <time>2024-05-08T08:20:13Z</time>
      </trkpt>
      <trkpt lat="47.41366" lon="6.78063">
        <ele>343.7</ele>
        <time>2024-05-08T08:20:24Z</time>
      </trkpt>
      <trkpt lat="47.41318" lon="6.78095">
        <ele>342.8</ele>
        <time>2024-05-08T08:20:35Z</time>
      </trkpt>
      <trkpt lat="47.41271" lon="6.78131">
        <ele>342.4</ele>
        <time>2024-05-08T08:20:46Z</time>
      </trkpt>
      <trkpt lat="47.41232" lon="6.78177">
        <ele>341.3</ele>
        <time>2024-05-08T08:20:56Z</time>
      </trkpt>
      <trkpt lat="47.41227" lon="6.78179">
        <ele>341.3</ele>
        <time>2024-05-08T08:21:07Z</time>
      </trkpt>
      <trkpt lat="47.41227" lon="6.7818">
        <ele>341.3</ele>
        <time>2024-05-08T08:21:17Z</time>
      </trkpt>
      <trkpt lat="47.41227" lon="6.7818">
        <ele>341.3</ele>
        <time>2024-05-08T08:21:28Z</time>
      </trkpt>
      <trkpt lat="47.41227" lon="6.7818">
        <ele>341.3</ele>
        <time>2024-05-08T08:21:38Z</time>
      </trkpt>
      <trkpt lat="47.41229" lon="6.78182">
        <ele>341.3</ele>
        <time>2024-05-08T08:21:48Z</time>
      </trkpt>
      <trkpt lat="47.41229" lon="6.78182">
        <ele>341.3</ele>
        <time>2024-05-08T08:21:59Z</time>
      </trkpt>
      <trkpt lat="47.41226" lon="6.78168">
        <ele>341.1</ele>
        <time>2024-05-08T08:22:10Z</time>
      </trkpt>
      <trkpt lat="47.41218" lon="6.78097">
        <ele>340.9</ele>
        <time>2024-05-08T08:22:21Z</time>
      </trkpt>
      <trkpt lat="47.41202" lon="6.78017">
        <ele>340.9</ele>
        <time>2024-05-08T08:22:31Z</time>
      </trkpt>
      <trkpt lat="47.41241" lon="6.77974">
        <ele>342</ele>
        <time>2024-05-08T08:22:42Z</time>
      </trkpt>
      <trkpt lat="47.41285" lon="6.7797">
        <ele>342.4</ele>
        <time>2024-05-08T08:22:52Z</time>
      </trkpt>
      <trkpt lat="47.41336" lon="6.77941">
        <ele>343.3</ele>
        <time>2024-05-08T08:23:03Z</time>
      </trkpt>
      <trkpt lat="47.41347" lon="6.77904">
        <ele>344.3</ele>
        <time>2024-05-08T08:23:14Z</time>
      </trkpt>
      <trkpt lat="47.41322" lon="6.77837">
        <ele>344.2</ele>
        <time>2024-05-08T08:23:24Z</time>
      </trkpt>
      <trkpt lat="47.41286" lon="6.77759">
        <ele>344.2</ele>
        <time>2024-05-08T08:23:35Z</time>
      </trkpt>
      <trkpt lat="47.41235" lon="6.77691">
        <ele>344.1</ele>
        <time>2024-05-08T08:23:46Z</time>
      </trkpt>
      <trkpt lat="47.41176" lon="6.77628">
        <ele>343.8</ele>
        <time>2024-05-08T08:23:57Z</time>
      </trkpt>
      <trkpt lat="47.41128" lon="6.77596">
        <ele>343.5</ele>
        <time>2024-05-08T08:24:08Z</time>
      </trkpt>
      <trkpt lat="47.41078" lon="6.77657">
        <ele>342.7</ele>
        <time>2024-05-08T08:24:18Z</time>
      </trkpt>
      <trkpt lat="47.4103" lon="6.77721">
        <ele>343.1</ele>
        <time>2024-05-08T08:24:28Z</time>
      </trkpt>
      <trkpt lat="47.40983" lon="6.77761">
        <ele>343.4</ele>
        <time>2024-05-08T08:24:39Z</time>
      </trkpt>
      <trkpt lat="47.40942" lon="6.77693">
        <ele>343.9</ele>
        <time>2024-05-08T08:24:49Z</time>
      </trkpt>
      <trkpt lat="47.40914" lon="6.77609">
        <ele>344.3</ele>
        <time>2024-05-08T08:25:00Z</time>
      </trkpt>
      <trkpt lat="47.40875" lon="6.77533">
        <ele>344.4</ele>
        <time>2024-05-08T08:25:11Z</time>
      </trkpt>
      <trkpt lat="47.40842" lon="6.77458">
        <ele>344.5</ele>
        <time>2024-05-08T08:25:22Z</time>
      </trkpt>
      <trkpt lat="47.40806" lon="6.77376">
        <ele>344.8</ele>
        <time>2024-05-08T08:25:32Z</time>
      </trkpt>
      <trkpt lat="47.40774" lon="6.77308">
        <ele>344.9</ele>
        <time>2024-05-08T08:25:42Z</time>
      </trkpt>
      <trkpt lat="47.40747" lon="6.77253">
        <ele>344.7</ele>
        <time>2024-05-08T08:25:53Z</time>
      </trkpt>
      <trkpt lat="47.40708" lon="6.77203">
        <ele>345</ele>
        <time>2024-05-08T08:26:04Z</time>
      </trkpt>
      <trkpt lat="47.40658" lon="6.77158">
        <ele>345.2</ele>
        <time>2024-05-08T08:26:15Z</time>
      </trkpt>
      <trkpt lat="47.40606" lon="6.77129">
        <ele>345.4</ele>
        <time>2024-05-08T08:26:25Z</time>
      </trkpt>
      <trkpt lat="47.40543" lon="6.7712">
        <ele>345.3</ele>
        <time>2024-05-08T08:26:36Z</time>
      </trkpt>
      <trkpt lat="47.40475" lon="6.77116">
        <ele>345.2</ele>
        <time>2024-05-08T08:26:47Z</time>
      </trkpt>
      <trkpt lat="47.40413" lon="6.77107">
        <ele>345.3</ele>
        <time>2024-05-08T08:26:57Z</time>
      </trkpt>
      <trkpt lat="47.40347" lon="6.77109">
        <ele>345.3</ele>
        <time>2024-05-08T08:27:08Z</time>
      </trkpt>
      <trkpt lat="47.40283" lon="6.77117">
        <ele>346.3</ele>
        <time>2024-05-08T08:27:19Z</time>
      </trkpt>
      <trkpt lat="47.40236" lon="6.77138">
        <ele>348.2</ele>
        <time>2024-05-08T08:27:29Z</time>
      </trkpt>
      <trkpt lat="47.40197" lon="6.77163">
        <ele>349.2</ele>
        <time>2024-05-08T08:27:39Z</time>
      </trkpt>
      <trkpt lat="47.4014" lon="6.77165">
        <ele>349.5</ele>
        <time>2024-05-08T08:27:50Z</time>
      </trkpt>
      <trkpt lat="47.4008" lon="6.7716">
        <ele>349.5</ele>
        <time>2024-05-08T08:28:01Z</time>
      </trkpt>
      <trkpt lat="47.40023" lon="6.77154">
        <ele>349.6</ele>
        <time>2024-05-08T08:28:12Z</time>
      </trkpt>
      <trkpt lat="47.39963" lon="6.77148">
        <ele>349.8</ele>
        <time>2024-05-08T08:28:22Z</time>
      </trkpt>
      <trkpt lat="47.39907" lon="6.77152">
        <ele>350.1</ele>
        <time>2024-05-08T08:28:32Z</time>
      </trkpt>
      <trkpt lat="47.39853" lon="6.77162">
        <ele>350.2</ele>
        <time>2024-05-08T08:28:42Z</time>
      </trkpt>
      <trkpt lat="47.39818" lon="6.77161">
        <ele>350.1</ele>
        <time>2024-05-08T08:28:53Z</time>
      </trkpt>
      <trkpt lat="47.39775" lon="6.77174">
        <ele>349.6</ele>
        <time>2024-05-08T08:29:04Z</time>
      </trkpt>
      <trkpt lat="47.39727" lon="6.7719">
        <ele>347.9</ele>
        <time>2024-05-08T08:29:15Z</time>
      </trkpt>
      <trkpt lat="47.39671" lon="6.77211">
        <ele>346</ele>
        <time>2024-05-08T08:29:25Z</time>
      </trkpt>
      <trkpt lat="47.39621" lon="6.77255">
        <ele>345.9</ele>
        <time>2024-05-08T08:29:36Z</time>
      </trkpt>
      <trkpt lat="47.39571" lon="6.77298">
        <ele>346.1</ele>
        <time>2024-05-08T08:29:46Z</time>
      </trkpt>
      <trkpt lat="47.3952" lon="6.77345">
        <ele>346.7</ele>
        <time>2024-05-08T08:29:57Z</time>
      </trkpt>
      <trkpt lat="47.39462" lon="6.77371">
        <ele>347</ele>
        <time>2024-05-08T08:30:07Z</time>
      </trkpt>
      <trkpt lat="47.39405" lon="6.77394">
        <ele>347.5</ele>
        <time>2024-05-08T08:30:18Z</time>
      </trkpt>
      <trkpt lat="47.39346" lon="6.77414">
        <ele>347.7</ele>
        <time>2024-05-08T08:30:29Z</time>
      </trkpt>
      <trkpt lat="47.39298" lon="6.77413">
        <ele>347.6</ele>
        <time>2024-05-08T08:30:41Z</time>
      </trkpt>
      <trkpt lat="47.39242" lon="6.774">
        <ele>346.7</ele>
        <time>2024-05-08T08:30:52Z</time>
      </trkpt>
      <trkpt lat="47.39168" lon="6.774">
        <ele>346</ele>
        <time>2024-05-08T08:31:02Z</time>
      </trkpt>
      <trkpt lat="47.39101" lon="6.77414">
        <ele>346.1</ele>
        <time>2024-05-08T08:31:13Z</time>
      </trkpt>
      <trkpt lat="47.39039" lon="6.7744">
        <ele>346.4</ele>
        <time>2024-05-08T08:31:23Z</time>
      </trkpt>
      <trkpt lat="47.38991" lon="6.77467">
        <ele>347.7</ele>
        <time>2024-05-08T08:31:34Z</time>
      </trkpt>
      <trkpt lat="47.39005" lon="6.77471">
        <ele>347.7</ele>
        <time>2024-05-08T08:31:44Z</time>
      </trkpt>
      <trkpt lat="47.39029" lon="6.7744">
        <ele>346.7</ele>
        <time>2024-05-08T08:31:54Z</time>
      </trkpt>
      <trkpt lat="47.39025" lon="6.77404">
        <ele>346.3</ele>
        <time>2024-05-08T08:32:04Z</time>
      </trkpt>
      <trkpt lat="47.38983" lon="6.77392">
        <ele>345.7</ele>
        <time>2024-05-08T08:32:15Z</time>
      </trkpt>
      <trkpt lat="47.38936" lon="6.77374">
        <ele>345.4</ele>
        <time>2024-05-08T08:32:25Z</time>
      </trkpt>
      <trkpt lat="47.38895" lon="6.7736">
        <ele>345.3</ele>
        <time>2024-05-08T08:32:35Z</time>
      </trkpt>
      <trkpt lat="47.38842" lon="6.77341">
        <ele>345.3</ele>
        <time>2024-05-08T08:32:47Z</time>
      </trkpt>
      <trkpt lat="47.38788" lon="6.77326">
        <ele>345.3</ele>
        <time>2024-05-08T08:32:57Z</time>
      </trkpt>
      <trkpt lat="47.38736" lon="6.77302">
        <ele>345.4</ele>
        <time>2024-05-08T08:33:08Z</time>
      </trkpt>
      <trkpt lat="47.38686" lon="6.77284">
        <ele>345.6</ele>
        <time>2024-05-08T08:33:19Z</time>
      </trkpt>
      <trkpt lat="47.38634" lon="6.77275">
        <ele>345.8</ele>
        <time>2024-05-08T08:33:29Z</time>
      </trkpt>
      <trkpt lat="47.38585" lon="6.77269">
        <ele>345.6</ele>
        <time>2024-05-08T08:33:40Z</time>
      </trkpt>
      <trkpt lat="47.38539" lon="6.77267">
        <ele>346.1</ele>
        <time>2024-05-08T08:33:50Z</time>
      </trkpt>
      <trkpt lat="47.38499" lon="6.77273">
        <ele>346.6</ele>
        <time>2024-05-08T08:34:02Z</time>
      </trkpt>
      <trkpt lat="47.38461" lon="6.7729">
        <ele>347.2</ele>
        <time>2024-05-08T08:34:12Z</time>
      </trkpt>
      <trkpt lat="47.38449" lon="6.77326">
        <ele>350.4</ele>
        <time>2024-05-08T08:34:22Z</time>
      </trkpt>
      <trkpt lat="47.38447" lon="6.77361">
        <ele>353.3</ele>
        <time>2024-05-08T08:34:33Z</time>
      </trkpt>
      <trkpt lat="47.38405" lon="6.7735">
        <ele>352.7</ele>
        <time>2024-05-08T08:34:43Z</time>
      </trkpt>
      <trkpt lat="47.38334" lon="6.77335">
        <ele>351.1</ele>
        <time>2024-05-08T08:34:54Z</time>
      </trkpt>
      <trkpt lat="47.38264" lon="6.7732">
        <ele>350.9</ele>
        <time>2024-05-08T08:35:04Z</time>
      </trkpt>
      <trkpt lat="47.38217" lon="6.77293">
        <ele>352</ele>
        <time>2024-05-08T08:35:14Z</time>
      </trkpt>
      <trkpt lat="47.38221" lon="6.77221">
        <ele>352.3</ele>
        <time>2024-05-08T08:35:25Z</time>
      </trkpt>
      <trkpt lat="47.38218" lon="6.77143">
        <ele>352.6</ele>
        <time>2024-05-08T08:35:35Z</time>
      </trkpt>
      <trkpt lat="47.38204" lon="6.77094">
        <ele>352.9</ele>
        <time>2024-05-08T08:35:46Z</time>
      </trkpt>
      <trkpt lat="47.38204" lon="6.7709">
        <ele>352.9</ele>
        <time>2024-05-08T08:35:56Z</time>
      </trkpt>
      <trkpt lat="47.38204" lon="6.7709">
        <ele>352.9</ele>
        <time>2024-05-08T08:36:07Z</time>
      </trkpt>
      <trkpt lat="47.38204" lon="6.7709">
        <ele>352.9</ele>
        <time>2024-05-08T08:36:17Z</time>
      </trkpt>
      <trkpt lat="47.38204" lon="6.7709">
        <ele>352.9</ele>
        <time>2024-05-08T08:36:28Z</time>
      </trkpt>
      <trkpt lat="47.38204" lon="6.7709">
        <ele>352.9</ele>
        <time>2024-05-08T08:36:38Z</time>
      </trkpt>
      <trkpt lat="47.38204" lon="6.7709">
        <ele>352.9</ele>
        <time>2024-05-08T08:36:49Z</time>
      </trkpt>
      <trkpt lat="47.38204" lon="6.7709">
        <ele>352.9</ele>
        <time>2024-05-08T08:37:00Z</time>
      </trkpt>
      <trkpt lat="47.38204" lon="6.7709">
        <ele>352.9</ele>
        <time>2024-05-08T08:37:10Z</time>
      </trkpt>
      <trkpt lat="47.38204" lon="6.7709">
        <ele>352.9</ele>
        <time>2024-05-08T08:37:20Z</time>
      </trkpt>
      <trkpt lat="47.38206" lon="6.77091">
        <ele>352.9</ele>
        <time>2024-05-08T08:37:30Z</time>
      </trkpt>
      <trkpt lat="47.38208" lon="6.7709">
        <ele>353</ele>
        <time>2024-05-08T08:37:40Z</time>
      </trkpt>
      <trkpt lat="47.38205" lon="6.77087">
        <ele>353</ele>
        <time>2024-05-08T08:37:51Z</time>
      </trkpt>
      <trkpt lat="47.38205" lon="6.77087">
        <ele>353</ele>
        <time>2024-05-08T08:38:02Z</time>
      </trkpt>
      <trkpt lat="47.38205" lon="6.77086">
        <ele>353</ele>
        <time>2024-05-08T08:38:13Z</time>
      </trkpt>
      <trkpt lat="47.38203" lon="6.77062">
        <ele>353.5</ele>
        <time>2024-05-08T08:38:23Z</time>
      </trkpt>
      <trkpt lat="47.38182" lon="6.77027">
        <ele>354.4</ele>
        <time>2024-05-08T08:38:34Z</time>
      </trkpt>
      <trkpt lat="47.38155" lon="6.77011">
        <ele>355.7</ele>
        <time>2024-05-08T08:38:44Z</time>
      </trkpt>
      <trkpt lat="47.38119" lon="6.77017">
        <ele>357.2</ele>
        <time>2024-05-08T08:38:55Z</time>
      </trkpt>
      <trkpt lat="47.38083" lon="6.77022">
        <ele>357.7</ele>
        <time>2024-05-08T08:39:05Z</time>
      </trkpt>
      <trkpt lat="47.38051" lon="6.76985">
        <ele>358.6</ele>
        <time>2024-05-08T08:39:16Z</time>
      </trkpt>
      <trkpt lat="47.38034" lon="6.76928">
        <ele>359.9</ele>
        <time>2024-05-08T08:39:27Z</time>
      </trkpt>
      <trkpt lat="47.38015" lon="6.76873">
        <ele>361.5</ele>
        <time>2024-05-08T08:39:38Z</time>
      </trkpt>
      <trkpt lat="47.37964" lon="6.7686">
        <ele>361.5</ele>
        <time>2024-05-08T08:39:49Z</time>
      </trkpt>
      <trkpt lat="47.37915" lon="6.76835">
        <ele>361.4</ele>
        <time>2024-05-08T08:39:59Z</time>
      </trkpt>
      <trkpt lat="47.37863" lon="6.76785">
        <ele>361.1</ele>
        <time>2024-05-08T08:40:10Z</time>
      </trkpt>
      <trkpt lat="47.37822" lon="6.76736">
        <ele>361.1</ele>
        <time>2024-05-08T08:40:20Z</time>
      </trkpt>
      <trkpt lat="47.37792" lon="6.76668">
        <ele>360.5</ele>
        <time>2024-05-08T08:40:32Z</time>
      </trkpt>
      <trkpt lat="47.37768" lon="6.76581">
        <ele>360.3</ele>
        <time>2024-05-08T08:40:42Z</time>
      </trkpt>
      <trkpt lat="47.37756" lon="6.76502">
        <ele>360.1</ele>
        <time>2024-05-08T08:40:52Z</time>
      </trkpt>
      <trkpt lat="47.37741" lon="6.76413">
        <ele>359.4</ele>
        <time>2024-05-08T08:41:03Z</time>
      </trkpt>
      <trkpt lat="47.37725" lon="6.76332">
        <ele>359.4</ele>
        <time>2024-05-08T08:41:14Z</time>
      </trkpt>
      <trkpt lat="47.37714" lon="6.76252">
        <ele>360.8</ele>
        <time>2024-05-08T08:41:24Z</time>
      </trkpt>
      <trkpt lat="47.37708" lon="6.76212">
        <ele>361.3</ele>
        <time>2024-05-08T08:41:34Z</time>
      </trkpt>
      <trkpt lat="47.37696" lon="6.76181">
        <ele>361.1</ele>
        <time>2024-05-08T08:41:44Z</time>
      </trkpt>
      <trkpt lat="47.37696" lon="6.76181">
        <ele>361.1</ele>
        <time>2024-05-08T08:41:55Z</time>
      </trkpt>
      <trkpt lat="47.37696" lon="6.76181">
        <ele>361.1</ele>
        <time>2024-05-08T08:42:05Z</time>
      </trkpt>
      <trkpt lat="47.37696" lon="6.76181">
        <ele>361.1</ele>
        <time>2024-05-08T08:42:15Z</time>
      </trkpt>
      <trkpt lat="47.37696" lon="6.76181">
        <ele>361.1</ele>
        <time>2024-05-08T08:42:26Z</time>
      </trkpt>
      <trkpt lat="47.37696" lon="6.76181">
        <ele>361.1</ele>
        <time>2024-05-08T08:42:37Z</time>
      </trkpt>
      <trkpt lat="47.37696" lon="6.76181">
        <ele>361.1</ele>
        <time>2024-05-08T08:42:47Z</time>
      </trkpt>
      <trkpt lat="47.37696" lon="6.76181">
        <ele>361.1</ele>
        <time>2024-05-08T08:42:58Z</time>
      </trkpt>
      <trkpt lat="47.37694" lon="6.76177">
        <ele>361.1</ele>
        <time>2024-05-08T08:43:09Z</time>
      </trkpt>
      <trkpt lat="47.37681" lon="6.76148">
        <ele>361.2</ele>
        <time>2024-05-08T08:43:20Z</time>
      </trkpt>
      <trkpt lat="47.37647" lon="6.76096">
        <ele>360</ele>
        <time>2024-05-08T08:43:30Z</time>
      </trkpt>
      <trkpt lat="47.37593" lon="6.76037">
        <ele>357.8</ele>
        <time>2024-05-08T08:43:41Z</time>
      </trkpt>
      <trkpt lat="47.37534" lon="6.75996">
        <ele>357.3</ele>
        <time>2024-05-08T08:43:52Z</time>
      </trkpt>
      <trkpt lat="47.37485" lon="6.75976">
        <ele>357.4</ele>
        <time>2024-05-08T08:44:02Z</time>
      </trkpt>
      <trkpt lat="47.37442" lon="6.75951">
        <ele>357.5</ele>
        <time>2024-05-08T08:44:12Z</time>
      </trkpt>
      <trkpt lat="47.37395" lon="6.75945">
        <ele>357.2</ele>
        <time>2024-05-08T08:44:23Z</time>
      </trkpt>
      <trkpt lat="47.37352" lon="6.75947">
        <ele>356.9</ele>
        <time>2024-05-08T08:44:33Z</time>
      </trkpt>
      <trkpt lat="47.37292" lon="6.75947">
        <ele>356.2</ele>
        <time>2024-05-08T08:44:44Z</time>
      </trkpt>
      <trkpt lat="47.37242" lon="6.75939">
        <ele>355.6</ele>
        <time>2024-05-08T08:44:54Z</time>
      </trkpt>
      <trkpt lat="47.37179" lon="6.75917">
        <ele>354.6</ele>
        <time>2024-05-08T08:45:05Z</time>
      </trkpt>
      <trkpt lat="47.37125" lon="6.75874">
        <ele>354</ele>
        <time>2024-05-08T08:45:15Z</time>
      </trkpt>
      <trkpt lat="47.3707" lon="6.75833">
        <ele>353.7</ele>
        <time>2024-05-08T08:45:26Z</time>
      </trkpt>
      <trkpt lat="47.37014" lon="6.7578">
        <ele>353.5</ele>
        <time>2024-05-08T08:45:37Z</time>
      </trkpt>
      <trkpt lat="47.36974" lon="6.75719">
        <ele>355</ele>
        <time>2024-05-08T08:45:48Z</time>
      </trkpt>
      <trkpt lat="47.36944" lon="6.75685">
        <ele>355.6</ele>
        <time>2024-05-08T08:45:58Z</time>
      </trkpt>
      <trkpt lat="47.36904" lon="6.75642">
        <ele>355.5</ele>
        <time>2024-05-08T08:46:08Z</time>
      </trkpt>
      <trkpt lat="47.36858" lon="6.75597">
        <ele>355.4</ele>
        <time>2024-05-08T08:46:18Z</time>
      </trkpt>
      <trkpt lat="47.36803" lon="6.7555">
        <ele>355.3</ele>
        <time>2024-05-08T08:46:29Z</time>
      </trkpt>
      <trkpt lat="47.36745" lon="6.75522">
        <ele>355.8</ele>
        <time>2024-05-08T08:46:40Z</time>
      </trkpt>
      <trkpt lat="47.36695" lon="6.75516">
        <ele>355.8</ele>
        <time>2024-05-08T08:46:50Z</time>
      </trkpt>
      <trkpt lat="47.36629" lon="6.75514">
        <ele>354.1</ele>
        <time>2024-05-08T08:47:00Z</time>
      </trkpt>
      <trkpt lat="47.36584" lon="6.75489">
        <ele>354.5</ele>
        <time>2024-05-08T08:47:11Z</time>
      </trkpt>
      <trkpt lat="47.36552" lon="6.75477">
        <ele>355.1</ele>
        <time>2024-05-08T08:47:22Z</time>
      </trkpt>
      <trkpt lat="47.3652" lon="6.75469">
        <ele>356</ele>
        <time>2024-05-08T08:47:33Z</time>
      </trkpt>
      <trkpt lat="47.36479" lon="6.75471">
        <ele>357.2</ele>
        <time>2024-05-08T08:47:43Z</time>
      </trkpt>
      <trkpt lat="47.36424" lon="6.75482">
        <ele>358.5</ele>
        <time>2024-05-08T08:47:54Z</time>
      </trkpt>
      <trkpt lat="47.36369" lon="6.7549">
        <ele>359.3</ele>
        <time>2024-05-08T08:48:05Z</time>
      </trkpt>
      <trkpt lat="47.36318" lon="6.7549">
        <ele>359.6</ele>
        <time>2024-05-08T08:48:15Z</time>
      </trkpt>
      <trkpt lat="47.36264" lon="6.75494">
        <ele>359.5</ele>
        <time>2024-05-08T08:48:25Z</time>
      </trkpt>
      <trkpt lat="47.36218" lon="6.75497">
        <ele>359.3</ele>
        <time>2024-05-08T08:48:36Z</time>
      </trkpt>
      <trkpt lat="47.36181" lon="6.75524">
        <ele>359.5</ele>
        <time>2024-05-08T08:48:46Z</time>
      </trkpt>
      <trkpt lat="47.36131" lon="6.75554">
        <ele>360</ele>
        <time>2024-05-08T08:48:57Z</time>
      </trkpt>
      <trkpt lat="47.36072" lon="6.75547">
        <ele>358.6</ele>
        <time>2024-05-08T08:49:08Z</time>
      </trkpt>
      <trkpt lat="47.36013" lon="6.75601">
        <ele>357</ele>
        <time>2024-05-08T08:49:18Z</time>
      </trkpt>
      <trkpt lat="47.35955" lon="6.7564">
        <ele>357.6</ele>
        <time>2024-05-08T08:49:29Z</time>
      </trkpt>
      <trkpt lat="47.35905" lon="6.75688">
        <ele>358</ele>
        <time>2024-05-08T08:49:40Z</time>
      </trkpt>
      <trkpt lat="47.3585" lon="6.7573">
        <ele>357.9</ele>
        <time>2024-05-08T08:49:51Z</time>
      </trkpt>
      <trkpt lat="47.35793" lon="6.75762">
        <ele>358.6</ele>
        <time>2024-05-08T08:50:02Z</time>
      </trkpt>
      <trkpt lat="47.3574" lon="6.75795">
        <ele>358.9</ele>
        <time>2024-05-08T08:50:13Z</time>
      </trkpt>
      <trkpt lat="47.35681" lon="6.75815">
        <ele>359.3</ele>
        <time>2024-05-08T08:50:24Z</time>
      </trkpt>
      <trkpt lat="47.35626" lon="6.75829">
        <ele>360.4</ele>
        <time>2024-05-08T08:50:36Z</time>
      </trkpt>
      <trkpt lat="47.35572" lon="6.75858">
        <ele>360.7</ele>
        <time>2024-05-08T08:50:46Z</time>
      </trkpt>
      <trkpt lat="47.35511" lon="6.75881">
        <ele>360.9</ele>
        <time>2024-05-08T08:50:57Z</time>
      </trkpt>
      <trkpt lat="47.35448" lon="6.75879">
        <ele>361.1</ele>
        <time>2024-05-08T08:51:08Z</time>
      </trkpt>
      <trkpt lat="47.35387" lon="6.75874">
        <ele>362</ele>
        <time>2024-05-08T08:51:19Z</time>
      </trkpt>
      <trkpt lat="47.35324" lon="6.7587">
        <ele>362.1</ele>
        <time>2024-05-08T08:51:30Z</time>
      </trkpt>
      <trkpt lat="47.35268" lon="6.7587">
        <ele>362.1</ele>
        <time>2024-05-08T08:51:40Z</time>
      </trkpt>
      <trkpt lat="47.35204" lon="6.75866">
        <ele>362.5</ele>
        <time>2024-05-08T08:51:51Z</time>
      </trkpt>
      <trkpt lat="47.35148" lon="6.75867">
        <ele>362.7</ele>
        <time>2024-05-08T08:52:01Z</time>
      </trkpt>
      <trkpt lat="47.3509" lon="6.75871">
        <ele>362.7</ele>
        <time>2024-05-08T08:52:11Z</time>
      </trkpt>
      <trkpt lat="47.3503" lon="6.75867">
        <ele>362.8</ele>
        <time>2024-05-08T08:52:22Z</time>
      </trkpt>
      <trkpt lat="47.34978" lon="6.75852">
        <ele>363.1</ele>
        <time>2024-05-08T08:52:33Z</time>
      </trkpt>
      <trkpt lat="47.34929" lon="6.75829">
        <ele>363.5</ele>
        <time>2024-05-08T08:52:43Z</time>
      </trkpt>
      <trkpt lat="47.34879" lon="6.75785">
        <ele>363.9</ele>
        <time>2024-05-08T08:52:54Z</time>
      </trkpt>
      <trkpt lat="47.3485" lon="6.7572">
        <ele>364.4</ele>
        <time>2024-05-08T08:53:05Z</time>
      </trkpt>
      <trkpt lat="47.34816" lon="6.75671">
        <ele>362.4</ele>
        <time>2024-05-08T08:53:15Z</time>
      </trkpt>
      <trkpt lat="47.34751" lon="6.75618">
        <ele>358.2</ele>
        <time>2024-05-08T08:53:25Z</time>
      </trkpt>
      <trkpt lat="47.3468" lon="6.75652">
        <ele>357.8</ele>
        <time>2024-05-08T08:53:36Z</time>
      </trkpt>
      <trkpt lat="47.34628" lon="6.75702">
        <ele>358.1</ele>
        <time>2024-05-08T08:53:46Z</time>
      </trkpt>
      <trkpt lat="47.34564" lon="6.75726">
        <ele>357.6</ele>
        <time>2024-05-08T08:53:57Z</time>
      </trkpt>
      <trkpt lat="47.34496" lon="6.75758">
        <ele>358</ele>
        <time>2024-05-08T08:54:07Z</time>
      </trkpt>
      <trkpt lat="47.34433" lon="6.7578">
        <ele>359.2</ele>
        <time>2024-05-08T08:54:18Z</time>
      </trkpt>
      <trkpt lat="47.3439" lon="6.75791">
        <ele>361.4</ele>
        <time>2024-05-08T08:54:28Z</time>
      </trkpt>
      <trkpt lat="47.34337" lon="6.75797">
        <ele>362.2</ele>
        <time>2024-05-08T08:54:39Z</time>
      </trkpt>
      <trkpt lat="47.3428" lon="6.75803">
        <ele>361.8</ele>
        <time>2024-05-08T08:54:50Z</time>
      </trkpt>
      <trkpt lat="47.34224" lon="6.75798">
        <ele>361.9</ele>
        <time>2024-05-08T08:55:00Z</time>
      </trkpt>
      <trkpt lat="47.34167" lon="6.75772">
        <ele>362.6</ele>
        <time>2024-05-08T08:55:11Z</time>
      </trkpt>
      <trkpt lat="47.34118" lon="6.75757">
        <ele>363.4</ele>
        <time>2024-05-08T08:55:21Z</time>
      </trkpt>
      <trkpt lat="47.34063" lon="6.75743">
        <ele>363.3</ele>
        <time>2024-05-08T08:55:31Z</time>
      </trkpt>
      <trkpt lat="47.33998" lon="6.75731">
        <ele>363.1</ele>
        <time>2024-05-08T08:55:42Z</time>
      </trkpt>
      <trkpt lat="47.33934" lon="6.75695">
        <ele>362.9</ele>
        <time>2024-05-08T08:55:53Z</time>
      </trkpt>
      <trkpt lat="47.33871" lon="6.7566">
        <ele>362.6</ele>
        <time>2024-05-08T08:56:04Z</time>
      </trkpt>
      <trkpt lat="47.33811" lon="6.75624">
        <ele>363</ele>
        <time>2024-05-08T08:56:15Z</time>
      </trkpt>
      <trkpt lat="47.33772" lon="6.75566">
        <ele>364.3</ele>
        <time>2024-05-08T08:56:26Z</time>
      </trkpt>
      <trkpt lat="47.33736" lon="6.75524">
        <ele>366.2</ele>
        <time>2024-05-08T08:56:36Z</time>
      </trkpt>
      <trkpt lat="47.33701" lon="6.75507">
        <ele>368.1</ele>
        <time>2024-05-08T08:56:47Z</time>
      </trkpt>
      <trkpt lat="47.33662" lon="6.75492">
        <ele>369.5</ele>
        <time>2024-05-08T08:56:58Z</time>
      </trkpt>
      <trkpt lat="47.33617" lon="6.75481">
        <ele>370.4</ele>
        <time>2024-05-08T08:57:09Z</time>
      </trkpt>
      <trkpt lat="47.33562" lon="6.75474">
        <ele>370.1</ele>
        <time>2024-05-08T08:57:20Z</time>
      </trkpt>
      <trkpt lat="47.33503" lon="6.7547">
        <ele>370.3</ele>
        <time>2024-05-08T08:57:31Z</time>
      </trkpt>
      <trkpt lat="47.33448" lon="6.75474">
        <ele>370.1</ele>
        <time>2024-05-08T08:57:41Z</time>
      </trkpt>
      <trkpt lat="47.33382" lon="6.75493">
        <ele>368.9</ele>
        <time>2024-05-08T08:57:52Z</time>
      </trkpt>
      <trkpt lat="47.33346" lon="6.75567">
        <ele>369.7</ele>
        <time>2024-05-08T08:58:02Z</time>
      </trkpt>
      <trkpt lat="47.33318" lon="6.75632">
        <ele>370.6</ele>
        <time>2024-05-08T08:58:12Z</time>
      </trkpt>
      <trkpt lat="47.33279" lon="6.7569">
        <ele>370.5</ele>
        <time>2024-05-08T08:58:22Z</time>
      </trkpt>
      <trkpt lat="47.33229" lon="6.75749">
        <ele>370.1</ele>
        <time>2024-05-08T08:58:33Z</time>
      </trkpt>
      <trkpt lat="47.33207" lon="6.75812">
        <ele>373.3</ele>
        <time>2024-05-08T08:58:44Z</time>
      </trkpt>
      <trkpt lat="47.33193" lon="6.75853">
        <ele>375.8</ele>
        <time>2024-05-08T08:58:54Z</time>
      </trkpt>
      <trkpt lat="47.33177" lon="6.75886">
        <ele>377.4</ele>
        <time>2024-05-08T08:59:04Z</time>
      </trkpt>
      <trkpt lat="47.33148" lon="6.7593">
        <ele>377.8</ele>
        <time>2024-05-08T08:59:15Z</time>
      </trkpt>
      <trkpt lat="47.33101" lon="6.75978">
        <ele>376.7</ele>
        <time>2024-05-08T08:59:26Z</time>
      </trkpt>
      <trkpt lat="47.33041" lon="6.76043">
        <ele>371.6</ele>
        <time>2024-05-08T08:59:36Z</time>
      </trkpt>
      <trkpt lat="47.32974" lon="6.76113">
        <ele>365.7</ele>
        <time>2024-05-08T08:59:46Z</time>
      </trkpt>
      <trkpt lat="47.32941" lon="6.76227">
        <ele>364.5</ele>
        <time>2024-05-08T08:59:57Z</time>
      </trkpt>
      <trkpt lat="47.3291" lon="6.76298">
        <ele>366</ele>
        <time>2024-05-08T09:00:08Z</time>
      </trkpt>
      <trkpt lat="47.3288" lon="6.76363">
        <ele>366.9</ele>
        <time>2024-05-08T09:00:19Z</time>
      </trkpt>
      <trkpt lat="47.32852" lon="6.76423">
        <ele>368.2</ele>
        <time>2024-05-08T09:00:29Z</time>
      </trkpt>
      <trkpt lat="47.32822" lon="6.7648">
        <ele>368.8</ele>
        <time>2024-05-08T09:00:40Z</time>
      </trkpt>
      <trkpt lat="47.32795" lon="6.7655">
        <ele>369.1</ele>
        <time>2024-05-08T09:00:51Z</time>
      </trkpt>
      <trkpt lat="47.32769" lon="6.76625">
        <ele>369.1</ele>
        <time>2024-05-08T09:01:01Z</time>
      </trkpt>
      <trkpt lat="47.3274" lon="6.76689">
        <ele>369.2</ele>
        <time>2024-05-08T09:01:11Z</time>
      </trkpt>
      <trkpt lat="47.32702" lon="6.76752">
        <ele>367.6</ele>
        <time>2024-05-08T09:01:22Z</time>
      </trkpt>
      <trkpt lat="47.32647" lon="6.76822">
        <ele>365.1</ele>
        <time>2024-05-08T09:01:32Z</time>
      </trkpt>
      <trkpt lat="47.32649" lon="6.76887">
        <ele>366.5</ele>
        <time>2024-05-08T09:01:43Z</time>
      </trkpt>
      <trkpt lat="47.32653" lon="6.76939">
        <ele>368.1</ele>
        <time>2024-05-08T09:01:54Z</time>
      </trkpt>
      <trkpt lat="47.32658" lon="6.77002">
        <ele>368.7</ele>
        <time>2024-05-08T09:02:05Z</time>
      </trkpt>
      <trkpt lat="47.32664" lon="6.77076">
        <ele>367.8</ele>
        <time>2024-05-08T09:02:16Z</time>
      </trkpt>
      <trkpt lat="47.32663" lon="6.77156">
        <ele>367.6</ele>
        <time>2024-05-08T09:02:26Z</time>
      </trkpt>
      <trkpt lat="47.32651" lon="6.77219">
        <ele>368</ele>
        <time>2024-05-08T09:02:36Z</time>
      </trkpt>
      <trkpt lat="47.32643" lon="6.773">
        <ele>367.6</ele>
        <time>2024-05-08T09:02:47Z</time>
      </trkpt>
      <trkpt lat="47.32647" lon="6.77383">
        <ele>367.5</ele>
        <time>2024-05-08T09:02:58Z</time>
      </trkpt>
      <trkpt lat="47.32646" lon="6.77466">
        <ele>367.7</ele>
        <time>2024-05-08T09:03:08Z</time>
      </trkpt>
      <trkpt lat="47.32649" lon="6.77534">
        <ele>369</ele>
        <time>2024-05-08T09:03:19Z</time>
      </trkpt>
      <trkpt lat="47.32658" lon="6.77596">
        <ele>369.5</ele>
        <time>2024-05-08T09:03:29Z</time>
      </trkpt>
      <trkpt lat="47.32681" lon="6.77662">
        <ele>369.8</ele>
        <time>2024-05-08T09:03:40Z</time>
      </trkpt>
      <trkpt lat="47.32685" lon="6.77735">
        <ele>370.1</ele>
        <time>2024-05-08T09:03:50Z</time>
      </trkpt>
      <trkpt lat="47.3267" lon="6.77816">
        <ele>370.2</ele>
        <time>2024-05-08T09:04:01Z</time>
      </trkpt>
      <trkpt lat="47.32665" lon="6.77889">
        <ele>370.7</ele>
        <time>2024-05-08T09:04:11Z</time>
      </trkpt>
      <trkpt lat="47.32664" lon="6.77953">
        <ele>371.2</ele>
        <time>2024-05-08T09:04:22Z</time>
      </trkpt>
      <trkpt lat="47.32649" lon="6.78028">
        <ele>371.1</ele>
        <time>2024-05-08T09:04:33Z</time>
      </trkpt>
      <trkpt lat="47.32618" lon="6.78105">
        <ele>370.6</ele>
        <time>2024-05-08T09:04:44Z</time>
      </trkpt>
      <trkpt lat="47.32584" lon="6.78176">
        <ele>369.7</ele>
        <time>2024-05-08T09:04:54Z</time>
      </trkpt>
      <trkpt lat="47.32553" lon="6.78255">
        <ele>369.8</ele>
        <time>2024-05-08T09:05:05Z</time>
      </trkpt>
      <trkpt lat="47.32531" lon="6.78309">
        <ele>369.8</ele>
        <time>2024-05-08T09:05:16Z</time>
      </trkpt>
      <trkpt lat="47.32515" lon="6.78344">
        <ele>369.6</ele>
        <time>2024-05-08T09:05:26Z</time>
      </trkpt>
      <trkpt lat="47.325" lon="6.78373">
        <ele>369.4</ele>
        <time>2024-05-08T09:05:36Z</time>
      </trkpt>
      <trkpt lat="47.32479" lon="6.7841">
        <ele>368.7</ele>
        <time>2024-05-08T09:05:47Z</time>
      </trkpt>
      <trkpt lat="47.32452" lon="6.78459">
        <ele>367.7</ele>
        <time>2024-05-08T09:05:58Z</time>
      </trkpt>
      <trkpt lat="47.32428" lon="6.78502">
        <ele>367.9</ele>
        <time>2024-05-08T09:06:09Z</time>
      </trkpt>
      <trkpt lat="47.32403" lon="6.78542">
        <ele>368</ele>
        <time>2024-05-08T09:06:20Z</time>
      </trkpt>
      <trkpt lat="47.32371" lon="6.78589">
        <ele>367.8</ele>
        <time>2024-05-08T09:06:31Z</time>
      </trkpt>
      <trkpt lat="47.32346" lon="6.7863">
        <ele>368.2</ele>
        <time>2024-05-08T09:06:42Z</time>
      </trkpt>
      <trkpt lat="47.32324" lon="6.78671">
        <ele>368.1</ele>
        <time>2024-05-08T09:06:52Z</time>
      </trkpt>
      <trkpt lat="47.32307" lon="6.78721">
        <ele>368.8</ele>
        <time>2024-05-08T09:07:03Z</time>
      </trkpt>
      <trkpt lat="47.32291" lon="6.78764">
        <ele>370.2</ele>
        <time>2024-05-08T09:07:13Z</time>
      </trkpt>
      <trkpt lat="47.32276" lon="6.78808">
        <ele>372</ele>
        <time>2024-05-08T09:07:24Z</time>
      </trkpt>
      <trkpt lat="47.32257" lon="6.78848">
        <ele>372.4</ele>
        <time>2024-05-08T09:07:34Z</time>
      </trkpt>
      <trkpt lat="47.32251" lon="6.78849">
        <ele>372.4</ele>
        <time>2024-05-08T09:07:45Z</time>
      </trkpt>
      <trkpt lat="47.32249" lon="6.78852">
        <ele>372.5</ele>
        <time>2024-05-08T09:07:56Z</time>
      </trkpt>
      <trkpt lat="47.32249" lon="6.78866">
        <ele>372.8</ele>
        <time>2024-05-08T09:08:07Z</time>
      </trkpt>
      <trkpt lat="47.32253" lon="6.78872">
        <ele>373</ele>
        <time>2024-05-08T09:08:18Z</time>
      </trkpt>
      <trkpt lat="47.32252" lon="6.7888">
        <ele>373.1</ele>
        <time>2024-05-08T09:08:28Z</time>
      </trkpt>
      <trkpt lat="47.32248" lon="6.789">
        <ele>373.3</ele>
        <time>2024-05-08T09:08:39Z</time>
      </trkpt>
      <trkpt lat="47.32239" lon="6.78939">
        <ele>373.4</ele>
        <time>2024-05-08T09:08:49Z</time>
      </trkpt>
      <trkpt lat="47.32223" lon="6.78993">
        <ele>373.2</ele>
        <time>2024-05-08T09:09:00Z</time>
      </trkpt>
      <trkpt lat="47.32211" lon="6.79047">
        <ele>372.9</ele>
        <time>2024-05-08T09:09:10Z</time>
      </trkpt>
      <trkpt lat="47.32209" lon="6.79118">
        <ele>373.3</ele>
        <time>2024-05-08T09:09:21Z</time>
      </trkpt>
      <trkpt lat="47.32207" lon="6.79183">
        <ele>373.2</ele>
        <time>2024-05-08T09:09:31Z</time>
      </trkpt>
      <trkpt lat="47.32205" lon="6.79253">
        <ele>373.5</ele>
        <time>2024-05-08T09:09:41Z</time>
      </trkpt>
      <trkpt lat="47.32206" lon="6.79309">
        <ele>374.2</ele>
        <time>2024-05-08T09:09:52Z</time>
      </trkpt>
      <trkpt lat="47.32207" lon="6.79356">
        <ele>374.9</ele>
        <time>2024-05-08T09:10:03Z</time>
      </trkpt>
      <trkpt lat="47.32205" lon="6.794">
        <ele>375.4</ele>
        <time>2024-05-08T09:10:14Z</time>
      </trkpt>
      <trkpt lat="47.32194" lon="6.79447">
        <ele>375.6</ele>
        <time>2024-05-08T09:10:25Z</time>
      </trkpt>
      <trkpt lat="47.3218" lon="6.7949">
        <ele>375.1</ele>
        <time>2024-05-08T09:10:35Z</time>
      </trkpt>
      <trkpt lat="47.32197" lon="6.79516">
        <ele>373.7</ele>
        <time>2024-05-08T09:10:46Z</time>
      </trkpt>
      <trkpt lat="47.32205" lon="6.7957">
        <ele>370.6</ele>
        <time>2024-05-08T09:10:57Z</time>
      </trkpt>
      <trkpt lat="47.32203" lon="6.79631">
        <ele>368.9</ele>
        <time>2024-05-08T09:11:08Z</time>
      </trkpt>
      <trkpt lat="47.322" lon="6.79663">
        <ele>369.4</ele>
        <time>2024-05-08T09:11:18Z</time>
      </trkpt>
      <trkpt lat="47.32195" lon="6.79693">
        <ele>370</ele>
        <time>2024-05-08T09:11:28Z</time>
      </trkpt>
      <trkpt lat="47.32183" lon="6.79719">
        <ele>371</ele>
        <time>2024-05-08T09:11:39Z</time>
      </trkpt>
      <trkpt lat="47.32172" lon="6.79743">
        <ele>371.3</ele>
        <time>2024-05-08T09:11:49Z</time>
      </trkpt>
      <trkpt lat="47.32162" lon="6.79784">
        <ele>371</ele>
        <time>2024-05-08T09:12:00Z</time>
      </trkpt>
      <trkpt lat="47.3215" lon="6.79828">
        <ele>370.5</ele>
        <time>2024-05-08T09:12:10Z</time>
      </trkpt>
      <trkpt lat="47.32143" lon="6.79877">
        <ele>370</ele>
        <time>2024-05-08T09:12:21Z</time>
      </trkpt>
      <trkpt lat="47.32146" lon="6.79927">
        <ele>368.6</ele>
        <time>2024-05-08T09:12:31Z</time>
      </trkpt>
      <trkpt lat="47.32151" lon="6.79987">
        <ele>367.2</ele>
        <time>2024-05-08T09:12:42Z</time>
      </trkpt>
      <trkpt lat="47.32153" lon="6.80038">
        <ele>367.2</ele>
        <time>2024-05-08T09:12:53Z</time>
      </trkpt>
      <trkpt lat="47.32158" lon="6.8009">
        <ele>368</ele>
        <time>2024-05-08T09:13:03Z</time>
      </trkpt>
      <trkpt lat="47.32156" lon="6.80136">
        <ele>369.6</ele>
        <time>2024-05-08T09:13:14Z</time>
      </trkpt>
      <trkpt lat="47.3215" lon="6.80171">
        <ele>372.1</ele>
        <time>2024-05-08T09:13:24Z</time>
      </trkpt>
      <trkpt lat="47.32143" lon="6.80206">
        <ele>374.7</ele>
        <time>2024-05-08T09:13:35Z</time>
      </trkpt>
      <trkpt lat="47.3214" lon="6.80231">
        <ele>376.7</ele>
        <time>2024-05-08T09:13:46Z</time>
      </trkpt>
      <trkpt lat="47.32135" lon="6.80264">
        <ele>378.9</ele>
        <time>2024-05-08T09:13:57Z</time>
      </trkpt>
      <trkpt lat="47.32132" lon="6.80291">
        <ele>380.4</ele>
        <time>2024-05-08T09:14:08Z</time>
      </trkpt>
      <trkpt lat="47.32139" lon="6.80328">
        <ele>382.9</ele>
        <time>2024-05-08T09:14:19Z</time>
      </trkpt>
      <trkpt lat="47.3214" lon="6.80359">
        <ele>385</ele>
        <time>2024-05-08T09:14:30Z</time>
      </trkpt>
      <trkpt lat="47.32147" lon="6.80386">
        <ele>386.8</ele>
        <time>2024-05-08T09:14:40Z</time>
      </trkpt>
      <trkpt lat="47.32158" lon="6.80417">
        <ele>388.8</ele>
        <time>2024-05-08T09:14:51Z</time>
      </trkpt>
      <trkpt lat="47.32171" lon="6.80441">
        <ele>390.4</ele>
        <time>2024-05-08T09:15:02Z</time>
      </trkpt>
      <trkpt lat="47.32183" lon="6.80467">
        <ele>391.5</ele>
        <time>2024-05-08T09:15:12Z</time>
      </trkpt>
      <trkpt lat="47.32192" lon="6.80498">
        <ele>392.1</ele>
        <time>2024-05-08T09:15:23Z</time>
      </trkpt>
      <trkpt lat="47.32205" lon="6.80527">
        <ele>393.4</ele>
        <time>2024-05-08T09:15:34Z</time>
      </trkpt>
      <trkpt lat="47.3222" lon="6.80554">
        <ele>394.5</ele>
        <time>2024-05-08T09:15:45Z</time>
      </trkpt>
      <trkpt lat="47.32236" lon="6.80583">
        <ele>394.3</ele>
        <time>2024-05-08T09:15:56Z</time>
      </trkpt>
      <trkpt lat="47.32255" lon="6.80596">
        <ele>394.2</ele>
        <time>2024-05-08T09:16:07Z</time>
      </trkpt>
      <trkpt lat="47.32272" lon="6.80611">
        <ele>394.3</ele>
        <time>2024-05-08T09:16:17Z</time>
      </trkpt>
      <trkpt lat="47.32278" lon="6.80612">
        <ele>394.6</ele>
        <time>2024-05-08T09:16:28Z</time>
      </trkpt>
      <trkpt lat="47.32285" lon="6.80614">
        <ele>395.1</ele>
        <time>2024-05-08T09:16:38Z</time>
      </trkpt>
      <trkpt lat="47.32297" lon="6.80616">
        <ele>396.3</ele>
        <time>2024-05-08T09:16:49Z</time>
      </trkpt>
      <trkpt lat="47.32304" lon="6.80616">
        <ele>397</ele>
        <time>2024-05-08T09:16:59Z</time>
      </trkpt>
      <trkpt lat="47.32305" lon="6.80616">
        <ele>397.1</ele>
        <time>2024-05-08T09:17:09Z</time>
      </trkpt>
      <trkpt lat="47.32319" lon="6.80611">
        <ele>398.1</ele>
        <time>2024-05-08T09:17:20Z</time>
      </trkpt>
      <trkpt lat="47.32339" lon="6.80602">
        <ele>398.1</ele>
        <time>2024-05-08T09:17:30Z</time>
      </trkpt>
      <trkpt lat="47.32372" lon="6.806">
        <ele>395</ele>
        <time>2024-05-08T09:17:41Z</time>
      </trkpt>
      <trkpt lat="47.32411" lon="6.80634">
        <ele>390.4</ele>
        <time>2024-05-08T09:17:52Z</time>
      </trkpt>
      <trkpt lat="47.32441" lon="6.80664">
        <ele>386.2</ele>
        <time>2024-05-08T09:18:02Z</time>
      </trkpt>
      <trkpt lat="47.32476" lon="6.807">
        <ele>382.4</ele>
        <time>2024-05-08T09:18:13Z</time>
      </trkpt>
      <trkpt lat="47.3251" lon="6.80768">
        <ele>379.6</ele>
        <time>2024-05-08T09:18:24Z</time>
      </trkpt>
      <trkpt lat="47.32526" lon="6.80828">
        <ele>376.8</ele>
        <time>2024-05-08T09:18:34Z</time>
      </trkpt>
      <trkpt lat="47.32521" lon="6.80895">
        <ele>373.9</ele>
        <time>2024-05-08T09:18:45Z</time>
      </trkpt>
      <trkpt lat="47.32499" lon="6.80946">
        <ele>372.8</ele>
        <time>2024-05-08T09:18:55Z</time>
      </trkpt>
      <trkpt lat="47.32467" lon="6.80995">
        <ele>372.7</ele>
        <time>2024-05-08T09:19:06Z</time>
      </trkpt>
      <trkpt lat="47.32423" lon="6.81023">
        <ele>374.4</ele>
        <time>2024-05-08T09:19:17Z</time>
      </trkpt>
      <trkpt lat="47.32381" lon="6.8105">
        <ele>375.6</ele>
        <time>2024-05-08T09:19:28Z</time>
      </trkpt>
      <trkpt lat="47.32344" lon="6.81087">
        <ele>375.7</ele>
        <time>2024-05-08T09:19:38Z</time>
      </trkpt>
      <trkpt lat="47.32294" lon="6.81118">
        <ele>375</ele>
        <time>2024-05-08T09:19:49Z</time>
      </trkpt>
      <trkpt lat="47.32245" lon="6.8112">
        <ele>375.4</ele>
        <time>2024-05-08T09:19:59Z</time>
      </trkpt>
      <trkpt lat="47.32198" lon="6.81108">
        <ele>375.9</ele>
        <time>2024-05-08T09:20:09Z</time>
      </trkpt>
      <trkpt lat="47.32145" lon="6.81092">
        <ele>375.8</ele>
        <time>2024-05-08T09:20:20Z</time>
      </trkpt>
      <trkpt lat="47.32091" lon="6.81076">
        <ele>375.4</ele>
        <time>2024-05-08T09:20:30Z</time>
      </trkpt>
      <trkpt lat="47.3204" lon="6.81065">
        <ele>376.3</ele>
        <time>2024-05-08T09:20:40Z</time>
      </trkpt>
      <trkpt lat="47.31991" lon="6.81063">
        <ele>378.4</ele>
        <time>2024-05-08T09:20:51Z</time>
      </trkpt>
      <trkpt lat="47.31956" lon="6.81067">
        <ele>379.8</ele>
        <time>2024-05-08T09:21:01Z</time>
      </trkpt>
      <trkpt lat="47.31919" lon="6.81073">
        <ele>379.8</ele>
        <time>2024-05-08T09:21:12Z</time>
      </trkpt>
      <trkpt lat="47.31867" lon="6.81074">
        <ele>377</ele>
        <time>2024-05-08T09:21:22Z</time>
      </trkpt>
      <trkpt lat="47.31795" lon="6.81063">
        <ele>376.4</ele>
        <time>2024-05-08T09:21:33Z</time>
      </trkpt>
      <trkpt lat="47.31753" lon="6.81052">
        <ele>378.4</ele>
        <time>2024-05-08T09:21:43Z</time>
      </trkpt>
      <trkpt lat="47.31722" lon="6.81061">
        <ele>379.8</ele>
        <time>2024-05-08T09:21:53Z</time>
      </trkpt>
      <trkpt lat="47.31717" lon="6.81112">
        <ele>380.9</ele>
        <time>2024-05-08T09:22:04Z</time>
      </trkpt>
      <trkpt lat="47.31717" lon="6.81154">
        <ele>382.3</ele>
        <time>2024-05-08T09:22:15Z</time>
      </trkpt>
      <trkpt lat="47.31758" lon="6.81172">
        <ele>382.1</ele>
        <time>2024-05-08T09:22:25Z</time>
      </trkpt>
      <trkpt lat="47.31793" lon="6.81215">
        <ele>381.7</ele>
        <time>2024-05-08T09:22:35Z</time>
      </trkpt>
      <trkpt lat="47.31809" lon="6.81271">
        <ele>382.3</ele>
        <time>2024-05-08T09:22:46Z</time>
      </trkpt>
      <trkpt lat="47.31786" lon="6.81316">
        <ele>384</ele>
        <time>2024-05-08T09:22:56Z</time>
      </trkpt>
      <trkpt lat="47.31782" lon="6.81361">
        <ele>385.3</ele>
        <time>2024-05-08T09:23:06Z</time>
      </trkpt>
      <trkpt lat="47.31781" lon="6.81406">
        <ele>387</ele>
        <time>2024-05-08T09:23:17Z</time>
      </trkpt>
      <trkpt lat="47.31783" lon="6.81448">
        <ele>388.4</ele>
        <time>2024-05-08T09:23:27Z</time>
      </trkpt>
      <trkpt lat="47.31789" lon="6.81503">
        <ele>389.2</ele>
        <time>2024-05-08T09:23:38Z</time>
      </trkpt>
      <trkpt lat="47.31796" lon="6.8156">
        <ele>388.9</ele>
        <time>2024-05-08T09:23:48Z</time>
      </trkpt>
      <trkpt lat="47.31799" lon="6.81633">
        <ele>388.1</ele>
        <time>2024-05-08T09:23:58Z</time>
      </trkpt>
      <trkpt lat="47.31805" lon="6.81707">
        <ele>388</ele>
        <time>2024-05-08T09:24:09Z</time>
      </trkpt>
      <trkpt lat="47.3181" lon="6.81784">
        <ele>388</ele>
        <time>2024-05-08T09:24:20Z</time>
      </trkpt>
      <trkpt lat="47.31824" lon="6.81853">
        <ele>388.8</ele>
        <time>2024-05-08T09:24:31Z</time>
      </trkpt>
      <trkpt lat="47.31845" lon="6.81898">
        <ele>389.7</ele>
        <time>2024-05-08T09:24:41Z</time>
      </trkpt>
      <trkpt lat="47.3187" lon="6.8194">
        <ele>391.1</ele>
        <time>2024-05-08T09:24:52Z</time>
      </trkpt>
      <trkpt lat="47.31898" lon="6.81984">
        <ele>393</ele>
        <time>2024-05-08T09:25:03Z</time>
      </trkpt>
      <trkpt lat="47.31921" lon="6.82022">
        <ele>394.7</ele>
        <time>2024-05-08T09:25:13Z</time>
      </trkpt>
      <trkpt lat="47.31945" lon="6.82066">
        <ele>396.4</ele>
        <time>2024-05-08T09:25:24Z</time>
      </trkpt>
      <trkpt lat="47.31972" lon="6.82114">
        <ele>397.7</ele>
        <time>2024-05-08T09:25:34Z</time>
      </trkpt>
      <trkpt lat="47.31997" lon="6.82164">
        <ele>398.2</ele>
        <time>2024-05-08T09:25:44Z</time>
      </trkpt>
      <trkpt lat="47.32027" lon="6.82222">
        <ele>398.9</ele>
        <time>2024-05-08T09:25:55Z</time>
      </trkpt>
      <trkpt lat="47.32048" lon="6.82271">
        <ele>400.1</ele>
        <time>2024-05-08T09:26:05Z</time>
      </trkpt>
      <trkpt lat="47.32062" lon="6.82326">
        <ele>402</ele>
        <time>2024-05-08T09:26:16Z</time>
      </trkpt>
      <trkpt lat="47.32071" lon="6.82371">
        <ele>404</ele>
        <time>2024-05-08T09:26:26Z</time>
      </trkpt>
      <trkpt lat="47.3208" lon="6.82421">
        <ele>406.2</ele>
        <time>2024-05-08T09:26:37Z</time>
      </trkpt>
      <trkpt lat="47.32091" lon="6.82466">
        <ele>408.1</ele>
        <time>2024-05-08T09:26:47Z</time>
      </trkpt>
      <trkpt lat="47.32105" lon="6.82509">
        <ele>409.7</ele>
        <time>2024-05-08T09:26:57Z</time>
      </trkpt>
      <trkpt lat="47.32121" lon="6.82559">
        <ele>411</ele>
        <time>2024-05-08T09:27:08Z</time>
      </trkpt>
      <trkpt lat="47.32137" lon="6.82604">
        <ele>412</ele>
        <time>2024-05-08T09:27:18Z</time>
      </trkpt>
      <trkpt lat="47.32156" lon="6.82652">
        <ele>413.3</ele>
        <time>2024-05-08T09:27:29Z</time>
      </trkpt>
      <trkpt lat="47.32171" lon="6.82693">
        <ele>414.7</ele>
        <time>2024-05-08T09:27:39Z</time>
      </trkpt>
      <trkpt lat="47.3219" lon="6.8274">
        <ele>416.9</ele>
        <time>2024-05-08T09:27:50Z</time>
      </trkpt>
      <trkpt lat="47.32206" lon="6.82782">
        <ele>419.2</ele>
        <time>2024-05-08T09:28:01Z</time>
      </trkpt>
      <trkpt lat="47.32223" lon="6.8282">
        <ele>421.4</ele>
        <time>2024-05-08T09:28:12Z</time>
      </trkpt>
      <trkpt lat="47.32242" lon="6.82862">
        <ele>423.3</ele>
        <time>2024-05-08T09:28:23Z</time>
      </trkpt>
      <trkpt lat="47.32263" lon="6.82907">
        <ele>424.4</ele>
        <time>2024-05-08T09:28:33Z</time>
      </trkpt>
      <trkpt lat="47.3229" lon="6.82965">
        <ele>424.6</ele>
        <time>2024-05-08T09:28:44Z</time>
      </trkpt>
      <trkpt lat="47.32309" lon="6.83024">
        <ele>425.3</ele>
        <time>2024-05-08T09:28:55Z</time>
      </trkpt>
      <trkpt lat="47.32326" lon="6.83057">
        <ele>427.3</ele>
        <time>2024-05-08T09:29:05Z</time>
      </trkpt>
      <trkpt lat="47.32338" lon="6.8309">
        <ele>429.5</ele>
        <time>2024-05-08T09:29:16Z</time>
      </trkpt>
      <trkpt lat="47.32337" lon="6.83119">
        <ele>431.1</ele>
        <time>2024-05-08T09:29:26Z</time>
      </trkpt>
      <trkpt lat="47.32338" lon="6.83144">
        <ele>432.4</ele>
        <time>2024-05-08T09:29:36Z</time>
      </trkpt>
      <trkpt lat="47.3234" lon="6.83184">
        <ele>434.3</ele>
        <time>2024-05-08T09:29:47Z</time>
      </trkpt>
      <trkpt lat="47.32343" lon="6.83225">
        <ele>436.4</ele>
        <time>2024-05-08T09:29:57Z</time>
      </trkpt>
      <trkpt lat="47.3235" lon="6.83254">
        <ele>437.9</ele>
        <time>2024-05-08T09:30:07Z</time>
      </trkpt>
      <trkpt lat="47.32372" lon="6.83283">
        <ele>440.3</ele>
        <time>2024-05-08T09:30:17Z</time>
      </trkpt>
      <trkpt lat="47.32391" lon="6.83313">
        <ele>442.2</ele>
        <time>2024-05-08T09:30:28Z</time>
      </trkpt>
      <trkpt lat="47.32411" lon="6.83338">
        <ele>443.9</ele>
        <time>2024-05-08T09:30:38Z</time>
      </trkpt>
      <trkpt lat="47.32428" lon="6.83364">
        <ele>445.9</ele>
        <time>2024-05-08T09:30:49Z</time>
      </trkpt>
      <trkpt lat="47.32429" lon="6.83401">
        <ele>447.7</ele>
        <time>2024-05-08T09:30:59Z</time>
      </trkpt>
      <trkpt lat="47.32423" lon="6.83438">
        <ele>449.3</ele>
        <time>2024-05-08T09:31:09Z</time>
      </trkpt>
      <trkpt lat="47.32412" lon="6.83476">
        <ele>451.2</ele>
        <time>2024-05-08T09:31:20Z</time>
      </trkpt>
      <trkpt lat="47.32393" lon="6.83502">
        <ele>452.5</ele>
        <time>2024-05-08T09:31:30Z</time>
      </trkpt>
      <trkpt lat="47.32366" lon="6.83518">
        <ele>453.9</ele>
        <time>2024-05-08T09:31:41Z</time>
      </trkpt>
      <trkpt lat="47.32337" lon="6.83529">
        <ele>455.4</ele>
        <time>2024-05-08T09:31:52Z</time>
      </trkpt>
      <trkpt lat="47.32315" lon="6.8355">
        <ele>456.6</ele>
        <time>2024-05-08T09:32:02Z</time>
      </trkpt>
      <trkpt lat="47.32312" lon="6.83556">
        <ele>456.8</ele>
        <time>2024-05-08T09:32:12Z</time>
      </trkpt>
      <trkpt lat="47.32312" lon="6.83559">
        <ele>456.9</ele>
        <time>2024-05-08T09:32:23Z</time>
      </trkpt>
      <trkpt lat="47.32312" lon="6.83559">
        <ele>456.9</ele>
        <time>2024-05-08T09:32:34Z</time>
      </trkpt>
      <trkpt lat="47.32311" lon="6.83558">
        <ele>457</ele>
        <time>2024-05-08T09:32:45Z</time>
      </trkpt>
      <trkpt lat="47.32311" lon="6.83557">
        <ele>457</ele>
        <time>2024-05-08T09:32:56Z</time>
      </trkpt>
      <trkpt lat="47.32311" lon="6.83557">
        <ele>457</ele>
        <time>2024-05-08T09:33:07Z</time>
      </trkpt>
      <trkpt lat="47.32311" lon="6.83557">
        <ele>457</ele>
        <time>2024-05-08T09:33:17Z</time>
      </trkpt>
      <trkpt lat="47.32311" lon="6.83557">
        <ele>457</ele>
        <time>2024-05-08T09:33:28Z</time>
      </trkpt>
      <trkpt lat="47.32311" lon="6.83557">
        <ele>457</ele>
        <time>2024-05-08T09:33:38Z</time>
      </trkpt>
      <trkpt lat="47.32311" lon="6.83557">
        <ele>457</ele>
        <time>2024-05-08T09:33:49Z</time>
      </trkpt>
      <trkpt lat="47.32311" lon="6.83557">
        <ele>457</ele>
        <time>2024-05-08T09:33:59Z</time>
      </trkpt>
      <trkpt lat="47.32311" lon="6.83557">
        <ele>457</ele>
        <time>2024-05-08T09:34:10Z</time>
      </trkpt>
      <trkpt lat="47.32311" lon="6.83557">
        <ele>457</ele>
        <time>2024-05-08T09:34:20Z</time>
      </trkpt>
      <trkpt lat="47.32311" lon="6.83557">
        <ele>457</ele>
        <time>2024-05-08T09:34:31Z</time>
      </trkpt>
      <trkpt lat="47.32311" lon="6.83557">
        <ele>457</ele>
        <time>2024-05-08T09:34:41Z</time>
      </trkpt>
      <trkpt lat="47.32311" lon="6.83557">
        <ele>457</ele>
        <time>2024-05-08T09:34:51Z</time>
      </trkpt>
      <trkpt lat="47.32311" lon="6.83557">
        <ele>457</ele>
        <time>2024-05-08T09:35:02Z</time>
      </trkpt>
      <trkpt lat="47.32311" lon="6.83557">
        <ele>457</ele>
        <time>2024-05-08T09:35:12Z</time>
      </trkpt>
      <trkpt lat="47.32311" lon="6.83557">
        <ele>457</ele>
        <time>2024-05-08T09:35:23Z</time>
      </trkpt>
      <trkpt lat="47.32311" lon="6.83557">
        <ele>457</ele>
        <time>2024-05-08T09:35:33Z</time>
      </trkpt>
      <trkpt lat="47.32311" lon="6.83557">
        <ele>457</ele>
        <time>2024-05-08T09:35:44Z</time>
      </trkpt>
      <trkpt lat="47.32311" lon="6.83557">
        <ele>457</ele>
        <time>2024-05-08T09:35:54Z</time>
      </trkpt>
      <trkpt lat="47.32312" lon="6.83558">
        <ele>457.1</ele>
        <time>2024-05-08T09:36:05Z</time>
      </trkpt>
      <trkpt lat="47.32312" lon="6.83558">
        <ele>457.1</ele>
        <time>2024-05-08T09:36:16Z</time>
      </trkpt>
      <trkpt lat="47.32311" lon="6.83558">
        <ele>457.1</ele>
        <time>2024-05-08T09:36:26Z</time>
      </trkpt>
      <trkpt lat="47.32311" lon="6.83558">
        <ele>457.1</ele>
        <time>2024-05-08T09:36:36Z</time>
      </trkpt>
      <trkpt lat="47.32311" lon="6.83558">
        <ele>457.1</ele>
        <time>2024-05-08T09:36:47Z</time>
      </trkpt>
      <trkpt lat="47.32311" lon="6.83558">
        <ele>457.1</ele>
        <time>2024-05-08T09:36:57Z</time>
      </trkpt>
      <trkpt lat="47.32311" lon="6.83558">
        <ele>457.1</ele>
        <time>2024-05-08T09:37:08Z</time>
      </trkpt>
      <trkpt lat="47.32311" lon="6.83558">
        <ele>457.1</ele>
        <time>2024-05-08T09:37:19Z</time>
      </trkpt>
      <trkpt lat="47.32311" lon="6.83558">
        <ele>457.1</ele>
        <time>2024-05-08T09:37:29Z</time>
      </trkpt>
      <trkpt lat="47.32309" lon="6.83557">
        <ele>457.2</ele>
        <time>2024-05-08T09:37:40Z</time>
      </trkpt>
      <trkpt lat="47.32309" lon="6.83557">
        <ele>457.2</ele>
        <time>2024-05-08T09:37:51Z</time>
      </trkpt>
      <trkpt lat="47.32309" lon="6.83557">
        <ele>457.2</ele>
        <time>2024-05-08T09:38:01Z</time>
      </trkpt>
      <trkpt lat="47.32309" lon="6.83557">
        <ele>457.2</ele>
        <time>2024-05-08T09:38:11Z</time>
      </trkpt>
      <trkpt lat="47.32309" lon="6.83557">
        <ele>457.2</ele>
        <time>2024-05-08T09:38:21Z</time>
      </trkpt>
      <trkpt lat="47.32309" lon="6.83558">
        <ele>457.2</ele>
        <time>2024-05-08T09:38:32Z</time>
      </trkpt>
      <trkpt lat="47.32309" lon="6.83558">
        <ele>457.2</ele>
        <time>2024-05-08T09:38:42Z</time>
      </trkpt>
      <trkpt lat="47.32297" lon="6.83573">
        <ele>457.9</ele>
        <time>2024-05-08T09:38:53Z</time>
      </trkpt>
      <trkpt lat="47.32275" lon="6.83605">
        <ele>459.1</ele>
        <time>2024-05-08T09:39:04Z</time>
      </trkpt>
      <trkpt lat="47.32264" lon="6.83643">
        <ele>460.1</ele>
        <time>2024-05-08T09:39:14Z</time>
      </trkpt>
      <trkpt lat="47.32262" lon="6.83691">
        <ele>461.6</ele>
        <time>2024-05-08T09:39:25Z</time>
      </trkpt>
      <trkpt lat="47.32267" lon="6.83737">
        <ele>463.1</ele>
        <time>2024-05-08T09:39:36Z</time>
      </trkpt>
      <trkpt lat="47.32272" lon="6.83774">
        <ele>464.6</ele>
        <time>2024-05-08T09:39:46Z</time>
      </trkpt>
      <trkpt lat="47.32278" lon="6.83818">
        <ele>466.6</ele>
        <time>2024-05-08T09:39:56Z</time>
      </trkpt>
      <trkpt lat="47.32282" lon="6.8386">
        <ele>468.5</ele>
        <time>2024-05-08T09:40:06Z</time>
      </trkpt>
      <trkpt lat="47.32275" lon="6.83901">
        <ele>470.2</ele>
        <time>2024-05-08T09:40:16Z</time>
      </trkpt>
      <trkpt lat="47.3226" lon="6.8393">
        <ele>471.9</ele>
        <time>2024-05-08T09:40:26Z</time>
      </trkpt>
      <trkpt lat="47.32251" lon="6.83952">
        <ele>473.2</ele>
        <time>2024-05-08T09:40:36Z</time>
      </trkpt>
      <trkpt lat="47.3223" lon="6.83959">
        <ele>474.9</ele>
        <time>2024-05-08T09:40:47Z</time>
      </trkpt>
      <trkpt lat="47.32209" lon="6.83937">
        <ele>477</ele>
        <time>2024-05-08T09:40:57Z</time>
      </trkpt>
      <trkpt lat="47.32201" lon="6.83908">
        <ele>478.6</ele>
        <time>2024-05-08T09:41:07Z</time>
      </trkpt>
      <trkpt lat="47.32195" lon="6.83877">
        <ele>480.2</ele>
        <time>2024-05-08T09:41:18Z</time>
      </trkpt>
      <trkpt lat="47.32194" lon="6.83851">
        <ele>481.4</ele>
        <time>2024-05-08T09:41:29Z</time>
      </trkpt>
      <trkpt lat="47.32195" lon="6.83821">
        <ele>482.9</ele>
        <time>2024-05-08T09:41:40Z</time>
      </trkpt>
      <trkpt lat="47.32198" lon="6.83795">
        <ele>484.3</ele>
        <time>2024-05-08T09:41:51Z</time>
      </trkpt>
      <trkpt lat="47.32204" lon="6.83771">
        <ele>485.7</ele>
        <time>2024-05-08T09:42:01Z</time>
      </trkpt>
      <trkpt lat="47.32215" lon="6.83745">
        <ele>487.3</ele>
        <time>2024-05-08T09:42:11Z</time>
      </trkpt>
      <trkpt lat="47.32218" lon="6.83716">
        <ele>488.9</ele>
        <time>2024-05-08T09:42:21Z</time>
      </trkpt>
      <trkpt lat="47.32218" lon="6.8368">
        <ele>490.8</ele>
        <time>2024-05-08T09:42:32Z</time>
      </trkpt>
      <trkpt lat="47.32208" lon="6.83648">
        <ele>492.6</ele>
        <time>2024-05-08T09:42:43Z</time>
      </trkpt>
      <trkpt lat="47.32194" lon="6.83618">
        <ele>494.4</ele>
        <time>2024-05-08T09:42:53Z</time>
      </trkpt>
      <trkpt lat="47.3218" lon="6.83586">
        <ele>496.3</ele>
        <time>2024-05-08T09:43:03Z</time>
      </trkpt>
      <trkpt lat="47.32167" lon="6.83554">
        <ele>498</ele>
        <time>2024-05-08T09:43:14Z</time>
      </trkpt>
      <trkpt lat="47.3215" lon="6.83526">
        <ele>500</ele>
        <time>2024-05-08T09:43:25Z</time>
      </trkpt>
      <trkpt lat="47.32136" lon="6.835">
        <ele>501.8</ele>
        <time>2024-05-08T09:43:36Z</time>
      </trkpt>
      <trkpt lat="47.32127" lon="6.83484">
        <ele>503</ele>
        <time>2024-05-08T09:43:46Z</time>
      </trkpt>
      <trkpt lat="47.32118" lon="6.83465">
        <ele>504.2</ele>
        <time>2024-05-08T09:43:56Z</time>
      </trkpt>
      <trkpt lat="47.32113" lon="6.83437">
        <ele>505.7</ele>
        <time>2024-05-08T09:44:07Z</time>
      </trkpt>
      <trkpt lat="47.32108" lon="6.83407">
        <ele>507.3</ele>
        <time>2024-05-08T09:44:17Z</time>
      </trkpt>
      <trkpt lat="47.32102" lon="6.8338">
        <ele>508.7</ele>
        <time>2024-05-08T09:44:28Z</time>
      </trkpt>
      <trkpt lat="47.32096" lon="6.83355">
        <ele>510</ele>
        <time>2024-05-08T09:44:38Z</time>
      </trkpt>
      <trkpt lat="47.32085" lon="6.8333">
        <ele>511.4</ele>
        <time>2024-05-08T09:44:49Z</time>
      </trkpt>
      <trkpt lat="47.32076" lon="6.83303">
        <ele>512.8</ele>
        <time>2024-05-08T09:44:59Z</time>
      </trkpt>
      <trkpt lat="47.32069" lon="6.83277">
        <ele>514.1</ele>
        <time>2024-05-08T09:45:09Z</time>
      </trkpt>
      <trkpt lat="47.32064" lon="6.8325">
        <ele>515.5</ele>
        <time>2024-05-08T09:45:19Z</time>
      </trkpt>
      <trkpt lat="47.32054" lon="6.8322">
        <ele>517.2</ele>
        <time>2024-05-08T09:45:30Z</time>
      </trkpt>
      <trkpt lat="47.32045" lon="6.83191">
        <ele>519</ele>
        <time>2024-05-08T09:45:41Z</time>
      </trkpt>
      <trkpt lat="47.32039" lon="6.83163">
        <ele>520.6</ele>
        <time>2024-05-08T09:45:52Z</time>
      </trkpt>
      <trkpt lat="47.32035" lon="6.83138">
        <ele>521.9</ele>
        <time>2024-05-08T09:46:02Z</time>
      </trkpt>
      <trkpt lat="47.32029" lon="6.83106">
        <ele>523.5</ele>
        <time>2024-05-08T09:46:13Z</time>
      </trkpt>
      <trkpt lat="47.32022" lon="6.83077">
        <ele>525.1</ele>
        <time>2024-05-08T09:46:24Z</time>
      </trkpt>
      <trkpt lat="47.3201" lon="6.83045">
        <ele>526.9</ele>
        <time>2024-05-08T09:46:35Z</time>
      </trkpt>
      <trkpt lat="47.32002" lon="6.8302">
        <ele>528.2</ele>
        <time>2024-05-08T09:46:45Z</time>
      </trkpt>
      <trkpt lat="47.31995" lon="6.82993">
        <ele>529.7</ele>
        <time>2024-05-08T09:46:56Z</time>
      </trkpt>
      <trkpt lat="47.3199" lon="6.82965">
        <ele>531.1</ele>
        <time>2024-05-08T09:47:06Z</time>
      </trkpt>
      <trkpt lat="47.31984" lon="6.82936">
        <ele>532.5</ele>
        <time>2024-05-08T09:47:17Z</time>
      </trkpt>
      <trkpt lat="47.31979" lon="6.82909">
        <ele>533.8</ele>
        <time>2024-05-08T09:47:27Z</time>
      </trkpt>
      <trkpt lat="47.31971" lon="6.8288">
        <ele>535.4</ele>
        <time>2024-05-08T09:47:38Z</time>
      </trkpt>
      <trkpt lat="47.31963" lon="6.82853">
        <ele>537</ele>
        <time>2024-05-08T09:47:48Z</time>
      </trkpt>
      <trkpt lat="47.31955" lon="6.8283">
        <ele>538.3</ele>
        <time>2024-05-08T09:47:59Z</time>
      </trkpt>
      <trkpt lat="47.31945" lon="6.82808">
        <ele>539.7</ele>
        <time>2024-05-08T09:48:09Z</time>
      </trkpt>
      <trkpt lat="47.31938" lon="6.82785">
        <ele>541</ele>
        <time>2024-05-08T09:48:19Z</time>
      </trkpt>
      <trkpt lat="47.31929" lon="6.82761">
        <ele>542.5</ele>
        <time>2024-05-08T09:48:30Z</time>
      </trkpt>
      <trkpt lat="47.31921" lon="6.82738">
        <ele>543.8</ele>
        <time>2024-05-08T09:48:40Z</time>
      </trkpt>
      <trkpt lat="47.31903" lon="6.82717">
        <ele>545.5</ele>
        <time>2024-05-08T09:48:51Z</time>
      </trkpt>
      <trkpt lat="47.31886" lon="6.82696">
        <ele>547.2</ele>
        <time>2024-05-08T09:49:02Z</time>
      </trkpt>
      <trkpt lat="47.31872" lon="6.82679">
        <ele>548.6</ele>
        <time>2024-05-08T09:49:12Z</time>
      </trkpt>
      <trkpt lat="47.31863" lon="6.82659">
        <ele>549.9</ele>
        <time>2024-05-08T09:49:23Z</time>
      </trkpt>
      <trkpt lat="47.31854" lon="6.82635">
        <ele>551.4</ele>
        <time>2024-05-08T09:49:33Z</time>
      </trkpt>
      <trkpt lat="47.31839" lon="6.8261">
        <ele>553.2</ele>
        <time>2024-05-08T09:49:44Z</time>
      </trkpt>
      <trkpt lat="47.31821" lon="6.82589">
        <ele>555.1</ele>
        <time>2024-05-08T09:49:55Z</time>
      </trkpt>
      <trkpt lat="47.31806" lon="6.82574">
        <ele>556.6</ele>
        <time>2024-05-08T09:50:05Z</time>
      </trkpt>
      <trkpt lat="47.31792" lon="6.82559">
        <ele>558.1</ele>
        <time>2024-05-08T09:50:15Z</time>
      </trkpt>
      <trkpt lat="47.31778" lon="6.82544">
        <ele>559.6</ele>
        <time>2024-05-08T09:50:26Z</time>
      </trkpt>
      <trkpt lat="47.31767" lon="6.82525">
        <ele>561</ele>
        <time>2024-05-08T09:50:37Z</time>
      </trkpt>
      <trkpt lat="47.31757" lon="6.825">
        <ele>562.7</ele>
        <time>2024-05-08T09:50:48Z</time>
      </trkpt>
      <trkpt lat="47.31752" lon="6.8247">
        <ele>564.4</ele>
        <time>2024-05-08T09:50:59Z</time>
      </trkpt>
      <trkpt lat="47.3175" lon="6.8244">
        <ele>565.9</ele>
        <time>2024-05-08T09:51:09Z</time>
      </trkpt>
      <trkpt lat="47.31749" lon="6.8241">
        <ele>567.5</ele>
        <time>2024-05-08T09:51:20Z</time>
      </trkpt>
      <trkpt lat="47.31741" lon="6.8238">
        <ele>569.2</ele>
        <time>2024-05-08T09:51:31Z</time>
      </trkpt>
      <trkpt lat="47.31731" lon="6.82356">
        <ele>570.8</ele>
        <time>2024-05-08T09:51:41Z</time>
      </trkpt>
      <trkpt lat="47.31714" lon="6.82338">
        <ele>572.6</ele>
        <time>2024-05-08T09:51:51Z</time>
      </trkpt>
      <trkpt lat="47.31695" lon="6.82335">
        <ele>573.9</ele>
        <time>2024-05-08T09:52:01Z</time>
      </trkpt>
      <trkpt lat="47.31678" lon="6.82348">
        <ele>575.2</ele>
        <time>2024-05-08T09:52:12Z</time>
      </trkpt>
      <trkpt lat="47.31669" lon="6.82375">
        <ele>576.9</ele>
        <time>2024-05-08T09:52:23Z</time>
      </trkpt>
      <trkpt lat="47.31668" lon="6.82379">
        <ele>577.1</ele>
        <time>2024-05-08T09:52:33Z</time>
      </trkpt>
      <trkpt lat="47.31673" lon="6.82354">
        <ele>576.7</ele>
        <time>2024-05-08T09:52:44Z</time>
      </trkpt>
      <trkpt lat="47.31704" lon="6.82332">
        <ele>573.8</ele>
        <time>2024-05-08T09:52:55Z</time>
      </trkpt>
      <trkpt lat="47.31718" lon="6.82322">
        <ele>573.2</ele>
        <time>2024-05-08T09:53:06Z</time>
      </trkpt>
      <trkpt lat="47.31722" lon="6.82316">
        <ele>573.4</ele>
        <time>2024-05-08T09:53:17Z</time>
      </trkpt>
      <trkpt lat="47.31722" lon="6.82313">
        <ele>573.5</ele>
        <time>2024-05-08T09:53:28Z</time>
      </trkpt>
      <trkpt lat="47.31722" lon="6.82307">
        <ele>573.6</ele>
        <time>2024-05-08T09:53:38Z</time>
      </trkpt>
      <trkpt lat="47.31722" lon="6.82307">
        <ele>573.6</ele>
        <time>2024-05-08T09:53:49Z</time>
      </trkpt>
      <trkpt lat="47.31722" lon="6.82307">
        <ele>573.6</ele>
        <time>2024-05-08T09:54:00Z</time>
      </trkpt>
      <trkpt lat="47.3172" lon="6.82304">
        <ele>573.7</ele>
        <time>2024-05-08T09:54:10Z</time>
      </trkpt>
      <trkpt lat="47.31721" lon="6.82305">
        <ele>573.8</ele>
        <time>2024-05-08T09:54:21Z</time>
      </trkpt>
      <trkpt lat="47.31721" lon="6.82304">
        <ele>573.8</ele>
        <time>2024-05-08T09:54:32Z</time>
      </trkpt>
      <trkpt lat="47.31722" lon="6.82301">
        <ele>573.9</ele>
        <time>2024-05-08T09:54:44Z</time>
      </trkpt>
      <trkpt lat="47.31719" lon="6.82304">
        <ele>574</ele>
        <time>2024-05-08T09:54:54Z</time>
      </trkpt>
      <trkpt lat="47.31719" lon="6.82304">
        <ele>574</ele>
        <time>2024-05-08T09:55:05Z</time>
      </trkpt>
      <trkpt lat="47.31719" lon="6.82304">
        <ele>574</ele>
        <time>2024-05-08T09:55:16Z</time>
      </trkpt>
      <trkpt lat="47.31719" lon="6.82304">
        <ele>574</ele>
        <time>2024-05-08T09:55:27Z</time>
      </trkpt>
      <trkpt lat="47.31719" lon="6.82304">
        <ele>574</ele>
        <time>2024-05-08T09:55:38Z</time>
      </trkpt>
      <trkpt lat="47.31719" lon="6.82304">
        <ele>574</ele>
        <time>2024-05-08T09:55:48Z</time>
      </trkpt>
      <trkpt lat="47.31719" lon="6.82304">
        <ele>574</ele>
        <time>2024-05-08T09:55:59Z</time>
      </trkpt>
      <trkpt lat="47.31719" lon="6.82304">
        <ele>574</ele>
        <time>2024-05-08T09:56:10Z</time>
      </trkpt>
      <trkpt lat="47.31719" lon="6.82304">
        <ele>574</ele>
        <time>2024-05-08T09:56:20Z</time>
      </trkpt>
      <trkpt lat="47.31719" lon="6.82304">
        <ele>574</ele>
        <time>2024-05-08T09:56:31Z</time>
      </trkpt>
      <trkpt lat="47.31719" lon="6.82304">
        <ele>574</ele>
        <time>2024-05-08T09:56:41Z</time>
      </trkpt>
      <trkpt lat="47.31719" lon="6.82305">
        <ele>574</ele>
        <time>2024-05-08T09:56:51Z</time>
      </trkpt>
      <trkpt lat="47.31719" lon="6.82305">
        <ele>574</ele>
        <time>2024-05-08T09:57:01Z</time>
      </trkpt>
      <trkpt lat="47.31719" lon="6.82305">
        <ele>574</ele>
        <time>2024-05-08T09:57:12Z</time>
      </trkpt>
      <trkpt lat="47.31721" lon="6.82312">
        <ele>574.2</ele>
        <time>2024-05-08T09:57:22Z</time>
      </trkpt>
      <trkpt lat="47.31718" lon="6.82319">
        <ele>574.4</ele>
        <time>2024-05-08T09:57:33Z</time>
      </trkpt>
      <trkpt lat="47.31716" lon="6.82323">
        <ele>574.6</ele>
        <time>2024-05-08T09:57:44Z</time>
      </trkpt>
      <trkpt lat="47.317" lon="6.82331">
        <ele>575.3</ele>
        <time>2024-05-08T09:57:55Z</time>
      </trkpt>
      <trkpt lat="47.31685" lon="6.82336">
        <ele>575.9</ele>
        <time>2024-05-08T09:58:05Z</time>
      </trkpt>
      <trkpt lat="47.31674" lon="6.82354">
        <ele>576.7</ele>
        <time>2024-05-08T09:58:16Z</time>
      </trkpt>
      <trkpt lat="47.3167" lon="6.82382">
        <ele>578.6</ele>
        <time>2024-05-08T09:58:27Z</time>
      </trkpt>
      <trkpt lat="47.31679" lon="6.82404">
        <ele>580.3</ele>
        <time>2024-05-08T09:58:37Z</time>
      </trkpt>
      <trkpt lat="47.31688" lon="6.82417">
        <ele>581.3</ele>
        <time>2024-05-08T09:58:48Z</time>
      </trkpt>
      <trkpt lat="47.31702" lon="6.82438">
        <ele>582.7</ele>
        <time>2024-05-08T09:58:59Z</time>
      </trkpt>
      <trkpt lat="47.31705" lon="6.82463">
        <ele>583.7</ele>
        <time>2024-05-08T09:59:09Z</time>
      </trkpt>
      <trkpt lat="47.31704" lon="6.82488">
        <ele>584.4</ele>
        <time>2024-05-08T09:59:19Z</time>
      </trkpt>
      <trkpt lat="47.31706" lon="6.82518">
        <ele>585.4</ele>
        <time>2024-05-08T09:59:29Z</time>
      </trkpt>
      <trkpt lat="47.31708" lon="6.82552">
        <ele>586.8</ele>
        <time>2024-05-08T09:59:40Z</time>
      </trkpt>
      <trkpt lat="47.31718" lon="6.82576">
        <ele>588.2</ele>
        <time>2024-05-08T09:59:50Z</time>
      </trkpt>
      <trkpt lat="47.31733" lon="6.826">
        <ele>589.7</ele>
        <time>2024-05-08T10:00:01Z</time>
      </trkpt>
      <trkpt lat="47.3175" lon="6.82624">
        <ele>591.3</ele>
        <time>2024-05-08T10:00:11Z</time>
      </trkpt>
      <trkpt lat="47.31765" lon="6.82652">
        <ele>593</ele>
        <time>2024-05-08T10:00:22Z</time>
      </trkpt>
      <trkpt lat="47.31774" lon="6.82682">
        <ele>594.4</ele>
        <time>2024-05-08T10:00:33Z</time>
      </trkpt>
      <trkpt lat="47.3178" lon="6.82709">
        <ele>595.7</ele>
        <time>2024-05-08T10:00:43Z</time>
      </trkpt>
      <trkpt lat="47.31786" lon="6.82738">
        <ele>597</ele>
        <time>2024-05-08T10:00:54Z</time>
      </trkpt>
      <trkpt lat="47.31796" lon="6.82766">
        <ele>598.5</ele>
        <time>2024-05-08T10:01:05Z</time>
      </trkpt>
      <trkpt lat="47.31806" lon="6.82796">
        <ele>599.9</ele>
        <time>2024-05-08T10:01:16Z</time>
      </trkpt>
      <trkpt lat="47.31816" lon="6.82823">
        <ele>601.3</ele>
        <time>2024-05-08T10:01:26Z</time>
      </trkpt>
      <trkpt lat="47.31827" lon="6.82848">
        <ele>602.7</ele>
        <time>2024-05-08T10:01:37Z</time>
      </trkpt>
      <trkpt lat="47.31826" lon="6.82874">
        <ele>603.8</ele>
        <time>2024-05-08T10:01:47Z</time>
      </trkpt>
      <trkpt lat="47.31832" lon="6.82903">
        <ele>605.1</ele>
        <time>2024-05-08T10:01:57Z</time>
      </trkpt>
      <trkpt lat="47.31837" lon="6.82932">
        <ele>606.6</ele>
        <time>2024-05-08T10:02:08Z</time>
      </trkpt>
      <trkpt lat="47.31841" lon="6.82964">
        <ele>608.1</ele>
        <time>2024-05-08T10:02:19Z</time>
      </trkpt>
      <trkpt lat="47.31842" lon="6.82993">
        <ele>609.4</ele>
        <time>2024-05-08T10:02:30Z</time>
      </trkpt>
      <trkpt lat="47.3184" lon="6.8302">
        <ele>610.5</ele>
        <time>2024-05-08T10:02:40Z</time>
      </trkpt>
      <trkpt lat="47.31844" lon="6.83049">
        <ele>611.8</ele>
        <time>2024-05-08T10:02:50Z</time>
      </trkpt>
      <trkpt lat="47.31853" lon="6.83075">
        <ele>613.1</ele>
        <time>2024-05-08T10:03:00Z</time>
      </trkpt>
      <trkpt lat="47.31859" lon="6.83106">
        <ele>614.5</ele>
        <time>2024-05-08T10:03:11Z</time>
      </trkpt>
      <trkpt lat="47.31865" lon="6.83132">
        <ele>615.7</ele>
        <time>2024-05-08T10:03:21Z</time>
      </trkpt>
      <trkpt lat="47.3187" lon="6.83161">
        <ele>617.1</ele>
        <time>2024-05-08T10:03:32Z</time>
      </trkpt>
      <trkpt lat="47.31873" lon="6.83188">
        <ele>618.3</ele>
        <time>2024-05-08T10:03:42Z</time>
      </trkpt>
      <trkpt lat="47.31874" lon="6.83221">
        <ele>619.7</ele>
        <time>2024-05-08T10:03:53Z</time>
      </trkpt>
      <trkpt lat="47.31876" lon="6.83252">
        <ele>621.1</ele>
        <time>2024-05-08T10:04:04Z</time>
      </trkpt>
      <trkpt lat="47.3188" lon="6.83282">
        <ele>622.6</ele>
        <time>2024-05-08T10:04:15Z</time>
      </trkpt>
      <trkpt lat="47.31882" lon="6.83309">
        <ele>623.8</ele>
        <time>2024-05-08T10:04:25Z</time>
      </trkpt>
      <trkpt lat="47.31884" lon="6.8334">
        <ele>625.2</ele>
        <time>2024-05-08T10:04:36Z</time>
      </trkpt>
      <trkpt lat="47.31887" lon="6.83367">
        <ele>626.4</ele>
        <time>2024-05-08T10:04:46Z</time>
      </trkpt>
      <trkpt lat="47.31891" lon="6.83397">
        <ele>627.8</ele>
        <time>2024-05-08T10:04:57Z</time>
      </trkpt>
      <trkpt lat="47.31894" lon="6.83427">
        <ele>629.1</ele>
        <time>2024-05-08T10:05:08Z</time>
      </trkpt>
      <trkpt lat="47.31896" lon="6.83458">
        <ele>630.5</ele>
        <time>2024-05-08T10:05:19Z</time>
      </trkpt>
      <trkpt lat="47.31898" lon="6.8349">
        <ele>632</ele>
        <time>2024-05-08T10:05:30Z</time>
      </trkpt>
      <trkpt lat="47.31902" lon="6.83517">
        <ele>633.3</ele>
        <time>2024-05-08T10:05:40Z</time>
      </trkpt>
      <trkpt lat="47.31905" lon="6.83547">
        <ele>634.8</ele>
        <time>2024-05-08T10:05:51Z</time>
      </trkpt>
      <trkpt lat="47.31906" lon="6.83577">
        <ele>636.1</ele>
        <time>2024-05-08T10:06:02Z</time>
      </trkpt>
      <trkpt lat="47.31909" lon="6.83603">
        <ele>637.2</ele>
        <time>2024-05-08T10:06:12Z</time>
      </trkpt>
      <trkpt lat="47.31915" lon="6.8363">
        <ele>638.5</ele>
        <time>2024-05-08T10:06:22Z</time>
      </trkpt>
      <trkpt lat="47.31921" lon="6.83656">
        <ele>639.8</ele>
        <time>2024-05-08T10:06:32Z</time>
      </trkpt>
      <trkpt lat="47.31927" lon="6.83685">
        <ele>641.2</ele>
        <time>2024-05-08T10:06:43Z</time>
      </trkpt>
      <trkpt lat="47.31931" lon="6.83712">
        <ele>642.4</ele>
        <time>2024-05-08T10:06:53Z</time>
      </trkpt>
      <trkpt lat="47.31933" lon="6.83741">
        <ele>643.7</ele>
        <time>2024-05-08T10:07:04Z</time>
      </trkpt>
      <trkpt lat="47.31932" lon="6.83769">
        <ele>644.9</ele>
        <time>2024-05-08T10:07:14Z</time>
      </trkpt>
      <trkpt lat="47.31931" lon="6.838">
        <ele>646.3</ele>
        <time>2024-05-08T10:07:25Z</time>
      </trkpt>
      <trkpt lat="47.31927" lon="6.83825">
        <ele>647.5</ele>
        <time>2024-05-08T10:07:35Z</time>
      </trkpt>
      <trkpt lat="47.31923" lon="6.83856">
        <ele>649</ele>
        <time>2024-05-08T10:07:46Z</time>
      </trkpt>
      <trkpt lat="47.3192" lon="6.83887">
        <ele>650.4</ele>
        <time>2024-05-08T10:07:57Z</time>
      </trkpt>
      <trkpt lat="47.31921" lon="6.83917">
        <ele>651.7</ele>
        <time>2024-05-08T10:08:08Z</time>
      </trkpt>
      <trkpt lat="47.3192" lon="6.83944">
        <ele>652.8</ele>
        <time>2024-05-08T10:08:18Z</time>
      </trkpt>
      <trkpt lat="47.31918" lon="6.83971">
        <ele>654</ele>
        <time>2024-05-08T10:08:29Z</time>
      </trkpt>
      <trkpt lat="47.31917" lon="6.83998">
        <ele>655.4</ele>
        <time>2024-05-08T10:08:39Z</time>
      </trkpt>
      <trkpt lat="47.3191" lon="6.84025">
        <ele>656.8</ele>
        <time>2024-05-08T10:08:50Z</time>
      </trkpt>
      <trkpt lat="47.31905" lon="6.84053">
        <ele>658.2</ele>
        <time>2024-05-08T10:09:00Z</time>
      </trkpt>
      <trkpt lat="47.31908" lon="6.84084">
        <ele>659.5</ele>
        <time>2024-05-08T10:09:11Z</time>
      </trkpt>
      <trkpt lat="47.3191" lon="6.84118">
        <ele>660.6</ele>
        <time>2024-05-08T10:09:22Z</time>
      </trkpt>
      <trkpt lat="47.319" lon="6.84149">
        <ele>661.6</ele>
        <time>2024-05-08T10:09:32Z</time>
      </trkpt>
      <trkpt lat="47.31894" lon="6.84179">
        <ele>662.3</ele>
        <time>2024-05-08T10:09:42Z</time>
      </trkpt>
      <trkpt lat="47.31889" lon="6.84211">
        <ele>663.1</ele>
        <time>2024-05-08T10:09:53Z</time>
      </trkpt>
      <trkpt lat="47.31875" lon="6.84232">
        <ele>663.9</ele>
        <time>2024-05-08T10:10:03Z</time>
      </trkpt>
      <trkpt lat="47.31858" lon="6.8423">
        <ele>664.7</ele>
        <time>2024-05-08T10:10:14Z</time>
      </trkpt>
      <trkpt lat="47.31842" lon="6.84209">
        <ele>665.8</ele>
        <time>2024-05-08T10:10:24Z</time>
      </trkpt>
      <trkpt lat="47.31841" lon="6.84179">
        <ele>667.1</ele>
        <time>2024-05-08T10:10:34Z</time>
      </trkpt>
      <trkpt lat="47.31841" lon="6.84151">
        <ele>668.4</ele>
        <time>2024-05-08T10:10:44Z</time>
      </trkpt>
      <trkpt lat="47.31836" lon="6.84124">
        <ele>670</ele>
        <time>2024-05-08T10:10:55Z</time>
      </trkpt>
      <trkpt lat="47.31831" lon="6.84101">
        <ele>671.5</ele>
        <time>2024-05-08T10:11:05Z</time>
      </trkpt>
      <trkpt lat="47.31824" lon="6.84077">
        <ele>673</ele>
        <time>2024-05-08T10:11:16Z</time>
      </trkpt>
      <trkpt lat="47.31817" lon="6.8405">
        <ele>674.5</ele>
        <time>2024-05-08T10:11:27Z</time>
      </trkpt>
      <trkpt lat="47.31809" lon="6.84024">
        <ele>676</ele>
        <time>2024-05-08T10:11:38Z</time>
      </trkpt>
      <trkpt lat="47.31804" lon="6.83999">
        <ele>677.2</ele>
        <time>2024-05-08T10:11:48Z</time>
      </trkpt>
      <trkpt lat="47.31794" lon="6.83971">
        <ele>678.7</ele>
        <time>2024-05-08T10:11:59Z</time>
      </trkpt>
      <trkpt lat="47.31786" lon="6.83946">
        <ele>680</ele>
        <time>2024-05-08T10:12:09Z</time>
      </trkpt>
      <trkpt lat="47.3178" lon="6.83921">
        <ele>681.3</ele>
        <time>2024-05-08T10:12:19Z</time>
      </trkpt>
      <trkpt lat="47.31772" lon="6.83896">
        <ele>682.7</ele>
        <time>2024-05-08T10:12:30Z</time>
      </trkpt>
      <trkpt lat="47.31766" lon="6.8387">
        <ele>683.9</ele>
        <time>2024-05-08T10:12:41Z</time>
      </trkpt>
      <trkpt lat="47.31755" lon="6.83844">
        <ele>685.4</ele>
        <time>2024-05-08T10:12:51Z</time>
      </trkpt>
      <trkpt lat="47.31747" lon="6.83819">
        <ele>686.8</ele>
        <time>2024-05-08T10:13:01Z</time>
      </trkpt>
      <trkpt lat="47.31739" lon="6.83794">
        <ele>688.2</ele>
        <time>2024-05-08T10:13:12Z</time>
      </trkpt>
      <trkpt lat="47.31733" lon="6.83767">
        <ele>689.5</ele>
        <time>2024-05-08T10:13:22Z</time>
      </trkpt>
      <trkpt lat="47.31729" lon="6.8374">
        <ele>690.8</ele>
        <time>2024-05-08T10:13:32Z</time>
      </trkpt>
      <trkpt lat="47.31725" lon="6.83709">
        <ele>692.4</ele>
        <time>2024-05-08T10:13:44Z</time>
      </trkpt>
      <trkpt lat="47.3172" lon="6.83683">
        <ele>693.7</ele>
        <time>2024-05-08T10:13:54Z</time>
      </trkpt>
      <trkpt lat="47.31711" lon="6.83661">
        <ele>695</ele>
        <time>2024-05-08T10:14:04Z</time>
      </trkpt>
      <trkpt lat="47.31702" lon="6.83638">
        <ele>696.3</ele>
        <time>2024-05-08T10:14:14Z</time>
      </trkpt>
      <trkpt lat="47.31688" lon="6.83617">
        <ele>697.7</ele>
        <time>2024-05-08T10:14:25Z</time>
      </trkpt>
      <trkpt lat="47.31671" lon="6.83603">
        <ele>699</ele>
        <time>2024-05-08T10:14:36Z</time>
      </trkpt>
      <trkpt lat="47.31652" lon="6.83595">
        <ele>700.1</ele>
        <time>2024-05-08T10:14:47Z</time>
      </trkpt>
      <trkpt lat="47.31631" lon="6.8359">
        <ele>701.1</ele>
        <time>2024-05-08T10:14:57Z</time>
      </trkpt>
      <trkpt lat="47.31611" lon="6.8359">
        <ele>702.2</ele>
        <time>2024-05-08T10:15:07Z</time>
      </trkpt>
      <trkpt lat="47.31591" lon="6.83587">
        <ele>703.2</ele>
        <time>2024-05-08T10:15:17Z</time>
      </trkpt>
      <trkpt lat="47.31565" lon="6.83583">
        <ele>704.1</ele>
        <time>2024-05-08T10:15:28Z</time>
      </trkpt>
      <trkpt lat="47.31537" lon="6.83581">
        <ele>704.8</ele>
        <time>2024-05-08T10:15:39Z</time>
      </trkpt>
      <trkpt lat="47.3151" lon="6.83579">
        <ele>705.6</ele>
        <time>2024-05-08T10:15:49Z</time>
      </trkpt>
      <trkpt lat="47.3148" lon="6.83574">
        <ele>706.6</ele>
        <time>2024-05-08T10:16:00Z</time>
      </trkpt>
      <trkpt lat="47.3145" lon="6.83571">
        <ele>707.6</ele>
        <time>2024-05-08T10:16:11Z</time>
      </trkpt>
      <trkpt lat="47.31422" lon="6.83567">
        <ele>708.7</ele>
        <time>2024-05-08T10:16:22Z</time>
      </trkpt>
      <trkpt lat="47.31399" lon="6.83559">
        <ele>709.9</ele>
        <time>2024-05-08T10:16:32Z</time>
      </trkpt>
      <trkpt lat="47.31376" lon="6.83551">
        <ele>711.2</ele>
        <time>2024-05-08T10:16:42Z</time>
      </trkpt>
      <trkpt lat="47.3135" lon="6.83541">
        <ele>712.7</ele>
        <time>2024-05-08T10:16:53Z</time>
      </trkpt>
      <trkpt lat="47.31328" lon="6.83534">
        <ele>714</ele>
        <time>2024-05-08T10:17:03Z</time>
      </trkpt>
      <trkpt lat="47.31307" lon="6.83527">
        <ele>715.4</ele>
        <time>2024-05-08T10:17:13Z</time>
      </trkpt>
      <trkpt lat="47.31286" lon="6.83526">
        <ele>716.8</ele>
        <time>2024-05-08T10:17:23Z</time>
      </trkpt>
      <trkpt lat="47.31263" lon="6.83529">
        <ele>718.3</ele>
        <time>2024-05-08T10:17:34Z</time>
      </trkpt>
      <trkpt lat="47.3124" lon="6.83539">
        <ele>720</ele>
        <time>2024-05-08T10:17:45Z</time>
      </trkpt>
      <trkpt lat="47.31219" lon="6.83542">
        <ele>721.4</ele>
        <time>2024-05-08T10:17:56Z</time>
      </trkpt>
      <trkpt lat="47.31194" lon="6.83531">
        <ele>723.1</ele>
        <time>2024-05-08T10:18:07Z</time>
      </trkpt>
      <trkpt lat="47.31172" lon="6.83514">
        <ele>724.7</ele>
        <time>2024-05-08T10:18:17Z</time>
      </trkpt>
      <trkpt lat="47.31147" lon="6.83499">
        <ele>726.4</ele>
        <time>2024-05-08T10:18:28Z</time>
      </trkpt>
      <trkpt lat="47.31123" lon="6.83491">
        <ele>727.8</ele>
        <time>2024-05-08T10:18:38Z</time>
      </trkpt>
      <trkpt lat="47.31098" lon="6.83483">
        <ele>729.3</ele>
        <time>2024-05-08T10:18:49Z</time>
      </trkpt>
      <trkpt lat="47.31071" lon="6.83475">
        <ele>731</ele>
        <time>2024-05-08T10:19:00Z</time>
      </trkpt>
      <trkpt lat="47.31043" lon="6.83466">
        <ele>732.7</ele>
        <time>2024-05-08T10:19:11Z</time>
      </trkpt>
      <trkpt lat="47.31015" lon="6.83456">
        <ele>734.5</ele>
        <time>2024-05-08T10:19:22Z</time>
      </trkpt>
      <trkpt lat="47.30989" lon="6.83447">
        <ele>736</ele>
        <time>2024-05-08T10:19:33Z</time>
      </trkpt>
      <trkpt lat="47.30962" lon="6.83438">
        <ele>737.7</ele>
        <time>2024-05-08T10:19:44Z</time>
      </trkpt>
      <trkpt lat="47.30937" lon="6.83432">
        <ele>739.2</ele>
        <time>2024-05-08T10:19:54Z</time>
      </trkpt>
      <trkpt lat="47.30909" lon="6.83419">
        <ele>740.8</ele>
        <time>2024-05-08T10:20:05Z</time>
      </trkpt>
      <trkpt lat="47.30883" lon="6.83409">
        <ele>742.1</ele>
        <time>2024-05-08T10:20:15Z</time>
      </trkpt>
      <trkpt lat="47.30853" lon="6.83403">
        <ele>743.2</ele>
        <time>2024-05-08T10:20:26Z</time>
      </trkpt>
      <trkpt lat="47.30824" lon="6.83404">
        <ele>744.1</ele>
        <time>2024-05-08T10:20:37Z</time>
      </trkpt>
      <trkpt lat="47.30796" lon="6.83403">
        <ele>744.9</ele>
        <time>2024-05-08T10:20:48Z</time>
      </trkpt>
      <trkpt lat="47.30769" lon="6.83404">
        <ele>745.8</ele>
        <time>2024-05-08T10:20:58Z</time>
      </trkpt>
      <trkpt lat="47.30739" lon="6.83405">
        <ele>746.7</ele>
        <time>2024-05-08T10:21:08Z</time>
      </trkpt>
      <trkpt lat="47.30705" lon="6.83408">
        <ele>747.6</ele>
        <time>2024-05-08T10:21:19Z</time>
      </trkpt>
      <trkpt lat="47.30671" lon="6.83418">
        <ele>748.4</ele>
        <time>2024-05-08T10:21:30Z</time>
      </trkpt>
      <trkpt lat="47.30643" lon="6.83436">
        <ele>749.1</ele>
        <time>2024-05-08T10:21:42Z</time>
      </trkpt>
      <trkpt lat="47.30611" lon="6.83456">
        <ele>749.7</ele>
        <time>2024-05-08T10:21:52Z</time>
      </trkpt>
      <trkpt lat="47.3058" lon="6.83481">
        <ele>750.4</ele>
        <time>2024-05-08T10:22:03Z</time>
      </trkpt>
      <trkpt lat="47.30549" lon="6.83504">
        <ele>751.3</ele>
        <time>2024-05-08T10:22:13Z</time>
      </trkpt>
      <trkpt lat="47.30525" lon="6.83524">
        <ele>751.9</ele>
        <time>2024-05-08T10:22:23Z</time>
      </trkpt>
      <trkpt lat="47.30512" lon="6.83535">
        <ele>752</ele>
        <time>2024-05-08T10:22:34Z</time>
      </trkpt>
      <trkpt lat="47.30511" lon="6.83537">
        <ele>752</ele>
        <time>2024-05-08T10:22:45Z</time>
      </trkpt>
      <trkpt lat="47.30511" lon="6.83537">
        <ele>752</ele>
        <time>2024-05-08T10:22:56Z</time>
      </trkpt>
      <trkpt lat="47.30511" lon="6.83537">
        <ele>752</ele>
        <time>2024-05-08T10:23:06Z</time>
      </trkpt>
      <trkpt lat="47.30511" lon="6.83537">
        <ele>752</ele>
        <time>2024-05-08T10:23:17Z</time>
      </trkpt>
      <trkpt lat="47.30511" lon="6.83538">
        <ele>752</ele>
        <time>2024-05-08T10:23:27Z</time>
      </trkpt>
      <trkpt lat="47.30511" lon="6.83538">
        <ele>752</ele>
        <time>2024-05-08T10:23:37Z</time>
      </trkpt>
      <trkpt lat="47.30511" lon="6.83538">
        <ele>752</ele>
        <time>2024-05-08T10:23:47Z</time>
      </trkpt>
      <trkpt lat="47.30511" lon="6.83538">
        <ele>752</ele>
        <time>2024-05-08T10:23:58Z</time>
      </trkpt>
      <trkpt lat="47.30511" lon="6.83538">
        <ele>752</ele>
        <time>2024-05-08T10:24:08Z</time>
      </trkpt>
      <trkpt lat="47.30511" lon="6.83538">
        <ele>752</ele>
        <time>2024-05-08T10:24:18Z</time>
      </trkpt>
      <trkpt lat="47.30511" lon="6.83538">
        <ele>752</ele>
        <time>2024-05-08T10:24:28Z</time>
      </trkpt>
      <trkpt lat="47.30511" lon="6.83538">
        <ele>752</ele>
        <time>2024-05-08T10:24:39Z</time>
      </trkpt>
      <trkpt lat="47.30505" lon="6.83546">
        <ele>752</ele>
        <time>2024-05-08T10:24:49Z</time>
      </trkpt>
      <trkpt lat="47.30497" lon="6.83587">
        <ele>751.8</ele>
        <time>2024-05-08T10:25:00Z</time>
      </trkpt>
      <trkpt lat="47.30483" lon="6.8365">
        <ele>749.7</ele>
        <time>2024-05-08T10:25:10Z</time>
      </trkpt>
      <trkpt lat="47.30425" lon="6.83702">
        <ele>744.1</ele>
        <time>2024-05-08T10:25:21Z</time>
      </trkpt>
      <trkpt lat="47.30383" lon="6.83773">
        <ele>737.2</ele>
        <time>2024-05-08T10:25:32Z</time>
      </trkpt>
      <trkpt lat="47.30336" lon="6.83805">
        <ele>735.3</ele>
        <time>2024-05-08T10:25:43Z</time>
      </trkpt>
      <trkpt lat="47.30316" lon="6.83853">
        <ele>735.4</ele>
        <time>2024-05-08T10:25:53Z</time>
      </trkpt>
      <trkpt lat="47.30297" lon="6.839">
        <ele>736.1</ele>
        <time>2024-05-08T10:26:03Z</time>
      </trkpt>
      <trkpt lat="47.30289" lon="6.83939">
        <ele>737.1</ele>
        <time>2024-05-08T10:26:14Z</time>
      </trkpt>
      <trkpt lat="47.30278" lon="6.84009">
        <ele>735.4</ele>
        <time>2024-05-08T10:26:25Z</time>
      </trkpt>
      <trkpt lat="47.30257" lon="6.84108">
        <ele>731.7</ele>
        <time>2024-05-08T10:26:35Z</time>
      </trkpt>
      <trkpt lat="47.30222" lon="6.84225">
        <ele>729.4</ele>
        <time>2024-05-08T10:26:46Z</time>
      </trkpt>
      <trkpt lat="47.30201" lon="6.84298">
        <ele>729.8</ele>
        <time>2024-05-08T10:26:56Z</time>
      </trkpt>
      <trkpt lat="47.30181" lon="6.84365">
        <ele>730.4</ele>
        <time>2024-05-08T10:27:07Z</time>
      </trkpt>
      <trkpt lat="47.30164" lon="6.84424">
        <ele>731.5</ele>
        <time>2024-05-08T10:27:18Z</time>
      </trkpt>
      <trkpt lat="47.30151" lon="6.84476">
        <ele>732.6</ele>
        <time>2024-05-08T10:27:28Z</time>
      </trkpt>
      <trkpt lat="47.30139" lon="6.84532">
        <ele>734</ele>
        <time>2024-05-08T10:27:39Z</time>
      </trkpt>
      <trkpt lat="47.3013" lon="6.84583">
        <ele>735.4</ele>
        <time>2024-05-08T10:27:49Z</time>
      </trkpt>
      <trkpt lat="47.30118" lon="6.84634">
        <ele>736.9</ele>
        <time>2024-05-08T10:28:00Z</time>
      </trkpt>
      <trkpt lat="47.30104" lon="6.84678">
        <ele>738.9</ele>
        <time>2024-05-08T10:28:11Z</time>
      </trkpt>
      <trkpt lat="47.30093" lon="6.84708">
        <ele>740.8</ele>
        <time>2024-05-08T10:28:21Z</time>
      </trkpt>
      <trkpt lat="47.30078" lon="6.84745">
        <ele>743.4</ele>
        <time>2024-05-08T10:28:32Z</time>
      </trkpt>
      <trkpt lat="47.30065" lon="6.84781">
        <ele>745.9</ele>
        <time>2024-05-08T10:28:43Z</time>
      </trkpt>
      <trkpt lat="47.30046" lon="6.84805">
        <ele>747.8</ele>
        <time>2024-05-08T10:28:53Z</time>
      </trkpt>
      <trkpt lat="47.30021" lon="6.84831">
        <ele>748.9</ele>
        <time>2024-05-08T10:29:04Z</time>
      </trkpt>
      <trkpt lat="47.29983" lon="6.84845">
        <ele>749.1</ele>
        <time>2024-05-08T10:29:15Z</time>
      </trkpt>
      <trkpt lat="47.29937" lon="6.84844">
        <ele>749.1</ele>
        <time>2024-05-08T10:29:26Z</time>
      </trkpt>
      <trkpt lat="47.29903" lon="6.84816">
        <ele>749.6</ele>
        <time>2024-05-08T10:29:37Z</time>
      </trkpt>
      <trkpt lat="47.29878" lon="6.84792">
        <ele>751.5</ele>
        <time>2024-05-08T10:29:47Z</time>
      </trkpt>
      <trkpt lat="47.29856" lon="6.84771">
        <ele>753.3</ele>
        <time>2024-05-08T10:29:58Z</time>
      </trkpt>
      <trkpt lat="47.29839" lon="6.84753">
        <ele>754.5</ele>
        <time>2024-05-08T10:30:08Z</time>
      </trkpt>
      <trkpt lat="47.29818" lon="6.84724">
        <ele>755.2</ele>
        <time>2024-05-08T10:30:18Z</time>
      </trkpt>
      <trkpt lat="47.29796" lon="6.84684">
        <ele>755.9</ele>
        <time>2024-05-08T10:30:29Z</time>
      </trkpt>
      <trkpt lat="47.29769" lon="6.84673">
        <ele>756.8</ele>
        <time>2024-05-08T10:30:39Z</time>
      </trkpt>
      <trkpt lat="47.2975" lon="6.84661">
        <ele>758.1</ele>
        <time>2024-05-08T10:30:50Z</time>
      </trkpt>
      <trkpt lat="47.29731" lon="6.84649">
        <ele>759.7</ele>
        <time>2024-05-08T10:31:01Z</time>
      </trkpt>
      <trkpt lat="47.29712" lon="6.84637">
        <ele>761.9</ele>
        <time>2024-05-08T10:31:12Z</time>
      </trkpt>
      <trkpt lat="47.29698" lon="6.84621">
        <ele>764.1</ele>
        <time>2024-05-08T10:31:23Z</time>
      </trkpt>
      <trkpt lat="47.29682" lon="6.84613">
        <ele>766.1</ele>
        <time>2024-05-08T10:31:34Z</time>
      </trkpt>
      <trkpt lat="47.29666" lon="6.84604">
        <ele>767.8</ele>
        <time>2024-05-08T10:31:45Z</time>
      </trkpt>
      <trkpt lat="47.29649" lon="6.846">
        <ele>769.2</ele>
        <time>2024-05-08T10:31:56Z</time>
      </trkpt>
      <trkpt lat="47.29632" lon="6.84596">
        <ele>770.6</ele>
        <time>2024-05-08T10:32:07Z</time>
      </trkpt>
      <trkpt lat="47.29617" lon="6.84593">
        <ele>771.7</ele>
        <time>2024-05-08T10:32:17Z</time>
      </trkpt>
      <trkpt lat="47.296" lon="6.84591">
        <ele>772.8</ele>
        <time>2024-05-08T10:32:28Z</time>
      </trkpt>
      <trkpt lat="47.2958" lon="6.84589">
        <ele>774.4</ele>
        <time>2024-05-08T10:32:39Z</time>
      </trkpt>
      <trkpt lat="47.29564" lon="6.84587">
        <ele>776</ele>
        <time>2024-05-08T10:32:49Z</time>
      </trkpt>
      <trkpt lat="47.29547" lon="6.84592">
        <ele>777.8</ele>
        <time>2024-05-08T10:33:00Z</time>
      </trkpt>
      <trkpt lat="47.29531" lon="6.846">
        <ele>779.5</ele>
        <time>2024-05-08T10:33:11Z</time>
      </trkpt>
      <trkpt lat="47.29519" lon="6.84607">
        <ele>780.8</ele>
        <time>2024-05-08T10:33:21Z</time>
      </trkpt>
      <trkpt lat="47.29507" lon="6.84614">
        <ele>782.1</ele>
        <time>2024-05-08T10:33:31Z</time>
      </trkpt>
      <trkpt lat="47.29489" lon="6.84621">
        <ele>784</ele>
        <time>2024-05-08T10:33:42Z</time>
      </trkpt>
      <trkpt lat="47.29473" lon="6.84623">
        <ele>785.7</ele>
        <time>2024-05-08T10:33:53Z</time>
      </trkpt>
      <trkpt lat="47.29458" lon="6.84625">
        <ele>787.4</ele>
        <time>2024-05-08T10:34:03Z</time>
      </trkpt>
      <trkpt lat="47.29443" lon="6.84627">
        <ele>789.2</ele>
        <time>2024-05-08T10:34:14Z</time>
      </trkpt>
      <trkpt lat="47.29429" lon="6.84632">
        <ele>790.8</ele>
        <time>2024-05-08T10:34:24Z</time>
      </trkpt>
      <trkpt lat="47.29413" lon="6.8464">
        <ele>792.6</ele>
        <time>2024-05-08T10:34:35Z</time>
      </trkpt>
      <trkpt lat="47.29398" lon="6.84647">
        <ele>794.4</ele>
        <time>2024-05-08T10:34:46Z</time>
      </trkpt>
      <trkpt lat="47.29386" lon="6.84659">
        <ele>796.1</ele>
        <time>2024-05-08T10:34:56Z</time>
      </trkpt>
      <trkpt lat="47.29373" lon="6.84671">
        <ele>798.1</ele>
        <time>2024-05-08T10:35:07Z</time>
      </trkpt>
      <trkpt lat="47.29361" lon="6.84683">
        <ele>800</ele>
        <time>2024-05-08T10:35:18Z</time>
      </trkpt>
      <trkpt lat="47.2935" lon="6.84694">
        <ele>801.8</ele>
        <time>2024-05-08T10:35:28Z</time>
      </trkpt>
      <trkpt lat="47.2934" lon="6.84706">
        <ele>803.5</ele>
        <time>2024-05-08T10:35:39Z</time>
      </trkpt>
      <trkpt lat="47.29326" lon="6.84712">
        <ele>805.7</ele>
        <time>2024-05-08T10:35:49Z</time>
      </trkpt>
      <trkpt lat="47.29315" lon="6.84717">
        <ele>807.6</ele>
        <time>2024-05-08T10:35:59Z</time>
      </trkpt>
      <trkpt lat="47.29301" lon="6.84729">
        <ele>810</ele>
        <time>2024-05-08T10:36:10Z</time>
      </trkpt>
      <trkpt lat="47.29292" lon="6.84737">
        <ele>811.4</ele>
        <time>2024-05-08T10:36:20Z</time>
      </trkpt>
      <trkpt lat="47.29283" lon="6.84748">
        <ele>813</ele>
        <time>2024-05-08T10:36:31Z</time>
      </trkpt>
      <trkpt lat="47.29275" lon="6.84762">
        <ele>814.6</ele>
        <time>2024-05-08T10:36:41Z</time>
      </trkpt>
      <trkpt lat="47.29267" lon="6.84778">
        <ele>816.2</ele>
        <time>2024-05-08T10:36:52Z</time>
      </trkpt>
      <trkpt lat="47.29256" lon="6.848">
        <ele>818.4</ele>
        <time>2024-05-08T10:37:02Z</time>
      </trkpt>
      <trkpt lat="47.29246" lon="6.84821">
        <ele>820.8</ele>
        <time>2024-05-08T10:37:13Z</time>
      </trkpt>
      <trkpt lat="47.29237" lon="6.84841">
        <ele>823.2</ele>
        <time>2024-05-08T10:37:24Z</time>
      </trkpt>
      <trkpt lat="47.29228" lon="6.84856">
        <ele>825.2</ele>
        <time>2024-05-08T10:37:35Z</time>
      </trkpt>
      <trkpt lat="47.29219" lon="6.84869">
        <ele>826.9</ele>
        <time>2024-05-08T10:37:45Z</time>
      </trkpt>
      <trkpt lat="47.29208" lon="6.84881">
        <ele>828.3</ele>
        <time>2024-05-08T10:37:55Z</time>
      </trkpt>
      <trkpt lat="47.29198" lon="6.84886">
        <ele>829.4</ele>
        <time>2024-05-08T10:38:06Z</time>
      </trkpt>
      <trkpt lat="47.29183" lon="6.8489">
        <ele>830.6</ele>
        <time>2024-05-08T10:38:16Z</time>
      </trkpt>
      <trkpt lat="47.29168" lon="6.84895">
        <ele>831.8</ele>
        <time>2024-05-08T10:38:27Z</time>
      </trkpt>
      <trkpt lat="47.29155" lon="6.84902">
        <ele>833</ele>
        <time>2024-05-08T10:38:37Z</time>
      </trkpt>
      <trkpt lat="47.29148" lon="6.84906">
        <ele>833.6</ele>
        <time>2024-05-08T10:38:47Z</time>
      </trkpt>
      <trkpt lat="47.29133" lon="6.84926">
        <ele>835.2</ele>
        <time>2024-05-08T10:38:57Z</time>
      </trkpt>
      <trkpt lat="47.29116" lon="6.8494">
        <ele>836.4</ele>
        <time>2024-05-08T10:39:08Z</time>
      </trkpt>
      <trkpt lat="47.29101" lon="6.84954">
        <ele>837.7</ele>
        <time>2024-05-08T10:39:18Z</time>
      </trkpt>
      <trkpt lat="47.29083" lon="6.84965">
        <ele>839.7</ele>
        <time>2024-05-08T10:39:29Z</time>
      </trkpt>
      <trkpt lat="47.29063" lon="6.84965">
        <ele>841.2</ele>
        <time>2024-05-08T10:39:39Z</time>
      </trkpt>
      <trkpt lat="47.29041" lon="6.84966">
        <ele>842.4</ele>
        <time>2024-05-08T10:39:50Z</time>
      </trkpt>
      <trkpt lat="47.29015" lon="6.84963">
        <ele>843.5</ele>
        <time>2024-05-08T10:40:01Z</time>
      </trkpt>
      <trkpt lat="47.28993" lon="6.84982">
        <ele>845</ele>
        <time>2024-05-08T10:40:12Z</time>
      </trkpt>
      <trkpt lat="47.28977" lon="6.84997">
        <ele>846.1</ele>
        <time>2024-05-08T10:40:22Z</time>
      </trkpt>
      <trkpt lat="47.28966" lon="6.85006">
        <ele>846.9</ele>
        <time>2024-05-08T10:40:33Z</time>
      </trkpt>
      <trkpt lat="47.28952" lon="6.85016">
        <ele>847.9</ele>
        <time>2024-05-08T10:40:43Z</time>
      </trkpt>
      <trkpt lat="47.28928" lon="6.85017">
        <ele>848.5</ele>
        <time>2024-05-08T10:40:54Z</time>
      </trkpt>
      <trkpt lat="47.28888" lon="6.85035">
        <ele>846.7</ele>
        <time>2024-05-08T10:41:04Z</time>
      </trkpt>
      <trkpt lat="47.28851" lon="6.85086">
        <ele>845.7</ele>
        <time>2024-05-08T10:41:15Z</time>
      </trkpt>
      <trkpt lat="47.28837" lon="6.85116">
        <ele>846.2</ele>
        <time>2024-05-08T10:41:25Z</time>
      </trkpt>
      <trkpt lat="47.28821" lon="6.85141">
        <ele>847</ele>
        <time>2024-05-08T10:41:36Z</time>
      </trkpt>
      <trkpt lat="47.28807" lon="6.85162">
        <ele>848</ele>
        <time>2024-05-08T10:41:46Z</time>
      </trkpt>
      <trkpt lat="47.28793" lon="6.85195">
        <ele>849.5</ele>
        <time>2024-05-08T10:41:57Z</time>
      </trkpt>
      <trkpt lat="47.28783" lon="6.85218">
        <ele>850.6</ele>
        <time>2024-05-08T10:42:07Z</time>
      </trkpt>
      <trkpt lat="47.2878" lon="6.85219">
        <ele>850.6</ele>
        <time>2024-05-08T10:42:18Z</time>
      </trkpt>
      <trkpt lat="47.2878" lon="6.85219">
        <ele>850.6</ele>
        <time>2024-05-08T10:42:28Z</time>
      </trkpt>
      <trkpt lat="47.2878" lon="6.85219">
        <ele>850.6</ele>
        <time>2024-05-08T10:42:38Z</time>
      </trkpt>
      <trkpt lat="47.2878" lon="6.85219">
        <ele>850.6</ele>
        <time>2024-05-08T10:42:49Z</time>
      </trkpt>
      <trkpt lat="47.2878" lon="6.85219">
        <ele>850.6</ele>
        <time>2024-05-08T10:42:59Z</time>
      </trkpt>
      <trkpt lat="47.2878" lon="6.85219">
        <ele>850.6</ele>
        <time>2024-05-08T10:43:10Z</time>
      </trkpt>
      <trkpt lat="47.2878" lon="6.85219">
        <ele>850.6</ele>
        <time>2024-05-08T10:43:20Z</time>
      </trkpt>
      <trkpt lat="47.2878" lon="6.85219">
        <ele>850.6</ele>
        <time>2024-05-08T10:43:30Z</time>
      </trkpt>
      <trkpt lat="47.2878" lon="6.85219">
        <ele>850.6</ele>
        <time>2024-05-08T10:43:41Z</time>
      </trkpt>
      <trkpt lat="47.2878" lon="6.85219">
        <ele>850.6</ele>
        <time>2024-05-08T10:43:52Z</time>
      </trkpt>
      <trkpt lat="47.2878" lon="6.85219">
        <ele>850.6</ele>
        <time>2024-05-08T10:44:02Z</time>
      </trkpt>
      <trkpt lat="47.2878" lon="6.85219">
        <ele>850.6</ele>
        <time>2024-05-08T10:44:12Z</time>
      </trkpt>
      <trkpt lat="47.2878" lon="6.85219">
        <ele>850.6</ele>
        <time>2024-05-08T10:44:23Z</time>
      </trkpt>
      <trkpt lat="47.2878" lon="6.85219">
        <ele>850.6</ele>
        <time>2024-05-08T10:44:33Z</time>
      </trkpt>
      <trkpt lat="47.2878" lon="6.85219">
        <ele>850.6</ele>
        <time>2024-05-08T10:44:44Z</time>
      </trkpt>
      <trkpt lat="47.2878" lon="6.85219">
        <ele>850.6</ele>
        <time>2024-05-08T10:44:55Z</time>
      </trkpt>
      <trkpt lat="47.2878" lon="6.85219">
        <ele>850.6</ele>
        <time>2024-05-08T10:45:06Z</time>
      </trkpt>
      <trkpt lat="47.2878" lon="6.85219">
        <ele>850.6</ele>
        <time>2024-05-08T10:45:16Z</time>
      </trkpt>
      <trkpt lat="47.28785" lon="6.85217">
        <ele>850.6</ele>
        <time>2024-05-08T10:45:26Z</time>
      </trkpt>
      <trkpt lat="47.28787" lon="6.85249">
        <ele>850.1</ele>
        <time>2024-05-08T10:45:37Z</time>
      </trkpt>
      <trkpt lat="47.28785" lon="6.85293">
        <ele>849.1</ele>
        <time>2024-05-08T10:45:48Z</time>
      </trkpt>
      <trkpt lat="47.28777" lon="6.85357">
        <ele>845.5</ele>
        <time>2024-05-08T10:45:58Z</time>
      </trkpt>
      <trkpt lat="47.28769" lon="6.85458">
        <ele>837.8</ele>
        <time>2024-05-08T10:46:10Z</time>
      </trkpt>
      <trkpt lat="47.2878" lon="6.85581">
        <ele>830.8</ele>
        <time>2024-05-08T10:46:21Z</time>
      </trkpt>
      <trkpt lat="47.28782" lon="6.8568">
        <ele>824.5</ele>
        <time>2024-05-08T10:46:32Z</time>
      </trkpt>
      <trkpt lat="47.288" lon="6.85721">
        <ele>824</ele>
        <time>2024-05-08T10:46:43Z</time>
      </trkpt>
      <trkpt lat="47.28825" lon="6.85767">
        <ele>824.1</ele>
        <time>2024-05-08T10:46:54Z</time>
      </trkpt>
      <trkpt lat="47.2885" lon="6.85819">
        <ele>824.6</ele>
        <time>2024-05-08T10:47:05Z</time>
      </trkpt>
      <trkpt lat="47.28873" lon="6.85839">
        <ele>825.9</ele>
        <time>2024-05-08T10:47:16Z</time>
      </trkpt>
      <trkpt lat="47.28896" lon="6.85848">
        <ele>827.7</ele>
        <time>2024-05-08T10:47:26Z</time>
      </trkpt>
      <trkpt lat="47.28916" lon="6.85869">
        <ele>829.4</ele>
        <time>2024-05-08T10:47:37Z</time>
      </trkpt>
      <trkpt lat="47.28942" lon="6.85895">
        <ele>831.1</ele>
        <time>2024-05-08T10:47:48Z</time>
      </trkpt>
      <trkpt lat="47.28965" lon="6.85912">
        <ele>833</ele>
        <time>2024-05-08T10:47:59Z</time>
      </trkpt>
      <trkpt lat="47.28984" lon="6.85927">
        <ele>834.6</ele>
        <time>2024-05-08T10:48:10Z</time>
      </trkpt>
      <trkpt lat="47.29006" lon="6.85936">
        <ele>836.3</ele>
        <time>2024-05-08T10:48:20Z</time>
      </trkpt>
      <trkpt lat="47.29029" lon="6.8595">
        <ele>837.8</ele>
        <time>2024-05-08T10:48:31Z</time>
      </trkpt>
      <trkpt lat="47.29048" lon="6.8596">
        <ele>838.8</ele>
        <time>2024-05-08T10:48:41Z</time>
      </trkpt>
      <trkpt lat="47.29066" lon="6.85978">
        <ele>839.7</ele>
        <time>2024-05-08T10:48:52Z</time>
      </trkpt>
      <trkpt lat="47.29088" lon="6.85995">
        <ele>840.8</ele>
        <time>2024-05-08T10:49:02Z</time>
      </trkpt>
      <trkpt lat="47.29105" lon="6.8601">
        <ele>841.9</ele>
        <time>2024-05-08T10:49:13Z</time>
      </trkpt>
      <trkpt lat="47.29125" lon="6.86012">
        <ele>843.8</ele>
        <time>2024-05-08T10:49:23Z</time>
      </trkpt>
      <trkpt lat="47.2914" lon="6.86007">
        <ele>844.5</ele>
        <time>2024-05-08T10:49:33Z</time>
      </trkpt>
      <trkpt lat="47.29154" lon="6.86008">
        <ele>844.7</ele>
        <time>2024-05-08T10:49:44Z</time>
      </trkpt>
      <trkpt lat="47.29152" lon="6.86011">
        <ele>844.7</ele>
        <time>2024-05-08T10:49:54Z</time>
      </trkpt>
      <trkpt lat="47.29153" lon="6.86015">
        <ele>844.6</ele>
        <time>2024-05-08T10:50:05Z</time>
      </trkpt>
      <trkpt lat="47.29157" lon="6.86017">
        <ele>844.6</ele>
        <time>2024-05-08T10:50:15Z</time>
      </trkpt>
      <trkpt lat="47.29172" lon="6.86028">
        <ele>843.8</ele>
        <time>2024-05-08T10:50:25Z</time>
      </trkpt>
      <trkpt lat="47.29208" lon="6.86075">
        <ele>840.8</ele>
        <time>2024-05-08T10:50:36Z</time>
      </trkpt>
      <trkpt lat="47.29256" lon="6.86137">
        <ele>837.5</ele>
        <time>2024-05-08T10:50:46Z</time>
      </trkpt>
      <trkpt lat="47.29306" lon="6.8621">
        <ele>833.7</ele>
        <time>2024-05-08T10:50:57Z</time>
      </trkpt>
      <trkpt lat="47.29359" lon="6.86277">
        <ele>828.4</ele>
        <time>2024-05-08T10:51:09Z</time>
      </trkpt>
      <trkpt lat="47.29393" lon="6.86346">
        <ele>822.8</ele>
        <time>2024-05-08T10:51:19Z</time>
      </trkpt>
      <trkpt lat="47.29399" lon="6.86365">
        <ele>821.6</ele>
        <time>2024-05-08T10:51:29Z</time>
      </trkpt>
      <trkpt lat="47.29399" lon="6.86365">
        <ele>821.6</ele>
        <time>2024-05-08T10:51:40Z</time>
      </trkpt>
      <trkpt lat="47.29404" lon="6.86376">
        <ele>821</ele>
        <time>2024-05-08T10:51:51Z</time>
      </trkpt>
      <trkpt lat="47.29428" lon="6.864">
        <ele>820.3</ele>
        <time>2024-05-08T10:52:01Z</time>
      </trkpt>
      <trkpt lat="47.29452" lon="6.86417">
        <ele>820.2</ele>
        <time>2024-05-08T10:52:11Z</time>
      </trkpt>
      <trkpt lat="47.29483" lon="6.8644">
        <ele>818.7</ele>
        <time>2024-05-08T10:52:22Z</time>
      </trkpt>
      <trkpt lat="47.29529" lon="6.86479">
        <ele>814.4</ele>
        <time>2024-05-08T10:52:33Z</time>
      </trkpt>
      <trkpt lat="47.29569" lon="6.86524">
        <ele>809.5</ele>
        <time>2024-05-08T10:52:43Z</time>
      </trkpt>
      <trkpt lat="47.29594" lon="6.86555">
        <ele>806.7</ele>
        <time>2024-05-08T10:52:54Z</time>
      </trkpt>
      <trkpt lat="47.29594" lon="6.86555">
        <ele>806.7</ele>
        <time>2024-05-08T10:53:05Z</time>
      </trkpt>
      <trkpt lat="47.29594" lon="6.86557">
        <ele>806.6</ele>
        <time>2024-05-08T10:53:15Z</time>
      </trkpt>
      <trkpt lat="47.29609" lon="6.86575">
        <ele>805</ele>
        <time>2024-05-08T10:53:26Z</time>
      </trkpt>
      <trkpt lat="47.29646" lon="6.86625">
        <ele>802</ele>
        <time>2024-05-08T10:53:36Z</time>
      </trkpt>
      <trkpt lat="47.29692" lon="6.86701">
        <ele>799.2</ele>
        <time>2024-05-08T10:53:47Z</time>
      </trkpt>
      <trkpt lat="47.29735" lon="6.86768">
        <ele>797.3</ele>
        <time>2024-05-08T10:53:57Z</time>
      </trkpt>
      <trkpt lat="47.2979" lon="6.86815">
        <ele>790.7</ele>
        <time>2024-05-08T10:54:08Z</time>
      </trkpt>
      <trkpt lat="47.29809" lon="6.86875">
        <ele>783.5</ele>
        <time>2024-05-08T10:54:18Z</time>
      </trkpt>
      <trkpt lat="47.29782" lon="6.86901">
        <ele>781.3</ele>
        <time>2024-05-08T10:54:29Z</time>
      </trkpt>
      <trkpt lat="47.29741" lon="6.86904">
        <ele>778</ele>
        <time>2024-05-08T10:54:39Z</time>
      </trkpt>
      <trkpt lat="47.29676" lon="6.86886">
        <ele>775</ele>
        <time>2024-05-08T10:54:49Z</time>
      </trkpt>
      <trkpt lat="47.29619" lon="6.86891">
        <ele>773.7</ele>
        <time>2024-05-08T10:54:59Z</time>
      </trkpt>
      <trkpt lat="47.29558" lon="6.8692">
        <ele>770.9</ele>
        <time>2024-05-08T10:55:10Z</time>
      </trkpt>
      <trkpt lat="47.29496" lon="6.86975">
        <ele>767.4</ele>
        <time>2024-05-08T10:55:21Z</time>
      </trkpt>
      <trkpt lat="47.29441" lon="6.87043">
        <ele>763.8</ele>
        <time>2024-05-08T10:55:31Z</time>
      </trkpt>
      <trkpt lat="47.29381" lon="6.87114">
        <ele>759.5</ele>
        <time>2024-05-08T10:55:42Z</time>
      </trkpt>
      <trkpt lat="47.29323" lon="6.87171">
        <ele>758.1</ele>
        <time>2024-05-08T10:55:53Z</time>
      </trkpt>
      <trkpt lat="47.29272" lon="6.87231">
        <ele>757.8</ele>
        <time>2024-05-08T10:56:04Z</time>
      </trkpt>
      <trkpt lat="47.29234" lon="6.87269">
        <ele>757.9</ele>
        <time>2024-05-08T10:56:15Z</time>
      </trkpt>
      <trkpt lat="47.29187" lon="6.87274">
        <ele>757.2</ele>
        <time>2024-05-08T10:56:25Z</time>
      </trkpt>
      <trkpt lat="47.29139" lon="6.87282">
        <ele>757.3</ele>
        <time>2024-05-08T10:56:35Z</time>
      </trkpt>
      <trkpt lat="47.29092" lon="6.8732">
        <ele>757</ele>
        <time>2024-05-08T10:56:46Z</time>
      </trkpt>
      <trkpt lat="47.29069" lon="6.87365">
        <ele>758.2</ele>
        <time>2024-05-08T10:56:57Z</time>
      </trkpt>
      <trkpt lat="47.29117" lon="6.87374">
        <ele>758.4</ele>
        <time>2024-05-08T10:57:08Z</time>
      </trkpt>
      <trkpt lat="47.29164" lon="6.87404">
        <ele>759.1</ele>
        <time>2024-05-08T10:57:19Z</time>
      </trkpt>
      <trkpt lat="47.29202" lon="6.87453">
        <ele>759.5</ele>
        <time>2024-05-08T10:57:30Z</time>
      </trkpt>
      <trkpt lat="47.2924" lon="6.8751">
        <ele>759.7</ele>
        <time>2024-05-08T10:57:41Z</time>
      </trkpt>
      <trkpt lat="47.29275" lon="6.87574">
        <ele>760</ele>
        <time>2024-05-08T10:57:52Z</time>
      </trkpt>
      <trkpt lat="47.29307" lon="6.87635">
        <ele>760.9</ele>
        <time>2024-05-08T10:58:03Z</time>
      </trkpt>
      <trkpt lat="47.29326" lon="6.87694">
        <ele>761.8</ele>
        <time>2024-05-08T10:58:13Z</time>
      </trkpt>
      <trkpt lat="47.29346" lon="6.87759">
        <ele>762.1</ele>
        <time>2024-05-08T10:58:23Z</time>
      </trkpt>
      <trkpt lat="47.29372" lon="6.87826">
        <ele>762.4</ele>
        <time>2024-05-08T10:58:34Z</time>
      </trkpt>
      <trkpt lat="47.294" lon="6.87891">
        <ele>761.7</ele>
        <time>2024-05-08T10:58:45Z</time>
      </trkpt>
      <trkpt lat="47.29449" lon="6.87961">
        <ele>759.5</ele>
        <time>2024-05-08T10:58:56Z</time>
      </trkpt>
      <trkpt lat="47.29439" lon="6.8802">
        <ele>760.1</ele>
        <time>2024-05-08T10:59:06Z</time>
      </trkpt>
      <trkpt lat="47.29383" lon="6.88024">
        <ele>760.9</ele>
        <time>2024-05-08T10:59:17Z</time>
      </trkpt>
      <trkpt lat="47.29328" lon="6.88019">
        <ele>762</ele>
        <time>2024-05-08T10:59:28Z</time>
      </trkpt>
      <trkpt lat="47.29278" lon="6.88019">
        <ele>763.5</ele>
        <time>2024-05-08T10:59:39Z</time>
      </trkpt>
      <trkpt lat="47.29244" lon="6.88056">
        <ele>764</ele>
        <time>2024-05-08T10:59:49Z</time>
      </trkpt>
      <trkpt lat="47.292" lon="6.88077">
        <ele>764.6</ele>
        <time>2024-05-08T11:00:00Z</time>
      </trkpt>
      <trkpt lat="47.2915" lon="6.88084">
        <ele>763</ele>
        <time>2024-05-08T11:00:11Z</time>
      </trkpt>
      <trkpt lat="47.29095" lon="6.88077">
        <ele>761.2</ele>
        <time>2024-05-08T11:00:21Z</time>
      </trkpt>
      <trkpt lat="47.29054" lon="6.88072">
        <ele>761.3</ele>
        <time>2024-05-08T11:00:32Z</time>
      </trkpt>
      <trkpt lat="47.29023" lon="6.88068">
        <ele>760.9</ele>
        <time>2024-05-08T11:00:43Z</time>
      </trkpt>
      <trkpt lat="47.28999" lon="6.88063">
        <ele>761</ele>
        <time>2024-05-08T11:00:53Z</time>
      </trkpt>
      <trkpt lat="47.28976" lon="6.88055">
        <ele>761.2</ele>
        <time>2024-05-08T11:01:03Z</time>
      </trkpt>
      <trkpt lat="47.28951" lon="6.88054">
        <ele>761.5</ele>
        <time>2024-05-08T11:01:13Z</time>
      </trkpt>
      <trkpt lat="47.28926" lon="6.88052">
        <ele>761.6</ele>
        <time>2024-05-08T11:01:24Z</time>
      </trkpt>
      <trkpt lat="47.28902" lon="6.88048">
        <ele>761.8</ele>
        <time>2024-05-08T11:01:35Z</time>
      </trkpt>
      <trkpt lat="47.28873" lon="6.88039">
        <ele>762.2</ele>
        <time>2024-05-08T11:01:46Z</time>
      </trkpt>
      <trkpt lat="47.28847" lon="6.8804">
        <ele>762.3</ele>
        <time>2024-05-08T11:01:56Z</time>
      </trkpt>
      <trkpt lat="47.28826" lon="6.8804">
        <ele>763</ele>
        <time>2024-05-08T11:02:07Z</time>
      </trkpt>
      <trkpt lat="47.28817" lon="6.88036">
        <ele>763.4</ele>
        <time>2024-05-08T11:02:17Z</time>
      </trkpt>
      <trkpt lat="47.28787" lon="6.88025">
        <ele>764.5</ele>
        <time>2024-05-08T11:02:28Z</time>
      </trkpt>
      <trkpt lat="47.28765" lon="6.88022">
        <ele>764.5</ele>
        <time>2024-05-08T11:02:38Z</time>
      </trkpt>
      <trkpt lat="47.28739" lon="6.8802">
        <ele>764.8</ele>
        <time>2024-05-08T11:02:49Z</time>
      </trkpt>
      <trkpt lat="47.28718" lon="6.88016">
        <ele>765.5</ele>
        <time>2024-05-08T11:02:59Z</time>
      </trkpt>
      <trkpt lat="47.28695" lon="6.88007">
        <ele>766.6</ele>
        <time>2024-05-08T11:03:10Z</time>
      </trkpt>
      <trkpt lat="47.28671" lon="6.88003">
        <ele>767.4</ele>
        <time>2024-05-08T11:03:21Z</time>
      </trkpt>
      <trkpt lat="47.28641" lon="6.88002">
        <ele>767</ele>
        <time>2024-05-08T11:03:31Z</time>
      </trkpt>
      <trkpt lat="47.2861" lon="6.87997">
        <ele>767.7</ele>
        <time>2024-05-08T11:03:42Z</time>
      </trkpt>
      <trkpt lat="47.28576" lon="6.87972">
        <ele>767.8</ele>
        <time>2024-05-08T11:03:53Z</time>
      </trkpt>
      <trkpt lat="47.28545" lon="6.87935">
        <ele>768</ele>
        <time>2024-05-08T11:04:04Z</time>
      </trkpt>
      <trkpt lat="47.28509" lon="6.87906">
        <ele>767.2</ele>
        <time>2024-05-08T11:04:15Z</time>
      </trkpt>
      <trkpt lat="47.28491" lon="6.87918">
        <ele>767.1</ele>
        <time>2024-05-08T11:04:26Z</time>
      </trkpt>
      <trkpt lat="47.28476" lon="6.87934">
        <ele>767.3</ele>
        <time>2024-05-08T11:04:37Z</time>
      </trkpt>
      <trkpt lat="47.28466" lon="6.87959">
        <ele>767.8</ele>
        <time>2024-05-08T11:04:47Z</time>
      </trkpt>
      <trkpt lat="47.28473" lon="6.87997">
        <ele>769.1</ele>
        <time>2024-05-08T11:04:57Z</time>
      </trkpt>
      <trkpt lat="47.28476" lon="6.8803">
        <ele>770.2</ele>
        <time>2024-05-08T11:05:08Z</time>
      </trkpt>
      <trkpt lat="47.28482" lon="6.88072">
        <ele>771.5</ele>
        <time>2024-05-08T11:05:20Z</time>
      </trkpt>
      <trkpt lat="47.28489" lon="6.8812">
        <ele>772.6</ele>
        <time>2024-05-08T11:05:31Z</time>
      </trkpt>
      <trkpt lat="47.28496" lon="6.88165">
        <ele>773.6</ele>
        <time>2024-05-08T11:05:41Z</time>
      </trkpt>
      <trkpt lat="47.28501" lon="6.88211">
        <ele>774.3</ele>
        <time>2024-05-08T11:05:51Z</time>
      </trkpt>
      <trkpt lat="47.28505" lon="6.88258">
        <ele>775.2</ele>
        <time>2024-05-08T11:06:01Z</time>
      </trkpt>
      <trkpt lat="47.28508" lon="6.88318">
        <ele>776.1</ele>
        <time>2024-05-08T11:06:12Z</time>
      </trkpt>
      <trkpt lat="47.28511" lon="6.88371">
        <ele>777.3</ele>
        <time>2024-05-08T11:06:22Z</time>
      </trkpt>
      <trkpt lat="47.28515" lon="6.88427">
        <ele>778.5</ele>
        <time>2024-05-08T11:06:33Z</time>
      </trkpt>
      <trkpt lat="47.28517" lon="6.88478">
        <ele>779.7</ele>
        <time>2024-05-08T11:06:43Z</time>
      </trkpt>
      <trkpt lat="47.28518" lon="6.88538">
        <ele>781.1</ele>
        <time>2024-05-08T11:06:54Z</time>
      </trkpt>
      <trkpt lat="47.28518" lon="6.88591">
        <ele>782.4</ele>
        <time>2024-05-08T11:07:04Z</time>
      </trkpt>
      <trkpt lat="47.28524" lon="6.88647">
        <ele>783.9</ele>
        <time>2024-05-08T11:07:15Z</time>
      </trkpt>
      <trkpt lat="47.28526" lon="6.88703">
        <ele>785.3</ele>
        <time>2024-05-08T11:07:25Z</time>
      </trkpt>
      <trkpt lat="47.28532" lon="6.88757">
        <ele>786.9</ele>
        <time>2024-05-08T11:07:36Z</time>
      </trkpt>
      <trkpt lat="47.2853" lon="6.88808">
        <ele>788.7</ele>
        <time>2024-05-08T11:07:46Z</time>
      </trkpt>
      <trkpt lat="47.28524" lon="6.88835">
        <ele>790.7</ele>
        <time>2024-05-08T11:07:56Z</time>
      </trkpt>
      <trkpt lat="47.2852" lon="6.88855">
        <ele>792.6</ele>
        <time>2024-05-08T11:08:07Z</time>
      </trkpt>
      <trkpt lat="47.28513" lon="6.88873">
        <ele>794.6</ele>
        <time>2024-05-08T11:08:17Z</time>
      </trkpt>
      <trkpt lat="47.28505" lon="6.88894">
        <ele>796.9</ele>
        <time>2024-05-08T11:08:28Z</time>
      </trkpt>
      <trkpt lat="47.285" lon="6.88913">
        <ele>798.9</ele>
        <time>2024-05-08T11:08:39Z</time>
      </trkpt>
      <trkpt lat="47.28498" lon="6.88934">
        <ele>801</ele>
        <time>2024-05-08T11:08:49Z</time>
      </trkpt>
      <trkpt lat="47.28493" lon="6.88951">
        <ele>802.9</ele>
        <time>2024-05-08T11:09:00Z</time>
      </trkpt>
      <trkpt lat="47.28489" lon="6.88973">
        <ele>805</ele>
        <time>2024-05-08T11:09:10Z</time>
      </trkpt>
      <trkpt lat="47.28487" lon="6.88994">
        <ele>806.7</ele>
        <time>2024-05-08T11:09:21Z</time>
      </trkpt>
      <trkpt lat="47.28484" lon="6.89013">
        <ele>808.2</ele>
        <time>2024-05-08T11:09:31Z</time>
      </trkpt>
      <trkpt lat="47.28476" lon="6.89036">
        <ele>810.2</ele>
        <time>2024-05-08T11:09:42Z</time>
      </trkpt>
      <trkpt lat="47.28468" lon="6.89054">
        <ele>811.9</ele>
        <time>2024-05-08T11:09:53Z</time>
      </trkpt>
      <trkpt lat="47.28455" lon="6.89067">
        <ele>813.5</ele>
        <time>2024-05-08T11:10:03Z</time>
      </trkpt>
      <trkpt lat="47.28442" lon="6.89077">
        <ele>814.6</ele>
        <time>2024-05-08T11:10:14Z</time>
      </trkpt>
      <trkpt lat="47.28425" lon="6.89086">
        <ele>815.3</ele>
        <time>2024-05-08T11:10:24Z</time>
      </trkpt>
      <trkpt lat="47.28403" lon="6.89084">
        <ele>815.8</ele>
        <time>2024-05-08T11:10:34Z</time>
      </trkpt>
      <trkpt lat="47.28373" lon="6.89076">
        <ele>815.8</ele>
        <time>2024-05-08T11:10:45Z</time>
      </trkpt>
      <trkpt lat="47.28341" lon="6.89071">
        <ele>815.1</ele>
        <time>2024-05-08T11:10:56Z</time>
      </trkpt>
      <trkpt lat="47.28312" lon="6.89069">
        <ele>813.7</ele>
        <time>2024-05-08T11:11:06Z</time>
      </trkpt>
      <trkpt lat="47.28279" lon="6.8907">
        <ele>811.4</ele>
        <time>2024-05-08T11:11:17Z</time>
      </trkpt>
      <trkpt lat="47.28254" lon="6.89079">
        <ele>808.8</ele>
        <time>2024-05-08T11:11:28Z</time>
      </trkpt>
      <trkpt lat="47.28234" lon="6.89103">
        <ele>805.7</ele>
        <time>2024-05-08T11:11:39Z</time>
      </trkpt>
      <trkpt lat="47.28218" lon="6.89129">
        <ele>802.6</ele>
        <time>2024-05-08T11:11:49Z</time>
      </trkpt>
      <trkpt lat="47.28205" lon="6.89183">
        <ele>799.6</ele>
        <time>2024-05-08T11:12:00Z</time>
      </trkpt>
      <trkpt lat="47.28197" lon="6.89226">
        <ele>799.3</ele>
        <time>2024-05-08T11:12:10Z</time>
      </trkpt>
      <trkpt lat="47.28191" lon="6.89267">
        <ele>799.7</ele>
        <time>2024-05-08T11:12:21Z</time>
      </trkpt>
      <trkpt lat="47.28185" lon="6.89292">
        <ele>800.1</ele>
        <time>2024-05-08T11:12:32Z</time>
      </trkpt>
      <trkpt lat="47.28164" lon="6.89313">
        <ele>800.8</ele>
        <time>2024-05-08T11:12:43Z</time>
      </trkpt>
      <trkpt lat="47.28149" lon="6.89317">
        <ele>802.3</ele>
        <time>2024-05-08T11:12:53Z</time>
      </trkpt>
      <trkpt lat="47.28138" lon="6.89319">
        <ele>803.7</ele>
        <time>2024-05-08T11:13:03Z</time>
      </trkpt>
      <trkpt lat="47.28124" lon="6.8931">
        <ele>805.6</ele>
        <time>2024-05-08T11:13:13Z</time>
      </trkpt>
      <trkpt lat="47.28115" lon="6.89293">
        <ele>806.9</ele>
        <time>2024-05-08T11:13:24Z</time>
      </trkpt>
      <trkpt lat="47.28108" lon="6.89272">
        <ele>808</ele>
        <time>2024-05-08T11:13:35Z</time>
      </trkpt>
      <trkpt lat="47.28101" lon="6.89244">
        <ele>809.3</ele>
        <time>2024-05-08T11:13:46Z</time>
      </trkpt>
      <trkpt lat="47.28093" lon="6.8922">
        <ele>810.5</ele>
        <time>2024-05-08T11:13:57Z</time>
      </trkpt>
      <trkpt lat="47.28085" lon="6.89195">
        <ele>811.5</ele>
        <time>2024-05-08T11:14:07Z</time>
      </trkpt>
      <trkpt lat="47.28087" lon="6.89174">
        <ele>812.2</ele>
        <time>2024-05-08T11:14:17Z</time>
      </trkpt>
      <trkpt lat="47.28088" lon="6.89153">
        <ele>812.8</ele>
        <time>2024-05-08T11:14:28Z</time>
      </trkpt>
      <trkpt lat="47.28087" lon="6.89124">
        <ele>813.4</ele>
        <time>2024-05-08T11:14:39Z</time>
      </trkpt>
      <trkpt lat="47.2809" lon="6.89079">
        <ele>813</ele>
        <time>2024-05-08T11:14:50Z</time>
      </trkpt>
      <trkpt lat="47.28094" lon="6.89026">
        <ele>811.3</ele>
        <time>2024-05-08T11:15:00Z</time>
      </trkpt>
      <trkpt lat="47.28101" lon="6.88987">
        <ele>810.7</ele>
        <time>2024-05-08T11:15:11Z</time>
      </trkpt>
      <trkpt lat="47.28113" lon="6.88949">
        <ele>810</ele>
        <time>2024-05-08T11:15:22Z</time>
      </trkpt>
      <trkpt lat="47.28117" lon="6.88914">
        <ele>809</ele>
        <time>2024-05-08T11:15:33Z</time>
      </trkpt>
      <trkpt lat="47.28115" lon="6.88887">
        <ele>808.6</ele>
        <time>2024-05-08T11:15:43Z</time>
      </trkpt>
      <trkpt lat="47.28114" lon="6.8886">
        <ele>808.7</ele>
        <time>2024-05-08T11:15:53Z</time>
      </trkpt>
      <trkpt lat="47.28114" lon="6.88827">
        <ele>809.2</ele>
        <time>2024-05-08T11:16:04Z</time>
      </trkpt>
      <trkpt lat="47.28113" lon="6.88792">
        <ele>810.3</ele>
        <time>2024-05-08T11:16:15Z</time>
      </trkpt>
      <trkpt lat="47.28107" lon="6.8876">
        <ele>811.5</ele>
        <time>2024-05-08T11:16:26Z</time>
      </trkpt>
      <trkpt lat="47.28103" lon="6.8873">
        <ele>812.5</ele>
        <time>2024-05-08T11:16:36Z</time>
      </trkpt>
      <trkpt lat="47.281" lon="6.88706">
        <ele>813.2</ele>
        <time>2024-05-08T11:16:47Z</time>
      </trkpt>
      <trkpt lat="47.28094" lon="6.88682">
        <ele>814.1</ele>
        <time>2024-05-08T11:16:57Z</time>
      </trkpt>
      <trkpt lat="47.28092" lon="6.8866">
        <ele>814.9</ele>
        <time>2024-05-08T11:17:08Z</time>
      </trkpt>
      <trkpt lat="47.28091" lon="6.88643">
        <ele>815.6</ele>
        <time>2024-05-08T11:17:18Z</time>
      </trkpt>
      <trkpt lat="47.28091" lon="6.88611">
        <ele>817.3</ele>
        <time>2024-05-08T11:17:28Z</time>
      </trkpt>
      <trkpt lat="47.28088" lon="6.88582">
        <ele>819.3</ele>
        <time>2024-05-08T11:17:39Z</time>
      </trkpt>
      <trkpt lat="47.28086" lon="6.88549">
        <ele>821.7</ele>
        <time>2024-05-08T11:17:50Z</time>
      </trkpt>
      <trkpt lat="47.2808" lon="6.88505">
        <ele>824.5</ele>
        <time>2024-05-08T11:18:01Z</time>
      </trkpt>
      <trkpt lat="47.28067" lon="6.88458">
        <ele>827.2</ele>
        <time>2024-05-08T11:18:12Z</time>
      </trkpt>
      <trkpt lat="47.28047" lon="6.88414">
        <ele>829</ele>
        <time>2024-05-08T11:18:23Z</time>
      </trkpt>
      <trkpt lat="47.28029" lon="6.88388">
        <ele>829.4</ele>
        <time>2024-05-08T11:18:34Z</time>
      </trkpt>
      <trkpt lat="47.28024" lon="6.88406">
        <ele>828.7</ele>
        <time>2024-05-08T11:18:45Z</time>
      </trkpt>
      <trkpt lat="47.28013" lon="6.88426">
        <ele>829</ele>
        <time>2024-05-08T11:18:56Z</time>
      </trkpt>
      <trkpt lat="47.28004" lon="6.88447">
        <ele>830.4</ele>
        <time>2024-05-08T11:19:07Z</time>
      </trkpt>
      <trkpt lat="47.27994" lon="6.88467">
        <ele>831.9</ele>
        <time>2024-05-08T11:19:17Z</time>
      </trkpt>
      <trkpt lat="47.27981" lon="6.88485">
        <ele>833.4</ele>
        <time>2024-05-08T11:19:28Z</time>
      </trkpt>
      <trkpt lat="47.27969" lon="6.88501">
        <ele>834.5</ele>
        <time>2024-05-08T11:19:39Z</time>
      </trkpt>
      <trkpt lat="47.27956" lon="6.88529">
        <ele>835.5</ele>
        <time>2024-05-08T11:19:50Z</time>
      </trkpt>
      <trkpt lat="47.27942" lon="6.88554">
        <ele>836.6</ele>
        <time>2024-05-08T11:20:01Z</time>
      </trkpt>
      <trkpt lat="47.27931" lon="6.88578">
        <ele>837.9</ele>
        <time>2024-05-08T11:20:12Z</time>
      </trkpt>
      <trkpt lat="47.27918" lon="6.88606">
        <ele>839.7</ele>
        <time>2024-05-08T11:20:22Z</time>
      </trkpt>
      <trkpt lat="47.27909" lon="6.88627">
        <ele>841.1</ele>
        <time>2024-05-08T11:20:32Z</time>
      </trkpt>
      <trkpt lat="47.27898" lon="6.8865">
        <ele>842.7</ele>
        <time>2024-05-08T11:20:43Z</time>
      </trkpt>
      <trkpt lat="47.27889" lon="6.88675">
        <ele>844.3</ele>
        <time>2024-05-08T11:20:53Z</time>
      </trkpt>
      <trkpt lat="47.27879" lon="6.887">
        <ele>845.5</ele>
        <time>2024-05-08T11:21:04Z</time>
      </trkpt>
      <trkpt lat="47.27871" lon="6.88726">
        <ele>846.4</ele>
        <time>2024-05-08T11:21:14Z</time>
      </trkpt>
      <trkpt lat="47.2786" lon="6.88757">
        <ele>847.6</ele>
        <time>2024-05-08T11:21:25Z</time>
      </trkpt>
      <trkpt lat="47.27854" lon="6.88781">
        <ele>848.9</ele>
        <time>2024-05-08T11:21:35Z</time>
      </trkpt>
      <trkpt lat="47.27848" lon="6.88808">
        <ele>850.3</ele>
        <time>2024-05-08T11:21:46Z</time>
      </trkpt>
      <trkpt lat="47.27842" lon="6.88836">
        <ele>851.4</ele>
        <time>2024-05-08T11:21:56Z</time>
      </trkpt>
      <trkpt lat="47.27836" lon="6.88869">
        <ele>852.4</ele>
        <time>2024-05-08T11:22:07Z</time>
      </trkpt>
      <trkpt lat="47.27829" lon="6.889">
        <ele>853.2</ele>
        <time>2024-05-08T11:22:17Z</time>
      </trkpt>
      <trkpt lat="47.2782" lon="6.88934">
        <ele>853.8</ele>
        <time>2024-05-08T11:22:28Z</time>
      </trkpt>
      <trkpt lat="47.2781" lon="6.88971">
        <ele>853.9</ele>
        <time>2024-05-08T11:22:39Z</time>
      </trkpt>
      <trkpt lat="47.27799" lon="6.89004">
        <ele>853.6</ele>
        <time>2024-05-08T11:22:49Z</time>
      </trkpt>
      <trkpt lat="47.27775" lon="6.89045">
        <ele>852.8</ele>
        <time>2024-05-08T11:23:00Z</time>
      </trkpt>
      <trkpt lat="47.27764" lon="6.89085">
        <ele>852.7</ele>
        <time>2024-05-08T11:23:10Z</time>
      </trkpt>
      <trkpt lat="47.27764" lon="6.89129">
        <ele>853.4</ele>
        <time>2024-05-08T11:23:21Z</time>
      </trkpt>
      <trkpt lat="47.27765" lon="6.8916">
        <ele>854.4</ele>
        <time>2024-05-08T11:23:31Z</time>
      </trkpt>
      <trkpt lat="47.27765" lon="6.89203">
        <ele>855.4</ele>
        <time>2024-05-08T11:23:42Z</time>
      </trkpt>
      <trkpt lat="47.27762" lon="6.8924">
        <ele>855.9</ele>
        <time>2024-05-08T11:23:52Z</time>
      </trkpt>
      <trkpt lat="47.27759" lon="6.89283">
        <ele>856</ele>
        <time>2024-05-08T11:24:02Z</time>
      </trkpt>
      <trkpt lat="47.27756" lon="6.89323">
        <ele>856.2</ele>
        <time>2024-05-08T11:24:13Z</time>
      </trkpt>
      <trkpt lat="47.27752" lon="6.89367">
        <ele>856.8</ele>
        <time>2024-05-08T11:24:23Z</time>
      </trkpt>
      <trkpt lat="47.27749" lon="6.89406">
        <ele>857.4</ele>
        <time>2024-05-08T11:24:33Z</time>
      </trkpt>
      <trkpt lat="47.27757" lon="6.8944">
        <ele>858.4</ele>
        <time>2024-05-08T11:24:43Z</time>
      </trkpt>
      <trkpt lat="47.27762" lon="6.8947">
        <ele>859.2</ele>
        <time>2024-05-08T11:24:53Z</time>
      </trkpt>
      <trkpt lat="47.27766" lon="6.89504">
        <ele>859.6</ele>
        <time>2024-05-08T11:25:03Z</time>
      </trkpt>
      <trkpt lat="47.27769" lon="6.89548">
        <ele>859.2</ele>
        <time>2024-05-08T11:25:14Z</time>
      </trkpt>
      <trkpt lat="47.27778" lon="6.89575">
        <ele>858.7</ele>
        <time>2024-05-08T11:25:24Z</time>
      </trkpt>
      <trkpt lat="47.27808" lon="6.89587">
        <ele>856.1</ele>
        <time>2024-05-08T11:25:35Z</time>
      </trkpt>
      <trkpt lat="47.27843" lon="6.89601">
        <ele>854.9</ele>
        <time>2024-05-08T11:25:46Z</time>
      </trkpt>
      <trkpt lat="47.2786" lon="6.89626">
        <ele>855.6</ele>
        <time>2024-05-08T11:25:57Z</time>
      </trkpt>
      <trkpt lat="47.27855" lon="6.8965">
        <ele>856.7</ele>
        <time>2024-05-08T11:26:08Z</time>
      </trkpt>
      <trkpt lat="47.2783" lon="6.89671">
        <ele>855.1</ele>
        <time>2024-05-08T11:26:19Z</time>
      </trkpt>
      <trkpt lat="47.27784" lon="6.89703">
        <ele>850.8</ele>
        <time>2024-05-08T11:26:30Z</time>
      </trkpt>
      <trkpt lat="47.27752" lon="6.89749">
        <ele>848.4</ele>
        <time>2024-05-08T11:26:40Z</time>
      </trkpt>
      <trkpt lat="47.27738" lon="6.89753">
        <ele>847.8</ele>
        <time>2024-05-08T11:26:51Z</time>
      </trkpt>
      <trkpt lat="47.27738" lon="6.89754">
        <ele>847.8</ele>
        <time>2024-05-08T11:27:01Z</time>
      </trkpt>
      <trkpt lat="47.27738" lon="6.89754">
        <ele>847.8</ele>
        <time>2024-05-08T11:27:12Z</time>
      </trkpt>
      <trkpt lat="47.27737" lon="6.89756">
        <ele>847.7</ele>
        <time>2024-05-08T11:27:23Z</time>
      </trkpt>
      <trkpt lat="47.27737" lon="6.89756">
        <ele>847.7</ele>
        <time>2024-05-08T11:27:34Z</time>
      </trkpt>
      <trkpt lat="47.27732" lon="6.89776">
        <ele>847.2</ele>
        <time>2024-05-08T11:27:44Z</time>
      </trkpt>
      <trkpt lat="47.2774" lon="6.89825">
        <ele>847.4</ele>
        <time>2024-05-08T11:27:54Z</time>
      </trkpt>
      <trkpt lat="47.2775" lon="6.89882">
        <ele>848</ele>
        <time>2024-05-08T11:28:05Z</time>
      </trkpt>
      <trkpt lat="47.2776" lon="6.89941">
        <ele>848.6</ele>
        <time>2024-05-08T11:28:16Z</time>
      </trkpt>
      <trkpt lat="47.27765" lon="6.89994">
        <ele>849.2</ele>
        <time>2024-05-08T11:28:26Z</time>
      </trkpt>
      <trkpt lat="47.27777" lon="6.90056">
        <ele>850</ele>
        <time>2024-05-08T11:28:37Z</time>
      </trkpt>
      <trkpt lat="47.27791" lon="6.90111">
        <ele>850.6</ele>
        <time>2024-05-08T11:28:47Z</time>
      </trkpt>
      <trkpt lat="47.27811" lon="6.90167">
        <ele>851.1</ele>
        <time>2024-05-08T11:28:58Z</time>
      </trkpt>
      <trkpt lat="47.27834" lon="6.90225">
        <ele>851</ele>
        <time>2024-05-08T11:29:08Z</time>
      </trkpt>
      <trkpt lat="47.27856" lon="6.90284">
        <ele>850.7</ele>
        <time>2024-05-08T11:29:18Z</time>
      </trkpt>
      <trkpt lat="47.27875" lon="6.90354">
        <ele>850.7</ele>
        <time>2024-05-08T11:29:29Z</time>
      </trkpt>
      <trkpt lat="47.27891" lon="6.90422">
        <ele>851.1</ele>
        <time>2024-05-08T11:29:40Z</time>
      </trkpt>
      <trkpt lat="47.27906" lon="6.90482">
        <ele>851.5</ele>
        <time>2024-05-08T11:29:50Z</time>
      </trkpt>
      <trkpt lat="47.27919" lon="6.90539">
        <ele>852.5</ele>
        <time>2024-05-08T11:30:00Z</time>
      </trkpt>
      <trkpt lat="47.27932" lon="6.90591">
        <ele>853.7</ele>
        <time>2024-05-08T11:30:11Z</time>
      </trkpt>
      <trkpt lat="47.27945" lon="6.90646">
        <ele>855</ele>
        <time>2024-05-08T11:30:21Z</time>
      </trkpt>
      <trkpt lat="47.27956" lon="6.90701">
        <ele>856.2</ele>
        <time>2024-05-08T11:30:32Z</time>
      </trkpt>
      <trkpt lat="47.27966" lon="6.90751">
        <ele>857.3</ele>
        <time>2024-05-08T11:30:42Z</time>
      </trkpt>
      <trkpt lat="47.27975" lon="6.90809">
        <ele>858.2</ele>
        <time>2024-05-08T11:30:53Z</time>
      </trkpt>
      <trkpt lat="47.27985" lon="6.90867">
        <ele>859</ele>
        <time>2024-05-08T11:31:04Z</time>
      </trkpt>
      <trkpt lat="47.27992" lon="6.9092">
        <ele>859.9</ele>
        <time>2024-05-08T11:31:14Z</time>
      </trkpt>
      <trkpt lat="47.28002" lon="6.90971">
        <ele>861.1</ele>
        <time>2024-05-08T11:31:25Z</time>
      </trkpt>
      <trkpt lat="47.28016" lon="6.91025">
        <ele>862.1</ele>
        <time>2024-05-08T11:31:35Z</time>
      </trkpt>
      <trkpt lat="47.28002" lon="6.91061">
        <ele>863.1</ele>
        <time>2024-05-08T11:31:46Z</time>
      </trkpt>
      <trkpt lat="47.27963" lon="6.91044">
        <ele>864.4</ele>
        <time>2024-05-08T11:31:57Z</time>
      </trkpt>
      <trkpt lat="47.27937" lon="6.91031">
        <ele>866.6</ele>
        <time>2024-05-08T11:32:07Z</time>
      </trkpt>
      <trkpt lat="47.27925" lon="6.91059">
        <ele>868.5</ele>
        <time>2024-05-08T11:32:18Z</time>
      </trkpt>
      <trkpt lat="47.27932" lon="6.91094">
        <ele>871</ele>
        <time>2024-05-08T11:32:29Z</time>
      </trkpt>
      <trkpt lat="47.27939" lon="6.91124">
        <ele>873.3</ele>
        <time>2024-05-08T11:32:39Z</time>
      </trkpt>
      <trkpt lat="47.27946" lon="6.91159">
        <ele>875.8</ele>
        <time>2024-05-08T11:32:50Z</time>
      </trkpt>
      <trkpt lat="47.27953" lon="6.91196">
        <ele>877.4</ele>
        <time>2024-05-08T11:33:00Z</time>
      </trkpt>
      <trkpt lat="47.27952" lon="6.91242">
        <ele>878.4</ele>
        <time>2024-05-08T11:33:11Z</time>
      </trkpt>
      <trkpt lat="47.27951" lon="6.91297">
        <ele>877.8</ele>
        <time>2024-05-08T11:33:22Z</time>
      </trkpt>
      <trkpt lat="47.27944" lon="6.91368">
        <ele>874.2</ele>
        <time>2024-05-08T11:33:33Z</time>
      </trkpt>
      <trkpt lat="47.27942" lon="6.91446">
        <ele>870.5</ele>
        <time>2024-05-08T11:33:44Z</time>
      </trkpt>
      <trkpt lat="47.27905" lon="6.91483">
        <ele>866.5</ele>
        <time>2024-05-08T11:33:54Z</time>
      </trkpt>
      <trkpt lat="47.27873" lon="6.91509">
        <ele>866</ele>
        <time>2024-05-08T11:34:05Z</time>
      </trkpt>
      <trkpt lat="47.27833" lon="6.91507">
        <ele>867</ele>
        <time>2024-05-08T11:34:15Z</time>
      </trkpt>
      <trkpt lat="47.27792" lon="6.91506">
        <ele>867.9</ele>
        <time>2024-05-08T11:34:25Z</time>
      </trkpt>
      <trkpt lat="47.27747" lon="6.91506">
        <ele>869</ele>
        <time>2024-05-08T11:34:36Z</time>
      </trkpt>
      <trkpt lat="47.27709" lon="6.91501">
        <ele>870.4</ele>
        <time>2024-05-08T11:34:47Z</time>
      </trkpt>
      <trkpt lat="47.27675" lon="6.91496">
        <ele>872.4</ele>
        <time>2024-05-08T11:34:58Z</time>
      </trkpt>
      <trkpt lat="47.27647" lon="6.91496">
        <ele>874.4</ele>
        <time>2024-05-08T11:35:08Z</time>
      </trkpt>
      <trkpt lat="47.27619" lon="6.91489">
        <ele>876.6</ele>
        <time>2024-05-08T11:35:19Z</time>
      </trkpt>
      <trkpt lat="47.27597" lon="6.91483">
        <ele>878.6</ele>
        <time>2024-05-08T11:35:29Z</time>
      </trkpt>
      <trkpt lat="47.27574" lon="6.91479">
        <ele>880.9</ele>
        <time>2024-05-08T11:35:40Z</time>
      </trkpt>
      <trkpt lat="47.27552" lon="6.91479">
        <ele>882.9</ele>
        <time>2024-05-08T11:35:50Z</time>
      </trkpt>
      <trkpt lat="47.2753" lon="6.91482">
        <ele>885</ele>
        <time>2024-05-08T11:36:01Z</time>
      </trkpt>
      <trkpt lat="47.27505" lon="6.91478">
        <ele>887.3</ele>
        <time>2024-05-08T11:36:11Z</time>
      </trkpt>
      <trkpt lat="47.27484" lon="6.91457">
        <ele>889.6</ele>
        <time>2024-05-08T11:36:22Z</time>
      </trkpt>
      <trkpt lat="47.2747" lon="6.91432">
        <ele>891.4</ele>
        <time>2024-05-08T11:36:32Z</time>
      </trkpt>
      <trkpt lat="47.27456" lon="6.91408">
        <ele>893.1</ele>
        <time>2024-05-08T11:36:42Z</time>
      </trkpt>
      <trkpt lat="47.27439" lon="6.91388">
        <ele>895.1</ele>
        <time>2024-05-08T11:36:52Z</time>
      </trkpt>
      <trkpt lat="47.27421" lon="6.91372">
        <ele>896.6</ele>
        <time>2024-05-08T11:37:03Z</time>
      </trkpt>
      <trkpt lat="47.27402" lon="6.91359">
        <ele>896.9</ele>
        <time>2024-05-08T11:37:13Z</time>
      </trkpt>
      <trkpt lat="47.27384" lon="6.91357">
        <ele>896.7</ele>
        <time>2024-05-08T11:37:24Z</time>
      </trkpt>
      <trkpt lat="47.27351" lon="6.91351">
        <ele>896.6</ele>
        <time>2024-05-08T11:37:36Z</time>
      </trkpt>
      <trkpt lat="47.27314" lon="6.91336">
        <ele>896.8</ele>
        <time>2024-05-08T11:37:47Z</time>
      </trkpt>
      <trkpt lat="47.2728" lon="6.91324">
        <ele>897.7</ele>
        <time>2024-05-08T11:37:57Z</time>
      </trkpt>
      <trkpt lat="47.27248" lon="6.91312">
        <ele>899.3</ele>
        <time>2024-05-08T11:38:07Z</time>
      </trkpt>
      <trkpt lat="47.27215" lon="6.91301">
        <ele>901.2</ele>
        <time>2024-05-08T11:38:17Z</time>
      </trkpt>
      <trkpt lat="47.27185" lon="6.91294">
        <ele>902.6</ele>
        <time>2024-05-08T11:38:27Z</time>
      </trkpt>
      <trkpt lat="47.27148" lon="6.91289">
        <ele>903</ele>
        <time>2024-05-08T11:38:38Z</time>
      </trkpt>
      <trkpt lat="47.27104" lon="6.9129">
        <ele>902.4</ele>
        <time>2024-05-08T11:38:49Z</time>
      </trkpt>
      <trkpt lat="47.27065" lon="6.91295">
        <ele>902.2</ele>
        <time>2024-05-08T11:38:59Z</time>
      </trkpt>
      <trkpt lat="47.27033" lon="6.91307">
        <ele>902.8</ele>
        <time>2024-05-08T11:39:09Z</time>
      </trkpt>
      <trkpt lat="47.27001" lon="6.91319">
        <ele>903.2</ele>
        <time>2024-05-08T11:39:20Z</time>
      </trkpt>
      <trkpt lat="47.26962" lon="6.91342">
        <ele>903.4</ele>
        <time>2024-05-08T11:39:31Z</time>
      </trkpt>
      <trkpt lat="47.26944" lon="6.91395">
        <ele>903.2</ele>
        <time>2024-05-08T11:39:42Z</time>
      </trkpt>
      <trkpt lat="47.26923" lon="6.91459">
        <ele>903.1</ele>
        <time>2024-05-08T11:39:53Z</time>
      </trkpt>
      <trkpt lat="47.26919" lon="6.9152">
        <ele>903.6</ele>
        <time>2024-05-08T11:40:03Z</time>
      </trkpt>
      <trkpt lat="47.26926" lon="6.91575">
        <ele>904</ele>
        <time>2024-05-08T11:40:14Z</time>
      </trkpt>
      <trkpt lat="47.26931" lon="6.91645">
        <ele>905.5</ele>
        <time>2024-05-08T11:40:25Z</time>
      </trkpt>
      <trkpt lat="47.26929" lon="6.91686">
        <ele>907.9</ele>
        <time>2024-05-08T11:40:35Z</time>
      </trkpt>
      <trkpt lat="47.26919" lon="6.91703">
        <ele>909.9</ele>
        <time>2024-05-08T11:40:46Z</time>
      </trkpt>
      <trkpt lat="47.26909" lon="6.91722">
        <ele>912.5</ele>
        <time>2024-05-08T11:40:57Z</time>
      </trkpt>
      <trkpt lat="47.2691" lon="6.91738">
        <ele>914.5</ele>
        <time>2024-05-08T11:41:07Z</time>
      </trkpt>
      <trkpt lat="47.26919" lon="6.91754">
        <ele>916.9</ele>
        <time>2024-05-08T11:41:18Z</time>
      </trkpt>
      <trkpt lat="47.26933" lon="6.91767">
        <ele>919.4</ele>
        <time>2024-05-08T11:41:28Z</time>
      </trkpt>
      <trkpt lat="47.26949" lon="6.9178">
        <ele>921.9</ele>
        <time>2024-05-08T11:41:39Z</time>
      </trkpt>
      <trkpt lat="47.26943" lon="6.91797">
        <ele>923.5</ele>
        <time>2024-05-08T11:41:50Z</time>
      </trkpt>
      <trkpt lat="47.26934" lon="6.91811">
        <ele>924.9</ele>
        <time>2024-05-08T11:42:00Z</time>
      </trkpt>
      <trkpt lat="47.26926" lon="6.91836">
        <ele>927</ele>
        <time>2024-05-08T11:42:11Z</time>
      </trkpt>
      <trkpt lat="47.26914" lon="6.91859">
        <ele>929.9</ele>
        <time>2024-05-08T11:42:21Z</time>
      </trkpt>
      <trkpt lat="47.26911" lon="6.91881">
        <ele>932.9</ele>
        <time>2024-05-08T11:42:32Z</time>
      </trkpt>
      <trkpt lat="47.2691" lon="6.919">
        <ele>935.5</ele>
        <time>2024-05-08T11:42:43Z</time>
      </trkpt>
      <trkpt lat="47.26905" lon="6.91919">
        <ele>938.2</ele>
        <time>2024-05-08T11:42:54Z</time>
      </trkpt>
      <trkpt lat="47.26909" lon="6.91939">
        <ele>940.8</ele>
        <time>2024-05-08T11:43:05Z</time>
      </trkpt>
      <trkpt lat="47.26911" lon="6.9196">
        <ele>943.3</ele>
        <time>2024-05-08T11:43:15Z</time>
      </trkpt>
      <trkpt lat="47.26911" lon="6.91982">
        <ele>945.8</ele>
        <time>2024-05-08T11:43:26Z</time>
      </trkpt>
      <trkpt lat="47.26916" lon="6.92005">
        <ele>948.3</ele>
        <time>2024-05-08T11:43:37Z</time>
      </trkpt>
      <trkpt lat="47.26921" lon="6.92025">
        <ele>950.5</ele>
        <time>2024-05-08T11:43:47Z</time>
      </trkpt>
      <trkpt lat="47.26924" lon="6.92049">
        <ele>953.2</ele>
        <time>2024-05-08T11:43:58Z</time>
      </trkpt>
      <trkpt lat="47.26928" lon="6.9207">
        <ele>955.6</ele>
        <time>2024-05-08T11:44:08Z</time>
      </trkpt>
      <trkpt lat="47.2693" lon="6.92093">
        <ele>958.3</ele>
        <time>2024-05-08T11:44:19Z</time>
      </trkpt>
      <trkpt lat="47.26934" lon="6.92115">
        <ele>960.9</ele>
        <time>2024-05-08T11:44:30Z</time>
      </trkpt>
      <trkpt lat="47.2694" lon="6.92139">
        <ele>963.3</ele>
        <time>2024-05-08T11:44:41Z</time>
      </trkpt>
      <trkpt lat="47.26946" lon="6.92164">
        <ele>965.4</ele>
        <time>2024-05-08T11:44:52Z</time>
      </trkpt>
      <trkpt lat="47.26949" lon="6.92187">
        <ele>967.2</ele>
        <time>2024-05-08T11:45:02Z</time>
      </trkpt>
      <trkpt lat="47.26951" lon="6.92208">
        <ele>968.7</ele>
        <time>2024-05-08T11:45:12Z</time>
      </trkpt>
      <trkpt lat="47.26938" lon="6.92225">
        <ele>969.8</ele>
        <time>2024-05-08T11:45:23Z</time>
      </trkpt>
      <trkpt lat="47.26913" lon="6.92222">
        <ele>970.4</ele>
        <time>2024-05-08T11:45:33Z</time>
      </trkpt>
      <trkpt lat="47.26883" lon="6.92223">
        <ele>971.2</ele>
        <time>2024-05-08T11:45:44Z</time>
      </trkpt>
      <trkpt lat="47.26862" lon="6.92239">
        <ele>972.6</ele>
        <time>2024-05-08T11:45:54Z</time>
      </trkpt>
      <trkpt lat="47.26849" lon="6.92259">
        <ele>974.3</ele>
        <time>2024-05-08T11:46:05Z</time>
      </trkpt>
      <trkpt lat="47.26833" lon="6.92274">
        <ele>975.3</ele>
        <time>2024-05-08T11:46:15Z</time>
      </trkpt>
      <trkpt lat="47.26821" lon="6.92283">
        <ele>974.9</ele>
        <time>2024-05-08T11:46:26Z</time>
      </trkpt>
      <trkpt lat="47.2679" lon="6.92315">
        <ele>972.9</ele>
        <time>2024-05-08T11:46:36Z</time>
      </trkpt>
      <trkpt lat="47.26792" lon="6.92323">
        <ele>972.7</ele>
        <time>2024-05-08T11:46:47Z</time>
      </trkpt>
      <trkpt lat="47.26793" lon="6.92324">
        <ele>972.7</ele>
        <time>2024-05-08T11:46:57Z</time>
      </trkpt>
      <trkpt lat="47.26793" lon="6.92324">
        <ele>972.7</ele>
        <time>2024-05-08T11:47:07Z</time>
      </trkpt>
      <trkpt lat="47.26793" lon="6.92324">
        <ele>972.7</ele>
        <time>2024-05-08T11:47:18Z</time>
      </trkpt>
      <trkpt lat="47.26793" lon="6.92324">
        <ele>972.7</ele>
        <time>2024-05-08T11:47:29Z</time>
      </trkpt>
      <trkpt lat="47.26793" lon="6.92322">
        <ele>972.7</ele>
        <time>2024-05-08T11:47:39Z</time>
      </trkpt>
      <trkpt lat="47.26793" lon="6.92322">
        <ele>972.7</ele>
        <time>2024-05-08T11:47:50Z</time>
      </trkpt>
      <trkpt lat="47.26793" lon="6.92322">
        <ele>972.7</ele>
        <time>2024-05-08T11:48:00Z</time>
      </trkpt>
      <trkpt lat="47.26795" lon="6.9232">
        <ele>972.6</ele>
        <time>2024-05-08T11:48:11Z</time>
      </trkpt>
      <trkpt lat="47.26795" lon="6.9232">
        <ele>972.6</ele>
        <time>2024-05-08T11:48:22Z</time>
      </trkpt>
      <trkpt lat="47.26795" lon="6.9232">
        <ele>972.6</ele>
        <time>2024-05-08T11:48:33Z</time>
      </trkpt>
      <trkpt lat="47.26795" lon="6.9232">
        <ele>972.6</ele>
        <time>2024-05-08T11:48:43Z</time>
      </trkpt>
      <trkpt lat="47.26795" lon="6.9232">
        <ele>972.6</ele>
        <time>2024-05-08T11:48:53Z</time>
      </trkpt>
      <trkpt lat="47.26795" lon="6.9232">
        <ele>972.6</ele>
        <time>2024-05-08T11:49:04Z</time>
      </trkpt>
      <trkpt lat="47.26795" lon="6.9232">
        <ele>972.6</ele>
        <time>2024-05-08T11:49:15Z</time>
      </trkpt>
      <trkpt lat="47.26795" lon="6.9232">
        <ele>972.6</ele>
        <time>2024-05-08T11:49:25Z</time>
      </trkpt>
      <trkpt lat="47.26795" lon="6.9232">
        <ele>972.6</ele>
        <time>2024-05-08T11:49:35Z</time>
      </trkpt>
      <trkpt lat="47.26793" lon="6.9232">
        <ele>972.5</ele>
        <time>2024-05-08T11:49:46Z</time>
      </trkpt>
      <trkpt lat="47.26792" lon="6.92321">
        <ele>972.5</ele>
        <time>2024-05-08T11:49:57Z</time>
      </trkpt>
      <trkpt lat="47.26794" lon="6.9232">
        <ele>972.4</ele>
        <time>2024-05-08T11:50:08Z</time>
      </trkpt>
      <trkpt lat="47.26794" lon="6.9232">
        <ele>972.4</ele>
        <time>2024-05-08T11:50:19Z</time>
      </trkpt>
      <trkpt lat="47.26792" lon="6.92318">
        <ele>972.4</ele>
        <time>2024-05-08T11:50:30Z</time>
      </trkpt>
      <trkpt lat="47.26786" lon="6.92317">
        <ele>972.2</ele>
        <time>2024-05-08T11:50:41Z</time>
      </trkpt>
      <trkpt lat="47.26786" lon="6.92317">
        <ele>972.2</ele>
        <time>2024-05-08T11:50:52Z</time>
      </trkpt>
      <trkpt lat="47.26786" lon="6.92317">
        <ele>972.2</ele>
        <time>2024-05-08T11:51:02Z</time>
      </trkpt>
      <trkpt lat="47.26786" lon="6.92317">
        <ele>972.2</ele>
        <time>2024-05-08T11:51:13Z</time>
      </trkpt>
      <trkpt lat="47.26786" lon="6.92317">
        <ele>972.2</ele>
        <time>2024-05-08T11:51:23Z</time>
      </trkpt>
      <trkpt lat="47.26786" lon="6.92318">
        <ele>972.2</ele>
        <time>2024-05-08T11:51:34Z</time>
      </trkpt>
      <trkpt lat="47.26786" lon="6.92318">
        <ele>972.2</ele>
        <time>2024-05-08T11:51:44Z</time>
      </trkpt>
      <trkpt lat="47.26786" lon="6.92318">
        <ele>972.2</ele>
        <time>2024-05-08T11:51:55Z</time>
      </trkpt>
      <trkpt lat="47.26786" lon="6.92318">
        <ele>972.2</ele>
        <time>2024-05-08T11:52:06Z</time>
      </trkpt>
      <trkpt lat="47.26786" lon="6.92318">
        <ele>972.2</ele>
        <time>2024-05-08T11:52:17Z</time>
      </trkpt>
      <trkpt lat="47.26786" lon="6.92318">
        <ele>972.2</ele>
        <time>2024-05-08T11:52:27Z</time>
      </trkpt>
      <trkpt lat="47.26786" lon="6.92318">
        <ele>972.2</ele>
        <time>2024-05-08T11:52:38Z</time>
      </trkpt>
      <trkpt lat="47.26786" lon="6.92318">
        <ele>972.2</ele>
        <time>2024-05-08T11:52:49Z</time>
      </trkpt>
      <trkpt lat="47.26786" lon="6.92318">
        <ele>972.2</ele>
        <time>2024-05-08T11:52:59Z</time>
      </trkpt>
      <trkpt lat="47.26786" lon="6.92318">
        <ele>972.2</ele>
        <time>2024-05-08T11:53:10Z</time>
      </trkpt>
      <trkpt lat="47.26786" lon="6.92318">
        <ele>972.2</ele>
        <time>2024-05-08T11:53:20Z</time>
      </trkpt>
      <trkpt lat="47.26786" lon="6.92318">
        <ele>972.2</ele>
        <time>2024-05-08T11:53:31Z</time>
      </trkpt>
      <trkpt lat="47.26786" lon="6.92318">
        <ele>972.2</ele>
        <time>2024-05-08T11:53:42Z</time>
      </trkpt>
      <trkpt lat="47.26786" lon="6.92318">
        <ele>972.2</ele>
        <time>2024-05-08T11:53:52Z</time>
      </trkpt>
      <trkpt lat="47.26786" lon="6.92318">
        <ele>972.2</ele>
        <time>2024-05-08T11:54:02Z</time>
      </trkpt>
      <trkpt lat="47.26786" lon="6.92318">
        <ele>972.2</ele>
        <time>2024-05-08T11:54:13Z</time>
      </trkpt>
      <trkpt lat="47.26786" lon="6.92318">
        <ele>972.2</ele>
        <time>2024-05-08T11:54:23Z</time>
      </trkpt>
      <trkpt lat="47.26786" lon="6.92318">
        <ele>972.2</ele>
        <time>2024-05-08T11:54:34Z</time>
      </trkpt>
      <trkpt lat="47.26786" lon="6.92318">
        <ele>972.2</ele>
        <time>2024-05-08T11:54:44Z</time>
      </trkpt>
      <trkpt lat="47.26786" lon="6.92318">
        <ele>972.2</ele>
        <time>2024-05-08T11:54:55Z</time>
      </trkpt>
      <trkpt lat="47.26786" lon="6.92318">
        <ele>972.2</ele>
        <time>2024-05-08T11:55:06Z</time>
      </trkpt>
      <trkpt lat="47.26786" lon="6.92317">
        <ele>972.2</ele>
        <time>2024-05-08T11:55:16Z</time>
      </trkpt>
      <trkpt lat="47.26786" lon="6.92317">
        <ele>972.2</ele>
        <time>2024-05-08T11:55:27Z</time>
      </trkpt>
      <trkpt lat="47.26786" lon="6.92317">
        <ele>972.2</ele>
        <time>2024-05-08T11:55:38Z</time>
      </trkpt>
      <trkpt lat="47.26786" lon="6.92317">
        <ele>972.2</ele>
        <time>2024-05-08T11:55:49Z</time>
      </trkpt>
      <trkpt lat="47.26786" lon="6.92317">
        <ele>972.2</ele>
        <time>2024-05-08T11:55:59Z</time>
      </trkpt>
      <trkpt lat="47.26786" lon="6.92317">
        <ele>972.2</ele>
        <time>2024-05-08T11:56:09Z</time>
      </trkpt>
      <trkpt lat="47.26786" lon="6.92317">
        <ele>972.2</ele>
        <time>2024-05-08T11:56:20Z</time>
      </trkpt>
      <trkpt lat="47.26786" lon="6.92317">
        <ele>972.2</ele>
        <time>2024-05-08T11:56:31Z</time>
      </trkpt>
      <trkpt lat="47.26786" lon="6.92317">
        <ele>972.2</ele>
        <time>2024-05-08T11:56:42Z</time>
      </trkpt>
      <trkpt lat="47.26785" lon="6.92318">
        <ele>972.2</ele>
        <time>2024-05-08T11:56:53Z</time>
      </trkpt>
      <trkpt lat="47.26785" lon="6.92318">
        <ele>972.2</ele>
        <time>2024-05-08T11:57:03Z</time>
      </trkpt>
      <trkpt lat="47.26785" lon="6.92318">
        <ele>972.2</ele>
        <time>2024-05-08T11:57:13Z</time>
      </trkpt>
      <trkpt lat="47.26785" lon="6.92318">
        <ele>972.2</ele>
        <time>2024-05-08T11:57:24Z</time>
      </trkpt>
      <trkpt lat="47.26793" lon="6.92354">
        <ele>972.1</ele>
        <time>2024-05-08T11:59:48Z</time>
      </trkpt>
      <trkpt lat="47.26785" lon="6.92312">
        <ele>972</ele>
        <time>2024-05-08T11:59:58Z</time>
      </trkpt>
      <trkpt lat="47.26785" lon="6.92312">
        <ele>972</ele>
        <time>2024-05-08T12:00:08Z</time>
      </trkpt>
      <trkpt lat="47.26785" lon="6.92312">
        <ele>972</ele>
        <time>2024-05-08T12:00:19Z</time>
      </trkpt>
      <trkpt lat="47.26785" lon="6.92312">
        <ele>972</ele>
        <time>2024-05-08T12:00:29Z</time>
      </trkpt>
      <trkpt lat="47.26785" lon="6.92312">
        <ele>972</ele>
        <time>2024-05-08T12:00:39Z</time>
      </trkpt>
      <trkpt lat="47.26784" lon="6.92311">
        <ele>972.2</ele>
        <time>2024-05-08T12:00:50Z</time>
      </trkpt>
      <trkpt lat="47.26784" lon="6.92311">
        <ele>972.2</ele>
        <time>2024-05-08T12:01:01Z</time>
      </trkpt>
      <trkpt lat="47.26784" lon="6.92311">
        <ele>972.2</ele>
        <time>2024-05-08T12:01:12Z</time>
      </trkpt>
      <trkpt lat="47.26783" lon="6.92314">
        <ele>972.1</ele>
        <time>2024-05-08T12:01:22Z</time>
      </trkpt>
      <trkpt lat="47.26782" lon="6.92315">
        <ele>972</ele>
        <time>2024-05-08T12:01:32Z</time>
      </trkpt>
      <trkpt lat="47.26782" lon="6.92315">
        <ele>972</ele>
        <time>2024-05-08T12:01:43Z</time>
      </trkpt>
      <trkpt lat="47.26782" lon="6.92315">
        <ele>972</ele>
        <time>2024-05-08T12:01:53Z</time>
      </trkpt>
      <trkpt lat="47.26782" lon="6.92315">
        <ele>972</ele>
        <time>2024-05-08T12:02:04Z</time>
      </trkpt>
      <trkpt lat="47.26782" lon="6.92315">
        <ele>972</ele>
        <time>2024-05-08T12:02:15Z</time>
      </trkpt>
      <trkpt lat="47.26782" lon="6.92315">
        <ele>972</ele>
        <time>2024-05-08T12:02:25Z</time>
      </trkpt>
      <trkpt lat="47.26782" lon="6.92315">
        <ele>972</ele>
        <time>2024-05-08T12:02:36Z</time>
      </trkpt>
      <trkpt lat="47.26782" lon="6.92315">
        <ele>972</ele>
        <time>2024-05-08T12:02:46Z</time>
      </trkpt>
      <trkpt lat="47.26782" lon="6.92315">
        <ele>972</ele>
        <time>2024-05-08T12:02:57Z</time>
      </trkpt>
      <trkpt lat="47.26783" lon="6.92319">
        <ele>971.8</ele>
        <time>2024-05-08T12:03:08Z</time>
      </trkpt>
      <trkpt lat="47.26781" lon="6.92324">
        <ele>971.4</ele>
        <time>2024-05-08T12:03:18Z</time>
      </trkpt>
      <trkpt lat="47.26751" lon="6.92323">
        <ele>967.5</ele>
        <time>2024-05-08T12:03:29Z</time>
      </trkpt>
      <trkpt lat="47.26717" lon="6.92313">
        <ele>962</ele>
        <time>2024-05-08T12:03:40Z</time>
      </trkpt>
      <trkpt lat="47.26689" lon="6.92298">
        <ele>956.4</ele>
        <time>2024-05-08T12:03:50Z</time>
      </trkpt>
      <trkpt lat="47.26656" lon="6.92299">
        <ele>950.4</ele>
        <time>2024-05-08T12:04:00Z</time>
      </trkpt>
      <trkpt lat="47.26612" lon="6.92289">
        <ele>944.8</ele>
        <time>2024-05-08T12:04:11Z</time>
      </trkpt>
      <trkpt lat="47.2658" lon="6.92277">
        <ele>940.4</ele>
        <time>2024-05-08T12:04:21Z</time>
      </trkpt>
      <trkpt lat="47.26552" lon="6.92232">
        <ele>938.2</ele>
        <time>2024-05-08T12:04:32Z</time>
      </trkpt>
      <trkpt lat="47.26516" lon="6.92149">
        <ele>935.4</ele>
        <time>2024-05-08T12:04:43Z</time>
      </trkpt>
      <trkpt lat="47.26485" lon="6.92092">
        <ele>937.3</ele>
        <time>2024-05-08T12:04:54Z</time>
      </trkpt>
      <trkpt lat="47.26458" lon="6.92049">
        <ele>938.4</ele>
        <time>2024-05-08T12:05:05Z</time>
      </trkpt>
      <trkpt lat="47.26432" lon="6.9202">
        <ele>938.9</ele>
        <time>2024-05-08T12:05:16Z</time>
      </trkpt>
      <trkpt lat="47.26403" lon="6.91979">
        <ele>939</ele>
        <time>2024-05-08T12:05:26Z</time>
      </trkpt>
      <trkpt lat="47.26376" lon="6.9193">
        <ele>939.4</ele>
        <time>2024-05-08T12:05:36Z</time>
      </trkpt>
      <trkpt lat="47.26353" lon="6.9188">
        <ele>940.7</ele>
        <time>2024-05-08T12:05:47Z</time>
      </trkpt>
      <trkpt lat="47.26328" lon="6.91842">
        <ele>942.1</ele>
        <time>2024-05-08T12:05:58Z</time>
      </trkpt>
      <trkpt lat="47.26303" lon="6.91811">
        <ele>941.7</ele>
        <time>2024-05-08T12:06:09Z</time>
      </trkpt>
      <trkpt lat="47.2625" lon="6.91798">
        <ele>937.2</ele>
        <time>2024-05-08T12:06:19Z</time>
      </trkpt>
      <trkpt lat="47.262" lon="6.91851">
        <ele>936</ele>
        <time>2024-05-08T12:06:30Z</time>
      </trkpt>
      <trkpt lat="47.26174" lon="6.91888">
        <ele>938</ele>
        <time>2024-05-08T12:06:41Z</time>
      </trkpt>
      <trkpt lat="47.26165" lon="6.9193">
        <ele>940.6</ele>
        <time>2024-05-08T12:06:53Z</time>
      </trkpt>
      <trkpt lat="47.2616" lon="6.91971">
        <ele>943.2</ele>
        <time>2024-05-08T12:07:05Z</time>
      </trkpt>
      <trkpt lat="47.26153" lon="6.92002">
        <ele>944.9</ele>
        <time>2024-05-08T12:07:15Z</time>
      </trkpt>
      <trkpt lat="47.26143" lon="6.9203">
        <ele>946.2</ele>
        <time>2024-05-08T12:07:25Z</time>
      </trkpt>
      <trkpt lat="47.26133" lon="6.92063">
        <ele>947.8</ele>
        <time>2024-05-08T12:07:36Z</time>
      </trkpt>
      <trkpt lat="47.26121" lon="6.92092">
        <ele>949.4</ele>
        <time>2024-05-08T12:07:47Z</time>
      </trkpt>
      <trkpt lat="47.26099" lon="6.92127">
        <ele>950.7</ele>
        <time>2024-05-08T12:07:57Z</time>
      </trkpt>
      <trkpt lat="47.26086" lon="6.92175">
        <ele>952.4</ele>
        <time>2024-05-08T12:08:08Z</time>
      </trkpt>
      <trkpt lat="47.26076" lon="6.9221">
        <ele>954.7</ele>
        <time>2024-05-08T12:08:18Z</time>
      </trkpt>
      <trkpt lat="47.26076" lon="6.92245">
        <ele>957.3</ele>
        <time>2024-05-08T12:08:29Z</time>
      </trkpt>
      <trkpt lat="47.26073" lon="6.92279">
        <ele>959.3</ele>
        <time>2024-05-08T12:08:39Z</time>
      </trkpt>
      <trkpt lat="47.26065" lon="6.92314">
        <ele>961.1</ele>
        <time>2024-05-08T12:08:50Z</time>
      </trkpt>
      <trkpt lat="47.26059" lon="6.92348">
        <ele>962.5</ele>
        <time>2024-05-08T12:09:01Z</time>
      </trkpt>
      <trkpt lat="47.26038" lon="6.92402">
        <ele>962.8</ele>
        <time>2024-05-08T12:09:12Z</time>
      </trkpt>
      <trkpt lat="47.26004" lon="6.92444">
        <ele>962.7</ele>
        <time>2024-05-08T12:09:23Z</time>
      </trkpt>
      <trkpt lat="47.2597" lon="6.92486">
        <ele>962.3</ele>
        <time>2024-05-08T12:09:33Z</time>
      </trkpt>
      <trkpt lat="47.25934" lon="6.92529">
        <ele>961.9</ele>
        <time>2024-05-08T12:09:43Z</time>
      </trkpt>
      <trkpt lat="47.25895" lon="6.92571">
        <ele>959.8</ele>
        <time>2024-05-08T12:09:53Z</time>
      </trkpt>
      <trkpt lat="47.25833" lon="6.92535">
        <ele>957.4</ele>
        <time>2024-05-08T12:10:04Z</time>
      </trkpt>
      <trkpt lat="47.25799" lon="6.9248">
        <ele>958.7</ele>
        <time>2024-05-08T12:10:14Z</time>
      </trkpt>
      <trkpt lat="47.25779" lon="6.92424">
        <ele>960.5</ele>
        <time>2024-05-08T12:10:25Z</time>
      </trkpt>
      <trkpt lat="47.25764" lon="6.92389">
        <ele>961.3</ele>
        <time>2024-05-08T12:10:35Z</time>
      </trkpt>
      <trkpt lat="47.25765" lon="6.92395">
        <ele>961.4</ele>
        <time>2024-05-08T12:10:46Z</time>
      </trkpt>
      <trkpt lat="47.2575" lon="6.92413">
        <ele>961.6</ele>
        <time>2024-05-08T12:10:57Z</time>
      </trkpt>
      <trkpt lat="47.2572" lon="6.92421">
        <ele>961.6</ele>
        <time>2024-05-08T12:11:08Z</time>
      </trkpt>
      <trkpt lat="47.25715" lon="6.92429">
        <ele>961.6</ele>
        <time>2024-05-08T12:11:18Z</time>
      </trkpt>
      <trkpt lat="47.25737" lon="6.92417">
        <ele>961.7</ele>
        <time>2024-05-08T12:11:29Z</time>
      </trkpt>
      <trkpt lat="47.25763" lon="6.92415">
        <ele>961.2</ele>
        <time>2024-05-08T12:11:39Z</time>
      </trkpt>
      <trkpt lat="47.25757" lon="6.92377">
        <ele>962.6</ele>
        <time>2024-05-08T12:11:50Z</time>
      </trkpt>
      <trkpt lat="47.25744" lon="6.92324">
        <ele>963</ele>
        <time>2024-05-08T12:12:01Z</time>
      </trkpt>
      <trkpt lat="47.25726" lon="6.92258">
        <ele>961.6</ele>
        <time>2024-05-08T12:12:12Z</time>
      </trkpt>
      <trkpt lat="47.25679" lon="6.92224">
        <ele>959.6</ele>
        <time>2024-05-08T12:12:23Z</time>
      </trkpt>
      <trkpt lat="47.25643" lon="6.92218">
        <ele>958.1</ele>
        <time>2024-05-08T12:12:34Z</time>
      </trkpt>
      <trkpt lat="47.25629" lon="6.9218">
        <ele>958</ele>
        <time>2024-05-08T12:12:44Z</time>
      </trkpt>
      <trkpt lat="47.25626" lon="6.92176">
        <ele>958</ele>
        <time>2024-05-08T12:12:54Z</time>
      </trkpt>
      <trkpt lat="47.2564" lon="6.92212">
        <ele>957.8</ele>
        <time>2024-05-08T12:13:05Z</time>
      </trkpt>
      <trkpt lat="47.25604" lon="6.9223">
        <ele>955.4</ele>
        <time>2024-05-08T12:13:15Z</time>
      </trkpt>
      <trkpt lat="47.25521" lon="6.92223">
        <ele>950.5</ele>
        <time>2024-05-08T12:13:26Z</time>
      </trkpt>
      <trkpt lat="47.25438" lon="6.92194">
        <ele>949.9</ele>
        <time>2024-05-08T12:13:37Z</time>
      </trkpt>
      <trkpt lat="47.25387" lon="6.92191">
        <ele>951.4</ele>
        <time>2024-05-08T12:13:47Z</time>
      </trkpt>
      <trkpt lat="47.25339" lon="6.92188">
        <ele>951.4</ele>
        <time>2024-05-08T12:13:57Z</time>
      </trkpt>
      <trkpt lat="47.25285" lon="6.92188">
        <ele>951.6</ele>
        <time>2024-05-08T12:14:07Z</time>
      </trkpt>
      <trkpt lat="47.25239" lon="6.92193">
        <ele>952.6</ele>
        <time>2024-05-08T12:14:17Z</time>
      </trkpt>
      <trkpt lat="47.25187" lon="6.92199">
        <ele>953.7</ele>
        <time>2024-05-08T12:14:28Z</time>
      </trkpt>
      <trkpt lat="47.25148" lon="6.92206">
        <ele>955.4</ele>
        <time>2024-05-08T12:14:38Z</time>
      </trkpt>
      <trkpt lat="47.25109" lon="6.92213">
        <ele>956.5</ele>
        <time>2024-05-08T12:14:49Z</time>
      </trkpt>
      <trkpt lat="47.25065" lon="6.92215">
        <ele>957.8</ele>
        <time>2024-05-08T12:15:00Z</time>
      </trkpt>
      <trkpt lat="47.25023" lon="6.92208">
        <ele>959.9</ele>
        <time>2024-05-08T12:15:11Z</time>
      </trkpt>
      <trkpt lat="47.24983" lon="6.92207">
        <ele>961.9</ele>
        <time>2024-05-08T12:15:22Z</time>
      </trkpt>
      <trkpt lat="47.24952" lon="6.92204">
        <ele>963.3</ele>
        <time>2024-05-08T12:15:32Z</time>
      </trkpt>
      <trkpt lat="47.24914" lon="6.92201">
        <ele>964.3</ele>
        <time>2024-05-08T12:15:43Z</time>
      </trkpt>
      <trkpt lat="47.24874" lon="6.92197">
        <ele>964.9</ele>
        <time>2024-05-08T12:15:54Z</time>
      </trkpt>
      <trkpt lat="47.24829" lon="6.92194">
        <ele>965</ele>
        <time>2024-05-08T12:16:04Z</time>
      </trkpt>
      <trkpt lat="47.24775" lon="6.92189">
        <ele>965.2</ele>
        <time>2024-05-08T12:16:15Z</time>
      </trkpt>
      <trkpt lat="47.24727" lon="6.92185">
        <ele>965.9</ele>
        <time>2024-05-08T12:16:25Z</time>
      </trkpt>
      <trkpt lat="47.24672" lon="6.92181">
        <ele>965.9</ele>
        <time>2024-05-08T12:16:36Z</time>
      </trkpt>
      <trkpt lat="47.24619" lon="6.92174">
        <ele>966.2</ele>
        <time>2024-05-08T12:16:46Z</time>
      </trkpt>
      <trkpt lat="47.24564" lon="6.92152">
        <ele>966.2</ele>
        <time>2024-05-08T12:16:57Z</time>
      </trkpt>
      <trkpt lat="47.24523" lon="6.92103">
        <ele>967.1</ele>
        <time>2024-05-08T12:17:07Z</time>
      </trkpt>
      <trkpt lat="47.24494" lon="6.92056">
        <ele>968.9</ele>
        <time>2024-05-08T12:17:17Z</time>
      </trkpt>
      <trkpt lat="47.24467" lon="6.92009">
        <ele>971</ele>
        <time>2024-05-08T12:17:28Z</time>
      </trkpt>
      <trkpt lat="47.24448" lon="6.91968">
        <ele>972.9</ele>
        <time>2024-05-08T12:17:38Z</time>
      </trkpt>
      <trkpt lat="47.24428" lon="6.91929">
        <ele>975.2</ele>
        <time>2024-05-08T12:17:49Z</time>
      </trkpt>
      <trkpt lat="47.24412" lon="6.91897">
        <ele>977.1</ele>
        <time>2024-05-08T12:17:59Z</time>
      </trkpt>
      <trkpt lat="47.24393" lon="6.91858">
        <ele>978.9</ele>
        <time>2024-05-08T12:18:10Z</time>
      </trkpt>
      <trkpt lat="47.24372" lon="6.91815">
        <ele>980.5</ele>
        <time>2024-05-08T12:18:21Z</time>
      </trkpt>
      <trkpt lat="47.2435" lon="6.91769">
        <ele>981.4</ele>
        <time>2024-05-08T12:18:32Z</time>
      </trkpt>
      <trkpt lat="47.24325" lon="6.91721">
        <ele>981.9</ele>
        <time>2024-05-08T12:18:42Z</time>
      </trkpt>
      <trkpt lat="47.24296" lon="6.9166">
        <ele>982.2</ele>
        <time>2024-05-08T12:18:53Z</time>
      </trkpt>
      <trkpt lat="47.24271" lon="6.91608">
        <ele>982.2</ele>
        <time>2024-05-08T12:19:03Z</time>
      </trkpt>
      <trkpt lat="47.24245" lon="6.91555">
        <ele>982.3</ele>
        <time>2024-05-08T12:19:14Z</time>
      </trkpt>
      <trkpt lat="47.24212" lon="6.9149">
        <ele>982.1</ele>
        <time>2024-05-08T12:19:25Z</time>
      </trkpt>
      <trkpt lat="47.24179" lon="6.91422">
        <ele>981.8</ele>
        <time>2024-05-08T12:19:36Z</time>
      </trkpt>
      <trkpt lat="47.24152" lon="6.91348">
        <ele>980.9</ele>
        <time>2024-05-08T12:19:47Z</time>
      </trkpt>
      <trkpt lat="47.24121" lon="6.9127">
        <ele>979.3</ele>
        <time>2024-05-08T12:19:58Z</time>
      </trkpt>
      <trkpt lat="47.24085" lon="6.91195">
        <ele>976.7</ele>
        <time>2024-05-08T12:20:08Z</time>
      </trkpt>
      <trkpt lat="47.24042" lon="6.91105">
        <ele>972.9</ele>
        <time>2024-05-08T12:20:18Z</time>
      </trkpt>
      <trkpt lat="47.23997" lon="6.91008">
        <ele>966.9</ele>
        <time>2024-05-08T12:20:28Z</time>
      </trkpt>
      <trkpt lat="47.23951" lon="6.9088">
        <ele>961.3</ele>
        <time>2024-05-08T12:20:39Z</time>
      </trkpt>
      <trkpt lat="47.23945" lon="6.90807">
        <ele>960.6</ele>
        <time>2024-05-08T12:20:50Z</time>
      </trkpt>
      <trkpt lat="47.2396" lon="6.9077">
        <ele>961.7</ele>
        <time>2024-05-08T12:21:01Z</time>
      </trkpt>
      <trkpt lat="47.23948" lon="6.90707">
        <ele>960.4</ele>
        <time>2024-05-08T12:21:12Z</time>
      </trkpt>
      <trkpt lat="47.23914" lon="6.90602">
        <ele>955.9</ele>
        <time>2024-05-08T12:21:23Z</time>
      </trkpt>
      <trkpt lat="47.23889" lon="6.90471">
        <ele>950.6</ele>
        <time>2024-05-08T12:21:33Z</time>
      </trkpt>
      <trkpt lat="47.23907" lon="6.9031">
        <ele>944.4</ele>
        <time>2024-05-08T12:21:44Z</time>
      </trkpt>
      <trkpt lat="47.23937" lon="6.90153">
        <ele>938.4</ele>
        <time>2024-05-08T12:21:55Z</time>
      </trkpt>
      <trkpt lat="47.23998" lon="6.90016">
        <ele>933.4</ele>
        <time>2024-05-08T12:22:06Z</time>
      </trkpt>
      <trkpt lat="47.24058" lon="6.89897">
        <ele>932.2</ele>
        <time>2024-05-08T12:22:17Z</time>
      </trkpt>
      <trkpt lat="47.24077" lon="6.89768">
        <ele>928.3</ele>
        <time>2024-05-08T12:22:28Z</time>
      </trkpt>
      <trkpt lat="47.24087" lon="6.89628">
        <ele>922.4</ele>
        <time>2024-05-08T12:22:38Z</time>
      </trkpt>
      <trkpt lat="47.24026" lon="6.89536">
        <ele>916.8</ele>
        <time>2024-05-08T12:22:48Z</time>
      </trkpt>
      <trkpt lat="47.23952" lon="6.8942">
        <ele>910.4</ele>
        <time>2024-05-08T12:22:59Z</time>
      </trkpt>
      <trkpt lat="47.2392" lon="6.89272">
        <ele>905</ele>
        <time>2024-05-08T12:23:09Z</time>
      </trkpt>
      <trkpt lat="47.23866" lon="6.8913">
        <ele>899.1</ele>
        <time>2024-05-08T12:23:19Z</time>
      </trkpt>
      <trkpt lat="47.23814" lon="6.89038">
        <ele>895.9</ele>
        <time>2024-05-08T12:23:30Z</time>
      </trkpt>
      <trkpt lat="47.2378" lon="6.89044">
        <ele>899.8</ele>
        <time>2024-05-08T12:23:40Z</time>
      </trkpt>
      <trkpt lat="47.2376" lon="6.89042">
        <ele>902.2</ele>
        <time>2024-05-08T12:23:51Z</time>
      </trkpt>
      <trkpt lat="47.23742" lon="6.89034">
        <ele>904.4</ele>
        <time>2024-05-08T12:24:02Z</time>
      </trkpt>
      <trkpt lat="47.23726" lon="6.89028">
        <ele>906.2</ele>
        <time>2024-05-08T12:24:12Z</time>
      </trkpt>
      <trkpt lat="47.23707" lon="6.8902">
        <ele>908.4</ele>
        <time>2024-05-08T12:24:23Z</time>
      </trkpt>
      <trkpt lat="47.23691" lon="6.89014">
        <ele>910.2</ele>
        <time>2024-05-08T12:24:33Z</time>
      </trkpt>
      <trkpt lat="47.23673" lon="6.89008">
        <ele>912.2</ele>
        <time>2024-05-08T12:24:43Z</time>
      </trkpt>
      <trkpt lat="47.23652" lon="6.89002">
        <ele>914.2</ele>
        <time>2024-05-08T12:24:54Z</time>
      </trkpt>
      <trkpt lat="47.23632" lon="6.89001">
        <ele>915.9</ele>
        <time>2024-05-08T12:25:04Z</time>
      </trkpt>
      <trkpt lat="47.23613" lon="6.89">
        <ele>917.6</ele>
        <time>2024-05-08T12:25:15Z</time>
      </trkpt>
      <trkpt lat="47.23593" lon="6.89004">
        <ele>919.6</ele>
        <time>2024-05-08T12:25:26Z</time>
      </trkpt>
      <trkpt lat="47.23575" lon="6.89013">
        <ele>921.2</ele>
        <time>2024-05-08T12:25:36Z</time>
      </trkpt>
      <trkpt lat="47.23558" lon="6.89025">
        <ele>922.8</ele>
        <time>2024-05-08T12:25:46Z</time>
      </trkpt>
      <trkpt lat="47.23541" lon="6.89039">
        <ele>924.3</ele>
        <time>2024-05-08T12:25:57Z</time>
      </trkpt>
      <trkpt lat="47.23522" lon="6.89056">
        <ele>926</ele>
        <time>2024-05-08T12:26:08Z</time>
      </trkpt>
      <trkpt lat="47.23503" lon="6.89071">
        <ele>927.9</ele>
        <time>2024-05-08T12:26:19Z</time>
      </trkpt>
      <trkpt lat="47.23488" lon="6.89085">
        <ele>929.8</ele>
        <time>2024-05-08T12:26:30Z</time>
      </trkpt>
      <trkpt lat="47.23475" lon="6.89099">
        <ele>932</ele>
        <time>2024-05-08T12:26:40Z</time>
      </trkpt>
      <trkpt lat="47.23455" lon="6.89095">
        <ele>934.3</ele>
        <time>2024-05-08T12:26:51Z</time>
      </trkpt>
      <trkpt lat="47.23437" lon="6.89088">
        <ele>936.2</ele>
        <time>2024-05-08T12:27:02Z</time>
      </trkpt>
      <trkpt lat="47.23419" lon="6.89079">
        <ele>938.4</ele>
        <time>2024-05-08T12:27:13Z</time>
      </trkpt>
      <trkpt lat="47.23403" lon="6.89076">
        <ele>940.5</ele>
        <time>2024-05-08T12:27:23Z</time>
      </trkpt>
      <trkpt lat="47.23388" lon="6.89081">
        <ele>942.6</ele>
        <time>2024-05-08T12:27:34Z</time>
      </trkpt>
      <trkpt lat="47.23375" lon="6.89089">
        <ele>944.9</ele>
        <time>2024-05-08T12:27:44Z</time>
      </trkpt>
      <trkpt lat="47.23359" lon="6.89095">
        <ele>947.8</ele>
        <time>2024-05-08T12:27:55Z</time>
      </trkpt>
      <trkpt lat="47.23342" lon="6.89098">
        <ele>950.7</ele>
        <time>2024-05-08T12:28:06Z</time>
      </trkpt>
      <trkpt lat="47.23327" lon="6.89097">
        <ele>953.1</ele>
        <time>2024-05-08T12:28:17Z</time>
      </trkpt>
      <trkpt lat="47.23311" lon="6.89095">
        <ele>955.6</ele>
        <time>2024-05-08T12:28:28Z</time>
      </trkpt>
      <trkpt lat="47.23296" lon="6.89094">
        <ele>958</ele>
        <time>2024-05-08T12:28:38Z</time>
      </trkpt>
      <trkpt lat="47.2328" lon="6.89094">
        <ele>960.6</ele>
        <time>2024-05-08T12:28:48Z</time>
      </trkpt>
      <trkpt lat="47.23264" lon="6.89098">
        <ele>963</ele>
        <time>2024-05-08T12:28:59Z</time>
      </trkpt>
      <trkpt lat="47.23248" lon="6.89105">
        <ele>965.1</ele>
        <time>2024-05-08T12:29:10Z</time>
      </trkpt>
      <trkpt lat="47.23233" lon="6.89111">
        <ele>967.1</ele>
        <time>2024-05-08T12:29:20Z</time>
      </trkpt>
      <trkpt lat="47.23217" lon="6.89121">
        <ele>969</ele>
        <time>2024-05-08T12:29:31Z</time>
      </trkpt>
      <trkpt lat="47.23196" lon="6.89127">
        <ele>970.9</ele>
        <time>2024-05-08T12:29:42Z</time>
      </trkpt>
      <trkpt lat="47.23176" lon="6.89129">
        <ele>972.3</ele>
        <time>2024-05-08T12:29:52Z</time>
      </trkpt>
      <trkpt lat="47.23153" lon="6.89129">
        <ele>973.8</ele>
        <time>2024-05-08T12:30:03Z</time>
      </trkpt>
      <trkpt lat="47.23128" lon="6.89131">
        <ele>975.1</ele>
        <time>2024-05-08T12:30:14Z</time>
      </trkpt>
      <trkpt lat="47.23103" lon="6.89134">
        <ele>976.5</ele>
        <time>2024-05-08T12:30:25Z</time>
      </trkpt>
      <trkpt lat="47.23083" lon="6.89139">
        <ele>978.2</ele>
        <time>2024-05-08T12:30:35Z</time>
      </trkpt>
      <trkpt lat="47.23069" lon="6.89144">
        <ele>980</ele>
        <time>2024-05-08T12:30:45Z</time>
      </trkpt>
      <trkpt lat="47.23056" lon="6.8915">
        <ele>982</ele>
        <time>2024-05-08T12:30:56Z</time>
      </trkpt>
      <trkpt lat="47.23042" lon="6.8916">
        <ele>984.3</ele>
        <time>2024-05-08T12:31:06Z</time>
      </trkpt>
      <trkpt lat="47.23026" lon="6.89168">
        <ele>986.9</ele>
        <time>2024-05-08T12:31:17Z</time>
      </trkpt>
      <trkpt lat="47.23012" lon="6.8917">
        <ele>988.8</ele>
        <time>2024-05-08T12:31:28Z</time>
      </trkpt>
      <trkpt lat="47.22993" lon="6.89167">
        <ele>991.2</ele>
        <time>2024-05-08T12:31:38Z</time>
      </trkpt>
      <trkpt lat="47.22974" lon="6.89153">
        <ele>993.7</ele>
        <time>2024-05-08T12:31:48Z</time>
      </trkpt>
      <trkpt lat="47.22953" lon="6.89136">
        <ele>995.7</ele>
        <time>2024-05-08T12:31:58Z</time>
      </trkpt>
      <trkpt lat="47.2292" lon="6.89094">
        <ele>994.5</ele>
        <time>2024-05-08T12:32:09Z</time>
      </trkpt>
      <trkpt lat="47.22897" lon="6.89023">
        <ele>993.5</ele>
        <time>2024-05-08T12:32:19Z</time>
      </trkpt>
      <trkpt lat="47.22862" lon="6.88986">
        <ele>997</ele>
        <time>2024-05-08T12:32:30Z</time>
      </trkpt>
      <trkpt lat="47.22843" lon="6.8896">
        <ele>998.9</ele>
        <time>2024-05-08T12:32:41Z</time>
      </trkpt>
      <trkpt lat="47.22828" lon="6.8893">
        <ele>999</ele>
        <time>2024-05-08T12:32:51Z</time>
      </trkpt>
      <trkpt lat="47.22819" lon="6.88901">
        <ele>998.7</ele>
        <time>2024-05-08T12:33:01Z</time>
      </trkpt>
      <trkpt lat="47.22816" lon="6.88895">
        <ele>998.6</ele>
        <time>2024-05-08T12:33:11Z</time>
      </trkpt>
      <trkpt lat="47.22811" lon="6.88881">
        <ele>998.4</ele>
        <time>2024-05-08T12:33:22Z</time>
      </trkpt>
      <trkpt lat="47.22797" lon="6.88844">
        <ele>997.7</ele>
        <time>2024-05-08T12:33:32Z</time>
      </trkpt>
      <trkpt lat="47.22776" lon="6.88797">
        <ele>995.9</ele>
        <time>2024-05-08T12:33:42Z</time>
      </trkpt>
      <trkpt lat="47.22749" lon="6.88715">
        <ele>991.5</ele>
        <time>2024-05-08T12:33:52Z</time>
      </trkpt>
      <trkpt lat="47.22761" lon="6.88637">
        <ele>986.9</ele>
        <time>2024-05-08T12:34:03Z</time>
      </trkpt>
      <trkpt lat="47.22782" lon="6.88559">
        <ele>981.7</ele>
        <time>2024-05-08T12:34:13Z</time>
      </trkpt>
      <trkpt lat="47.22752" lon="6.88437">
        <ele>977</ele>
        <time>2024-05-08T12:34:24Z</time>
      </trkpt>
      <trkpt lat="47.22708" lon="6.8839">
        <ele>978.3</ele>
        <time>2024-05-08T12:34:35Z</time>
      </trkpt>
      <trkpt lat="47.22688" lon="6.8836">
        <ele>977.1</ele>
        <time>2024-05-08T12:34:45Z</time>
      </trkpt>
      <trkpt lat="47.22688" lon="6.88359">
        <ele>977.1</ele>
        <time>2024-05-08T12:34:56Z</time>
      </trkpt>
      <trkpt lat="47.22688" lon="6.88359">
        <ele>977.1</ele>
        <time>2024-05-08T12:35:07Z</time>
      </trkpt>
      <trkpt lat="47.22672" lon="6.88321">
        <ele>974.7</ele>
        <time>2024-05-08T12:35:17Z</time>
      </trkpt>
      <trkpt lat="47.22619" lon="6.88225">
        <ele>968.3</ele>
        <time>2024-05-08T12:35:27Z</time>
      </trkpt>
      <trkpt lat="47.22549" lon="6.88129">
        <ele>965.6</ele>
        <time>2024-05-08T12:35:37Z</time>
      </trkpt>
      <trkpt lat="47.22477" lon="6.88054">
        <ele>962.9</ele>
        <time>2024-05-08T12:35:48Z</time>
      </trkpt>
      <trkpt lat="47.22396" lon="6.88022">
        <ele>959.3</ele>
        <time>2024-05-08T12:35:58Z</time>
      </trkpt>
      <trkpt lat="47.22303" lon="6.8798">
        <ele>955.9</ele>
        <time>2024-05-08T12:36:09Z</time>
      </trkpt>
      <trkpt lat="47.22216" lon="6.87952">
        <ele>951.2</ele>
        <time>2024-05-08T12:36:20Z</time>
      </trkpt>
      <trkpt lat="47.22112" lon="6.87956">
        <ele>944.3</ele>
        <time>2024-05-08T12:36:30Z</time>
      </trkpt>
      <trkpt lat="47.22011" lon="6.87942">
        <ele>941.8</ele>
        <time>2024-05-08T12:36:41Z</time>
      </trkpt>
      <trkpt lat="47.21934" lon="6.8793">
        <ele>941.7</ele>
        <time>2024-05-08T12:36:51Z</time>
      </trkpt>
      <trkpt lat="47.21882" lon="6.87917">
        <ele>942.8</ele>
        <time>2024-05-08T12:37:02Z</time>
      </trkpt>
      <trkpt lat="47.21842" lon="6.87881">
        <ele>940.8</ele>
        <time>2024-05-08T12:37:12Z</time>
      </trkpt>
      <trkpt lat="47.21775" lon="6.87808">
        <ele>932.8</ele>
        <time>2024-05-08T12:37:22Z</time>
      </trkpt>
      <trkpt lat="47.2168" lon="6.87709">
        <ele>918.9</ele>
        <time>2024-05-08T12:37:32Z</time>
      </trkpt>
      <trkpt lat="47.21578" lon="6.87602">
        <ele>908.9</ele>
        <time>2024-05-08T12:37:42Z</time>
      </trkpt>
      <trkpt lat="47.21514" lon="6.87559">
        <ele>905.6</ele>
        <time>2024-05-08T12:37:53Z</time>
      </trkpt>
      <trkpt lat="47.21493" lon="6.87592">
        <ele>907.5</ele>
        <time>2024-05-08T12:38:03Z</time>
      </trkpt>
      <trkpt lat="47.21479" lon="6.87622">
        <ele>908.3</ele>
        <time>2024-05-08T12:38:14Z</time>
      </trkpt>
      <trkpt lat="47.21462" lon="6.87659">
        <ele>908.9</ele>
        <time>2024-05-08T12:38:25Z</time>
      </trkpt>
      <trkpt lat="47.21433" lon="6.87675">
        <ele>907.5</ele>
        <time>2024-05-08T12:38:36Z</time>
      </trkpt>
      <trkpt lat="47.21376" lon="6.8765">
        <ele>906.4</ele>
        <time>2024-05-08T12:38:46Z</time>
      </trkpt>
      <trkpt lat="47.21343" lon="6.87621">
        <ele>907</ele>
        <time>2024-05-08T12:38:56Z</time>
      </trkpt>
      <trkpt lat="47.21305" lon="6.87633">
        <ele>907.8</ele>
        <time>2024-05-08T12:39:07Z</time>
      </trkpt>
      <trkpt lat="47.21275" lon="6.87625">
        <ele>908.8</ele>
        <time>2024-05-08T12:39:17Z</time>
      </trkpt>
      <trkpt lat="47.2124" lon="6.87608">
        <ele>909</ele>
        <time>2024-05-08T12:39:27Z</time>
      </trkpt>
      <trkpt lat="47.21197" lon="6.87569">
        <ele>906</ele>
        <time>2024-05-08T12:39:37Z</time>
      </trkpt>
      <trkpt lat="47.21125" lon="6.87474">
        <ele>899.7</ele>
        <time>2024-05-08T12:39:48Z</time>
      </trkpt>
      <trkpt lat="47.21061" lon="6.87374">
        <ele>898.6</ele>
        <time>2024-05-08T12:39:59Z</time>
      </trkpt>
      <trkpt lat="47.21011" lon="6.8729">
        <ele>898.8</ele>
        <time>2024-05-08T12:40:09Z</time>
      </trkpt>
      <trkpt lat="47.20986" lon="6.87199">
        <ele>901.4</ele>
        <time>2024-05-08T12:40:20Z</time>
      </trkpt>
      <trkpt lat="47.20965" lon="6.87134">
        <ele>903.8</ele>
        <time>2024-05-08T12:40:31Z</time>
      </trkpt>
      <trkpt lat="47.20945" lon="6.87073">
        <ele>905.6</ele>
        <time>2024-05-08T12:40:42Z</time>
      </trkpt>
      <trkpt lat="47.20926" lon="6.87015">
        <ele>906.8</ele>
        <time>2024-05-08T12:40:52Z</time>
      </trkpt>
      <trkpt lat="47.20897" lon="6.86958">
        <ele>908.1</ele>
        <time>2024-05-08T12:41:03Z</time>
      </trkpt>
      <trkpt lat="47.20864" lon="6.86912">
        <ele>909.4</ele>
        <time>2024-05-08T12:41:14Z</time>
      </trkpt>
      <trkpt lat="47.20832" lon="6.86867">
        <ele>910.8</ele>
        <time>2024-05-08T12:41:25Z</time>
      </trkpt>
      <trkpt lat="47.20801" lon="6.86826">
        <ele>912.1</ele>
        <time>2024-05-08T12:41:36Z</time>
      </trkpt>
      <trkpt lat="47.20764" lon="6.86798">
        <ele>913.3</ele>
        <time>2024-05-08T12:41:47Z</time>
      </trkpt>
      <trkpt lat="47.20725" lon="6.86804">
        <ele>914.4</ele>
        <time>2024-05-08T12:41:58Z</time>
      </trkpt>
      <trkpt lat="47.207" lon="6.86842">
        <ele>915.4</ele>
        <time>2024-05-08T12:42:08Z</time>
      </trkpt>
      <trkpt lat="47.20674" lon="6.86884">
        <ele>916.6</ele>
        <time>2024-05-08T12:42:18Z</time>
      </trkpt>
      <trkpt lat="47.20649" lon="6.86898">
        <ele>917.3</ele>
        <time>2024-05-08T12:42:28Z</time>
      </trkpt>
      <trkpt lat="47.20644" lon="6.86896">
        <ele>917.5</ele>
        <time>2024-05-08T12:42:38Z</time>
      </trkpt>
      <trkpt lat="47.20644" lon="6.86896">
        <ele>917.5</ele>
        <time>2024-05-08T12:42:48Z</time>
      </trkpt>
      <trkpt lat="47.20644" lon="6.86896">
        <ele>917.5</ele>
        <time>2024-05-08T12:42:59Z</time>
      </trkpt>
      <trkpt lat="47.20644" lon="6.86896">
        <ele>917.5</ele>
        <time>2024-05-08T12:43:10Z</time>
      </trkpt>
      <trkpt lat="47.20644" lon="6.86896">
        <ele>917.5</ele>
        <time>2024-05-08T12:43:21Z</time>
      </trkpt>
      <trkpt lat="47.20644" lon="6.86896">
        <ele>917.5</ele>
        <time>2024-05-08T12:43:31Z</time>
      </trkpt>
      <trkpt lat="47.20641" lon="6.86891">
        <ele>917.7</ele>
        <time>2024-05-08T12:43:41Z</time>
      </trkpt>
      <trkpt lat="47.20618" lon="6.8687">
        <ele>918.9</ele>
        <time>2024-05-08T12:43:52Z</time>
      </trkpt>
      <trkpt lat="47.20597" lon="6.86838">
        <ele>920.3</ele>
        <time>2024-05-08T12:44:02Z</time>
      </trkpt>
      <trkpt lat="47.2057" lon="6.86804">
        <ele>921.9</ele>
        <time>2024-05-08T12:44:13Z</time>
      </trkpt>
      <trkpt lat="47.20546" lon="6.86769">
        <ele>923.5</ele>
        <time>2024-05-08T12:44:24Z</time>
      </trkpt>
      <trkpt lat="47.20525" lon="6.86733">
        <ele>924.9</ele>
        <time>2024-05-08T12:44:34Z</time>
      </trkpt>
      <trkpt lat="47.20496" lon="6.86701">
        <ele>926.4</ele>
        <time>2024-05-08T12:44:45Z</time>
      </trkpt>
      <trkpt lat="47.20467" lon="6.86686">
        <ele>927.6</ele>
        <time>2024-05-08T12:44:55Z</time>
      </trkpt>
      <trkpt lat="47.20436" lon="6.86674">
        <ele>928.8</ele>
        <time>2024-05-08T12:45:06Z</time>
      </trkpt>
      <trkpt lat="47.204" lon="6.86652">
        <ele>929.7</ele>
        <time>2024-05-08T12:45:17Z</time>
      </trkpt>
      <trkpt lat="47.20373" lon="6.86611">
        <ele>931</ele>
        <time>2024-05-08T12:45:28Z</time>
      </trkpt>
      <trkpt lat="47.20349" lon="6.86572">
        <ele>932.7</ele>
        <time>2024-05-08T12:45:39Z</time>
      </trkpt>
      <trkpt lat="47.20322" lon="6.86553">
        <ele>934.4</ele>
        <time>2024-05-08T12:45:50Z</time>
      </trkpt>
      <trkpt lat="47.20298" lon="6.86561">
        <ele>936.1</ele>
        <time>2024-05-08T12:46:01Z</time>
      </trkpt>
      <trkpt lat="47.20289" lon="6.86584">
        <ele>937.5</ele>
        <time>2024-05-08T12:46:12Z</time>
      </trkpt>
      <trkpt lat="47.20284" lon="6.86608">
        <ele>939</ele>
        <time>2024-05-08T12:46:23Z</time>
      </trkpt>
      <trkpt lat="47.20279" lon="6.86628">
        <ele>940.3</ele>
        <time>2024-05-08T12:46:33Z</time>
      </trkpt>
      <trkpt lat="47.20276" lon="6.86649">
        <ele>941.7</ele>
        <time>2024-05-08T12:46:43Z</time>
      </trkpt>
      <trkpt lat="47.2027" lon="6.86675">
        <ele>943.4</ele>
        <time>2024-05-08T12:46:53Z</time>
      </trkpt>
      <trkpt lat="47.20267" lon="6.86709">
        <ele>945.5</ele>
        <time>2024-05-08T12:47:04Z</time>
      </trkpt>
      <trkpt lat="47.20258" lon="6.86731">
        <ele>947.1</ele>
        <time>2024-05-08T12:47:15Z</time>
      </trkpt>
      <trkpt lat="47.20227" lon="6.86731">
        <ele>949.1</ele>
        <time>2024-05-08T12:47:26Z</time>
      </trkpt>
      <trkpt lat="47.20185" lon="6.8672">
        <ele>949.8</ele>
        <time>2024-05-08T12:47:37Z</time>
      </trkpt>
      <trkpt lat="47.20154" lon="6.86711">
        <ele>949.9</ele>
        <time>2024-05-08T12:47:47Z</time>
      </trkpt>
      <trkpt lat="47.20151" lon="6.86713">
        <ele>949.8</ele>
        <time>2024-05-08T12:47:58Z</time>
      </trkpt>
      <trkpt lat="47.2015" lon="6.86714">
        <ele>949.8</ele>
        <time>2024-05-08T12:48:09Z</time>
      </trkpt>
      <trkpt lat="47.2015" lon="6.86714">
        <ele>949.8</ele>
        <time>2024-05-08T12:48:19Z</time>
      </trkpt>
      <trkpt lat="47.2015" lon="6.86714">
        <ele>949.8</ele>
        <time>2024-05-08T12:48:30Z</time>
      </trkpt>
      <trkpt lat="47.2015" lon="6.86714">
        <ele>949.8</ele>
        <time>2024-05-08T12:48:40Z</time>
      </trkpt>
      <trkpt lat="47.2015" lon="6.86714">
        <ele>949.8</ele>
        <time>2024-05-08T12:48:50Z</time>
      </trkpt>
      <trkpt lat="47.20149" lon="6.86713">
        <ele>949.8</ele>
        <time>2024-05-08T12:49:01Z</time>
      </trkpt>
      <trkpt lat="47.20149" lon="6.86713">
        <ele>949.8</ele>
        <time>2024-05-08T12:49:11Z</time>
      </trkpt>
      <trkpt lat="47.20149" lon="6.86713">
        <ele>949.8</ele>
        <time>2024-05-08T12:49:22Z</time>
      </trkpt>
      <trkpt lat="47.20149" lon="6.86713">
        <ele>949.8</ele>
        <time>2024-05-08T12:49:33Z</time>
      </trkpt>
      <trkpt lat="47.20148" lon="6.86714">
        <ele>949.8</ele>
        <time>2024-05-08T12:49:44Z</time>
      </trkpt>
      <trkpt lat="47.20146" lon="6.8671">
        <ele>949.8</ele>
        <time>2024-05-08T12:49:54Z</time>
      </trkpt>
      <trkpt lat="47.20122" lon="6.86681">
        <ele>949.5</ele>
        <time>2024-05-08T12:50:04Z</time>
      </trkpt>
      <trkpt lat="47.20093" lon="6.86649">
        <ele>948.8</ele>
        <time>2024-05-08T12:50:15Z</time>
      </trkpt>
      <trkpt lat="47.20049" lon="6.86655">
        <ele>947.2</ele>
        <time>2024-05-08T12:50:26Z</time>
      </trkpt>
      <trkpt lat="47.20004" lon="6.86688">
        <ele>943.8</ele>
        <time>2024-05-08T12:50:36Z</time>
      </trkpt>
      <trkpt lat="47.19968" lon="6.86705">
        <ele>940.3</ele>
        <time>2024-05-08T12:50:46Z</time>
      </trkpt>
      <trkpt lat="47.19964" lon="6.86708">
        <ele>939.9</ele>
        <time>2024-05-08T12:50:57Z</time>
      </trkpt>
      <trkpt lat="47.19963" lon="6.86714">
        <ele>939.1</ele>
        <time>2024-05-08T12:51:08Z</time>
      </trkpt>
      <trkpt lat="47.19969" lon="6.86742">
        <ele>938.7</ele>
        <time>2024-05-08T12:51:18Z</time>
      </trkpt>
      <trkpt lat="47.19974" lon="6.86776">
        <ele>938.8</ele>
        <time>2024-05-08T12:51:29Z</time>
      </trkpt>
      <trkpt lat="47.19988" lon="6.86796">
        <ele>939.1</ele>
        <time>2024-05-08T12:51:40Z</time>
      </trkpt>
      <trkpt lat="47.1999" lon="6.86799">
        <ele>939.1</ele>
        <time>2024-05-08T12:51:50Z</time>
      </trkpt>
      <trkpt lat="47.1999" lon="6.86798">
        <ele>939.1</ele>
        <time>2024-05-08T12:52:01Z</time>
      </trkpt>
      <trkpt lat="47.1999" lon="6.86798">
        <ele>939.1</ele>
        <time>2024-05-08T12:52:12Z</time>
      </trkpt>
      <trkpt lat="47.1999" lon="6.86798">
        <ele>939.1</ele>
        <time>2024-05-08T12:52:23Z</time>
      </trkpt>
      <trkpt lat="47.1999" lon="6.86798">
        <ele>939.1</ele>
        <time>2024-05-08T12:52:33Z</time>
      </trkpt>
      <trkpt lat="47.1999" lon="6.86798">
        <ele>939.1</ele>
        <time>2024-05-08T12:52:43Z</time>
      </trkpt>
      <trkpt lat="47.1999" lon="6.86798">
        <ele>939.1</ele>
        <time>2024-05-08T12:52:54Z</time>
      </trkpt>
      <trkpt lat="47.1999" lon="6.86798">
        <ele>939.1</ele>
        <time>2024-05-08T12:53:04Z</time>
      </trkpt>
      <trkpt lat="47.1999" lon="6.86798">
        <ele>939.1</ele>
        <time>2024-05-08T12:53:15Z</time>
      </trkpt>
      <trkpt lat="47.1999" lon="6.86798">
        <ele>939.1</ele>
        <time>2024-05-08T12:53:26Z</time>
      </trkpt>
      <trkpt lat="47.1999" lon="6.86798">
        <ele>939.1</ele>
        <time>2024-05-08T12:53:37Z</time>
      </trkpt>
      <trkpt lat="47.1999" lon="6.86798">
        <ele>939.1</ele>
        <time>2024-05-08T12:53:47Z</time>
      </trkpt>
      <trkpt lat="47.1999" lon="6.86798">
        <ele>939.1</ele>
        <time>2024-05-08T12:53:57Z</time>
      </trkpt>
      <trkpt lat="47.1999" lon="6.86798">
        <ele>939.1</ele>
        <time>2024-05-08T12:54:08Z</time>
      </trkpt>
      <trkpt lat="47.19992" lon="6.86799">
        <ele>939.1</ele>
        <time>2024-05-08T12:54:19Z</time>
      </trkpt>
      <trkpt lat="47.19991" lon="6.868">
        <ele>939.2</ele>
        <time>2024-05-08T12:54:29Z</time>
      </trkpt>
      <trkpt lat="47.19991" lon="6.86798">
        <ele>939.2</ele>
        <time>2024-05-08T12:54:40Z</time>
      </trkpt>
      <trkpt lat="47.19988" lon="6.86789">
        <ele>939.3</ele>
        <time>2024-05-08T12:54:50Z</time>
      </trkpt>
      <trkpt lat="47.19989" lon="6.86779">
        <ele>939.5</ele>
        <time>2024-05-08T12:55:01Z</time>
      </trkpt>
      <trkpt lat="47.19987" lon="6.86764">
        <ele>939.4</ele>
        <time>2024-05-08T12:55:11Z</time>
      </trkpt>
      <trkpt lat="47.19981" lon="6.86742">
        <ele>938.9</ele>
        <time>2024-05-08T12:55:21Z</time>
      </trkpt>
      <trkpt lat="47.19961" lon="6.86727">
        <ele>938.9</ele>
        <time>2024-05-08T12:55:32Z</time>
      </trkpt>
      <trkpt lat="47.19915" lon="6.8671">
        <ele>934.5</ele>
        <time>2024-05-08T12:55:42Z</time>
      </trkpt>
      <trkpt lat="47.19849" lon="6.86654">
        <ele>925</ele>
        <time>2024-05-08T12:55:52Z</time>
      </trkpt>
      <trkpt lat="47.19755" lon="6.86581">
        <ele>917.9</ele>
        <time>2024-05-08T12:56:03Z</time>
      </trkpt>
      <trkpt lat="47.19684" lon="6.86512">
        <ele>913</ele>
        <time>2024-05-08T12:56:14Z</time>
      </trkpt>
      <trkpt lat="47.19623" lon="6.86435">
        <ele>909.1</ele>
        <time>2024-05-08T12:56:24Z</time>
      </trkpt>
      <trkpt lat="47.19551" lon="6.86347">
        <ele>905.3</ele>
        <time>2024-05-08T12:56:35Z</time>
      </trkpt>
      <trkpt lat="47.19483" lon="6.86261">
        <ele>903.2</ele>
        <time>2024-05-08T12:56:46Z</time>
      </trkpt>
      <trkpt lat="47.19436" lon="6.8618">
        <ele>903.8</ele>
        <time>2024-05-08T12:56:57Z</time>
      </trkpt>
      <trkpt lat="47.19405" lon="6.86118">
        <ele>906</ele>
        <time>2024-05-08T12:57:07Z</time>
      </trkpt>
      <trkpt lat="47.19382" lon="6.86068">
        <ele>908.6</ele>
        <time>2024-05-08T12:57:18Z</time>
      </trkpt>
      <trkpt lat="47.19363" lon="6.86025">
        <ele>910.8</ele>
        <time>2024-05-08T12:57:29Z</time>
      </trkpt>
      <trkpt lat="47.19348" lon="6.85988">
        <ele>912.6</ele>
        <time>2024-05-08T12:57:39Z</time>
      </trkpt>
      <trkpt lat="47.19328" lon="6.85953">
        <ele>914.5</ele>
        <time>2024-05-08T12:57:50Z</time>
      </trkpt>
      <trkpt lat="47.19306" lon="6.85926">
        <ele>915.9</ele>
        <time>2024-05-08T12:58:00Z</time>
      </trkpt>
      <trkpt lat="47.19275" lon="6.85888">
        <ele>916.4</ele>
        <time>2024-05-08T12:58:11Z</time>
      </trkpt>
      <trkpt lat="47.19248" lon="6.85831">
        <ele>916.4</ele>
        <time>2024-05-08T12:58:21Z</time>
      </trkpt>
      <trkpt lat="47.19222" lon="6.85771">
        <ele>916.8</ele>
        <time>2024-05-08T12:58:32Z</time>
      </trkpt>
      <trkpt lat="47.19219" lon="6.85725">
        <ele>918.2</ele>
        <time>2024-05-08T12:58:42Z</time>
      </trkpt>
      <trkpt lat="47.19222" lon="6.85683">
        <ele>920.1</ele>
        <time>2024-05-08T12:58:52Z</time>
      </trkpt>
      <trkpt lat="47.19224" lon="6.85631">
        <ele>922.5</ele>
        <time>2024-05-08T12:59:03Z</time>
      </trkpt>
      <trkpt lat="47.19226" lon="6.85589">
        <ele>924.3</ele>
        <time>2024-05-08T12:59:13Z</time>
      </trkpt>
      <trkpt lat="47.19234" lon="6.85552">
        <ele>926.5</ele>
        <time>2024-05-08T12:59:23Z</time>
      </trkpt>
      <trkpt lat="47.19249" lon="6.85519">
        <ele>928.4</ele>
        <time>2024-05-08T12:59:34Z</time>
      </trkpt>
      <trkpt lat="47.19266" lon="6.85477">
        <ele>929.9</ele>
        <time>2024-05-08T12:59:45Z</time>
      </trkpt>
      <trkpt lat="47.19277" lon="6.85435">
        <ele>931.2</ele>
        <time>2024-05-08T12:59:55Z</time>
      </trkpt>
      <trkpt lat="47.19281" lon="6.85387">
        <ele>932.7</ele>
        <time>2024-05-08T13:00:06Z</time>
      </trkpt>
      <trkpt lat="47.19275" lon="6.8533">
        <ele>934</ele>
        <time>2024-05-08T13:00:17Z</time>
      </trkpt>
      <trkpt lat="47.19261" lon="6.85277">
        <ele>934.9</ele>
        <time>2024-05-08T13:00:27Z</time>
      </trkpt>
      <trkpt lat="47.19242" lon="6.85221">
        <ele>935.6</ele>
        <time>2024-05-08T13:00:37Z</time>
      </trkpt>
      <trkpt lat="47.19245" lon="6.85151">
        <ele>936.5</ele>
        <time>2024-05-08T13:00:48Z</time>
      </trkpt>
      <trkpt lat="47.19281" lon="6.85146">
        <ele>937.9</ele>
        <time>2024-05-08T13:00:58Z</time>
      </trkpt>
      <trkpt lat="47.19312" lon="6.8512">
        <ele>938.8</ele>
        <time>2024-05-08T13:01:08Z</time>
      </trkpt>
      <trkpt lat="47.19302" lon="6.85062">
        <ele>940.4</ele>
        <time>2024-05-08T13:01:19Z</time>
      </trkpt>
      <trkpt lat="47.1928" lon="6.85022">
        <ele>942.8</ele>
        <time>2024-05-08T13:01:30Z</time>
      </trkpt>
      <trkpt lat="47.1926" lon="6.84986">
        <ele>944.9</ele>
        <time>2024-05-08T13:01:41Z</time>
      </trkpt>
      <trkpt lat="47.19238" lon="6.84949">
        <ele>946.3</ele>
        <time>2024-05-08T13:01:51Z</time>
      </trkpt>
      <trkpt lat="47.19218" lon="6.8491">
        <ele>948.2</ele>
        <time>2024-05-08T13:02:02Z</time>
      </trkpt>
      <trkpt lat="47.19208" lon="6.84872">
        <ele>950.1</ele>
        <time>2024-05-08T13:02:13Z</time>
      </trkpt>
      <trkpt lat="47.19203" lon="6.84828">
        <ele>951.8</ele>
        <time>2024-05-08T13:02:24Z</time>
      </trkpt>
      <trkpt lat="47.19209" lon="6.84785">
        <ele>953.3</ele>
        <time>2024-05-08T13:02:34Z</time>
      </trkpt>
      <trkpt lat="47.19204" lon="6.84739">
        <ele>955</ele>
        <time>2024-05-08T13:02:45Z</time>
      </trkpt>
      <trkpt lat="47.19194" lon="6.84711">
        <ele>956.3</ele>
        <time>2024-05-08T13:02:56Z</time>
      </trkpt>
      <trkpt lat="47.19191" lon="6.84679">
        <ele>957.2</ele>
        <time>2024-05-08T13:03:06Z</time>
      </trkpt>
      <trkpt lat="47.19192" lon="6.84634">
        <ele>956.7</ele>
        <time>2024-05-08T13:03:17Z</time>
      </trkpt>
      <trkpt lat="47.19193" lon="6.84564">
        <ele>954.4</ele>
        <time>2024-05-08T13:03:27Z</time>
      </trkpt>
      <trkpt lat="47.19214" lon="6.84478">
        <ele>952</ele>
        <time>2024-05-08T13:03:38Z</time>
      </trkpt>
      <trkpt lat="47.1926" lon="6.84411">
        <ele>948.9</ele>
        <time>2024-05-08T13:03:48Z</time>
      </trkpt>
      <trkpt lat="47.19324" lon="6.84359">
        <ele>945</ele>
        <time>2024-05-08T13:03:59Z</time>
      </trkpt>
      <trkpt lat="47.19402" lon="6.84336">
        <ele>939.2</ele>
        <time>2024-05-08T13:04:09Z</time>
      </trkpt>
      <trkpt lat="47.19408" lon="6.84313">
        <ele>938.8</ele>
        <time>2024-05-08T13:04:19Z</time>
      </trkpt>
      <trkpt lat="47.19418" lon="6.84321">
        <ele>938.5</ele>
        <time>2024-05-08T13:04:29Z</time>
      </trkpt>
      <trkpt lat="47.1942" lon="6.84326">
        <ele>938.4</ele>
        <time>2024-05-08T13:04:40Z</time>
      </trkpt>
      <trkpt lat="47.19451" lon="6.84324">
        <ele>936.8</ele>
        <time>2024-05-08T13:04:51Z</time>
      </trkpt>
      <trkpt lat="47.19486" lon="6.84307">
        <ele>933.6</ele>
        <time>2024-05-08T13:05:01Z</time>
      </trkpt>
      <trkpt lat="47.19538" lon="6.84273">
        <ele>929.6</ele>
        <time>2024-05-08T13:05:12Z</time>
      </trkpt>
      <trkpt lat="47.19583" lon="6.84241">
        <ele>924.3</ele>
        <time>2024-05-08T13:05:23Z</time>
      </trkpt>
      <trkpt lat="47.19629" lon="6.84224">
        <ele>917.7</ele>
        <time>2024-05-08T13:05:33Z</time>
      </trkpt>
      <trkpt lat="47.19687" lon="6.84225">
        <ele>910</ele>
        <time>2024-05-08T13:05:44Z</time>
      </trkpt>
      <trkpt lat="47.19742" lon="6.842">
        <ele>903.1</ele>
        <time>2024-05-08T13:05:55Z</time>
      </trkpt>
      <trkpt lat="47.19784" lon="6.8417">
        <ele>899</ele>
        <time>2024-05-08T13:06:05Z</time>
      </trkpt>
      <trkpt lat="47.19837" lon="6.84145">
        <ele>892.4</ele>
        <time>2024-05-08T13:06:16Z</time>
      </trkpt>
      <trkpt lat="47.19896" lon="6.84127">
        <ele>885.5</ele>
        <time>2024-05-08T13:06:27Z</time>
      </trkpt>
      <trkpt lat="47.1995" lon="6.8411">
        <ele>879.7</ele>
        <time>2024-05-08T13:06:37Z</time>
      </trkpt>
      <trkpt lat="47.20007" lon="6.84087">
        <ele>874.5</ele>
        <time>2024-05-08T13:06:48Z</time>
      </trkpt>
      <trkpt lat="47.20037" lon="6.84064">
        <ele>871.9</ele>
        <time>2024-05-08T13:06:59Z</time>
      </trkpt>
      <trkpt lat="47.20026" lon="6.84043">
        <ele>870.3</ele>
        <time>2024-05-08T13:07:09Z</time>
      </trkpt>
      <trkpt lat="47.20014" lon="6.84035">
        <ele>870.3</ele>
        <time>2024-05-08T13:07:20Z</time>
      </trkpt>
      <trkpt lat="47.19994" lon="6.84032">
        <ele>870.5</ele>
        <time>2024-05-08T13:07:30Z</time>
      </trkpt>
      <trkpt lat="47.20008" lon="6.84035">
        <ele>870.4</ele>
        <time>2024-05-08T13:07:41Z</time>
      </trkpt>
      <trkpt lat="47.20038" lon="6.84024">
        <ele>869.2</ele>
        <time>2024-05-08T13:07:52Z</time>
      </trkpt>
      <trkpt lat="47.20068" lon="6.8401">
        <ele>867.3</ele>
        <time>2024-05-08T13:08:03Z</time>
      </trkpt>
      <trkpt lat="47.20068" lon="6.83983">
        <ele>871.1</ele>
        <time>2024-05-08T13:08:13Z</time>
      </trkpt>
      <trkpt lat="47.20066" lon="6.83959">
        <ele>873.1</ele>
        <time>2024-05-08T13:08:24Z</time>
      </trkpt>
      <trkpt lat="47.20068" lon="6.83936">
        <ele>874.5</ele>
        <time>2024-05-08T13:08:34Z</time>
      </trkpt>
      <trkpt lat="47.20071" lon="6.83909">
        <ele>875.7</ele>
        <time>2024-05-08T13:08:45Z</time>
      </trkpt>
      <trkpt lat="47.20075" lon="6.83878">
        <ele>876.5</ele>
        <time>2024-05-08T13:08:56Z</time>
      </trkpt>
      <trkpt lat="47.20079" lon="6.8384">
        <ele>878.2</ele>
        <time>2024-05-08T13:09:07Z</time>
      </trkpt>
      <trkpt lat="47.20082" lon="6.83812">
        <ele>879.4</ele>
        <time>2024-05-08T13:09:18Z</time>
      </trkpt>
      <trkpt lat="47.20082" lon="6.83776">
        <ele>880</ele>
        <time>2024-05-08T13:09:28Z</time>
      </trkpt>
      <trkpt lat="47.20076" lon="6.8374">
        <ele>880.8</ele>
        <time>2024-05-08T13:09:39Z</time>
      </trkpt>
      <trkpt lat="47.20065" lon="6.83708">
        <ele>882.6</ele>
        <time>2024-05-08T13:09:50Z</time>
      </trkpt>
      <trkpt lat="47.20057" lon="6.8368">
        <ele>884</ele>
        <time>2024-05-08T13:10:01Z</time>
      </trkpt>
      <trkpt lat="47.20054" lon="6.83638">
        <ele>883.9</ele>
        <time>2024-05-08T13:10:11Z</time>
      </trkpt>
      <trkpt lat="47.20048" lon="6.83572">
        <ele>882.1</ele>
        <time>2024-05-08T13:10:22Z</time>
      </trkpt>
      <trkpt lat="47.20038" lon="6.83512">
        <ele>881.3</ele>
        <time>2024-05-08T13:10:33Z</time>
      </trkpt>
      <trkpt lat="47.20029" lon="6.83449">
        <ele>880.6</ele>
        <time>2024-05-08T13:10:44Z</time>
      </trkpt>
      <trkpt lat="47.20014" lon="6.83398">
        <ele>880.4</ele>
        <time>2024-05-08T13:10:54Z</time>
      </trkpt>
      <trkpt lat="47.2001" lon="6.83359">
        <ele>880.4</ele>
        <time>2024-05-08T13:11:04Z</time>
      </trkpt>
      <trkpt lat="47.20002" lon="6.8331">
        <ele>880.2</ele>
        <time>2024-05-08T13:11:15Z</time>
      </trkpt>
      <trkpt lat="47.19996" lon="6.83267">
        <ele>880</ele>
        <time>2024-05-08T13:11:25Z</time>
      </trkpt>
      <trkpt lat="47.19994" lon="6.83221">
        <ele>879.6</ele>
        <time>2024-05-08T13:11:36Z</time>
      </trkpt>
      <trkpt lat="47.1999" lon="6.83174">
        <ele>878.8</ele>
        <time>2024-05-08T13:11:46Z</time>
      </trkpt>
      <trkpt lat="47.19978" lon="6.83166">
        <ele>878.8</ele>
        <time>2024-05-08T13:11:57Z</time>
      </trkpt>
      <trkpt lat="47.19978" lon="6.83166">
        <ele>878.8</ele>
        <time>2024-05-08T13:12:07Z</time>
      </trkpt>
      <trkpt lat="47.19978" lon="6.83166">
        <ele>878.8</ele>
        <time>2024-05-08T13:12:17Z</time>
      </trkpt>
      <trkpt lat="47.19978" lon="6.83166">
        <ele>878.8</ele>
        <time>2024-05-08T13:12:28Z</time>
      </trkpt>
      <trkpt lat="47.19978" lon="6.83166">
        <ele>878.8</ele>
        <time>2024-05-08T13:12:38Z</time>
      </trkpt>
      <trkpt lat="47.19978" lon="6.83166">
        <ele>878.8</ele>
        <time>2024-05-08T13:12:48Z</time>
      </trkpt>
      <trkpt lat="47.19978" lon="6.83166">
        <ele>878.8</ele>
        <time>2024-05-08T13:12:59Z</time>
      </trkpt>
      <trkpt lat="47.19978" lon="6.83166">
        <ele>878.8</ele>
        <time>2024-05-08T13:13:09Z</time>
      </trkpt>
      <trkpt lat="47.19978" lon="6.83166">
        <ele>878.8</ele>
        <time>2024-05-08T13:13:20Z</time>
      </trkpt>
      <trkpt lat="47.19964" lon="6.83165">
        <ele>879.1</ele>
        <time>2024-05-08T13:13:31Z</time>
      </trkpt>
      <trkpt lat="47.19942" lon="6.83177">
        <ele>879.7</ele>
        <time>2024-05-08T13:13:41Z</time>
      </trkpt>
      <trkpt lat="47.19916" lon="6.83191">
        <ele>880.5</ele>
        <time>2024-05-08T13:13:51Z</time>
      </trkpt>
      <trkpt lat="47.19888" lon="6.83199">
        <ele>881.6</ele>
        <time>2024-05-08T13:14:02Z</time>
      </trkpt>
      <trkpt lat="47.1986" lon="6.83207">
        <ele>882.5</ele>
        <time>2024-05-08T13:14:12Z</time>
      </trkpt>
      <trkpt lat="47.19832" lon="6.83212">
        <ele>882.7</ele>
        <time>2024-05-08T13:14:22Z</time>
      </trkpt>
      <trkpt lat="47.19801" lon="6.83216">
        <ele>882.4</ele>
        <time>2024-05-08T13:14:33Z</time>
      </trkpt>
      <trkpt lat="47.19777" lon="6.83222">
        <ele>881.8</ele>
        <time>2024-05-08T13:14:44Z</time>
      </trkpt>
      <trkpt lat="47.19746" lon="6.83229">
        <ele>880.9</ele>
        <time>2024-05-08T13:14:54Z</time>
      </trkpt>
      <trkpt lat="47.19728" lon="6.83213">
        <ele>880.4</ele>
        <time>2024-05-08T13:15:05Z</time>
      </trkpt>
      <trkpt lat="47.19724" lon="6.83184">
        <ele>880.1</ele>
        <time>2024-05-08T13:15:15Z</time>
      </trkpt>
      <trkpt lat="47.19725" lon="6.83194">
        <ele>880.2</ele>
        <time>2024-05-08T13:15:25Z</time>
      </trkpt>
      <trkpt lat="47.1972" lon="6.83228">
        <ele>880.3</ele>
        <time>2024-05-08T13:15:35Z</time>
      </trkpt>
      <trkpt lat="47.19698" lon="6.83239">
        <ele>880.1</ele>
        <time>2024-05-08T13:15:46Z</time>
      </trkpt>
      <trkpt lat="47.19693" lon="6.83244">
        <ele>880.1</ele>
        <time>2024-05-08T13:15:57Z</time>
      </trkpt>
      <trkpt lat="47.19694" lon="6.83243">
        <ele>880.1</ele>
        <time>2024-05-08T13:16:07Z</time>
      </trkpt>
      <trkpt lat="47.19694" lon="6.83242">
        <ele>880.1</ele>
        <time>2024-05-08T13:16:17Z</time>
      </trkpt>
      <trkpt lat="47.19695" lon="6.83241">
        <ele>880</ele>
        <time>2024-05-08T13:16:28Z</time>
      </trkpt>
      <trkpt lat="47.19702" lon="6.83237">
        <ele>880</ele>
        <time>2024-05-08T13:16:38Z</time>
      </trkpt>
      <trkpt lat="47.19705" lon="6.83238">
        <ele>880</ele>
        <time>2024-05-08T13:16:48Z</time>
      </trkpt>
      <trkpt lat="47.19706" lon="6.83238">
        <ele>880</ele>
        <time>2024-05-08T13:16:59Z</time>
      </trkpt>
      <trkpt lat="47.19707" lon="6.83236">
        <ele>880</ele>
        <time>2024-05-08T13:17:10Z</time>
      </trkpt>
      <trkpt lat="47.19714" lon="6.83236">
        <ele>880</ele>
        <time>2024-05-08T13:17:20Z</time>
      </trkpt>
      <trkpt lat="47.19718" lon="6.83231">
        <ele>880</ele>
        <time>2024-05-08T13:17:30Z</time>
      </trkpt>
      <trkpt lat="47.19721" lon="6.8323">
        <ele>880</ele>
        <time>2024-05-08T13:17:40Z</time>
      </trkpt>
      <trkpt lat="47.19721" lon="6.8323">
        <ele>880</ele>
        <time>2024-05-08T13:17:51Z</time>
      </trkpt>
      <trkpt lat="47.1972" lon="6.83233">
        <ele>880</ele>
        <time>2024-05-08T13:18:02Z</time>
      </trkpt>
      <trkpt lat="47.1972" lon="6.83232">
        <ele>880</ele>
        <time>2024-05-08T13:18:13Z</time>
      </trkpt>
      <trkpt lat="47.1972" lon="6.83232">
        <ele>880</ele>
        <time>2024-05-08T13:18:23Z</time>
      </trkpt>
      <trkpt lat="47.1972" lon="6.83232">
        <ele>880</ele>
        <time>2024-05-08T13:18:34Z</time>
      </trkpt>
      <trkpt lat="47.1972" lon="6.83232">
        <ele>880</ele>
        <time>2024-05-08T13:18:44Z</time>
      </trkpt>
      <trkpt lat="47.1972" lon="6.83233">
        <ele>880</ele>
        <time>2024-05-08T13:18:54Z</time>
      </trkpt>
      <trkpt lat="47.1972" lon="6.83235">
        <ele>880</ele>
        <time>2024-05-08T13:19:05Z</time>
      </trkpt>
      <trkpt lat="47.19717" lon="6.83235">
        <ele>880</ele>
        <time>2024-05-08T13:19:15Z</time>
      </trkpt>
      <trkpt lat="47.19717" lon="6.83235">
        <ele>880</ele>
        <time>2024-05-08T13:19:26Z</time>
      </trkpt>
      <trkpt lat="47.19717" lon="6.83235">
        <ele>880</ele>
        <time>2024-05-08T13:19:37Z</time>
      </trkpt>
      <trkpt lat="47.19717" lon="6.83235">
        <ele>880</ele>
        <time>2024-05-08T13:19:47Z</time>
      </trkpt>
      <trkpt lat="47.19716" lon="6.83235">
        <ele>880</ele>
        <time>2024-05-08T13:19:57Z</time>
      </trkpt>
      <trkpt lat="47.19716" lon="6.83235">
        <ele>880</ele>
        <time>2024-05-08T13:20:08Z</time>
      </trkpt>
      <trkpt lat="47.19716" lon="6.83235">
        <ele>880</ele>
        <time>2024-05-08T13:20:19Z</time>
      </trkpt>
      <trkpt lat="47.19716" lon="6.83235">
        <ele>880</ele>
        <time>2024-05-08T13:20:29Z</time>
      </trkpt>
      <trkpt lat="47.19716" lon="6.83235">
        <ele>880</ele>
        <time>2024-05-08T13:20:39Z</time>
      </trkpt>
      <trkpt lat="47.19716" lon="6.83235">
        <ele>880</ele>
        <time>2024-05-08T13:20:50Z</time>
      </trkpt>
      <trkpt lat="47.19716" lon="6.83235">
        <ele>880</ele>
        <time>2024-05-08T13:21:00Z</time>
      </trkpt>
      <trkpt lat="47.19716" lon="6.83235">
        <ele>880</ele>
        <time>2024-05-08T13:21:11Z</time>
      </trkpt>
      <trkpt lat="47.19716" lon="6.83235">
        <ele>880</ele>
        <time>2024-05-08T13:21:21Z</time>
      </trkpt>
      <trkpt lat="47.19716" lon="6.83235">
        <ele>880</ele>
        <time>2024-05-08T13:21:32Z</time>
      </trkpt>
      <trkpt lat="47.19716" lon="6.83235">
        <ele>880</ele>
        <time>2024-05-08T13:21:43Z</time>
      </trkpt>
      <trkpt lat="47.19716" lon="6.83235">
        <ele>880</ele>
        <time>2024-05-08T13:21:53Z</time>
      </trkpt>
      <trkpt lat="47.19716" lon="6.83235">
        <ele>880</ele>
        <time>2024-05-08T13:22:04Z</time>
      </trkpt>
      <trkpt lat="47.19716" lon="6.83235">
        <ele>880</ele>
        <time>2024-05-08T13:22:14Z</time>
      </trkpt>
      <trkpt lat="47.19716" lon="6.83235">
        <ele>880</ele>
        <time>2024-05-08T13:22:24Z</time>
      </trkpt>
      <trkpt lat="47.19716" lon="6.83235">
        <ele>880</ele>
        <time>2024-05-08T13:22:34Z</time>
      </trkpt>
      <trkpt lat="47.19716" lon="6.83235">
        <ele>880</ele>
        <time>2024-05-08T13:22:45Z</time>
      </trkpt>
      <trkpt lat="47.19716" lon="6.83235">
        <ele>880</ele>
        <time>2024-05-08T13:22:55Z</time>
      </trkpt>
      <trkpt lat="47.19716" lon="6.83235">
        <ele>880</ele>
        <time>2024-05-08T13:23:06Z</time>
      </trkpt>
      <trkpt lat="47.19716" lon="6.83235">
        <ele>880</ele>
        <time>2024-05-08T13:23:17Z</time>
      </trkpt>
      <trkpt lat="47.19716" lon="6.83235">
        <ele>880</ele>
        <time>2024-05-08T13:23:27Z</time>
      </trkpt>
      <trkpt lat="47.19716" lon="6.83235">
        <ele>880</ele>
        <time>2024-05-08T13:23:38Z</time>
      </trkpt>
      <trkpt lat="47.19716" lon="6.83235">
        <ele>880</ele>
        <time>2024-05-08T13:23:49Z</time>
      </trkpt>
      <trkpt lat="47.19716" lon="6.83235">
        <ele>880</ele>
        <time>2024-05-08T13:24:00Z</time>
      </trkpt>
      <trkpt lat="47.19716" lon="6.83235">
        <ele>880</ele>
        <time>2024-05-08T13:24:11Z</time>
      </trkpt>
      <trkpt lat="47.1971" lon="6.83235">
        <ele>880</ele>
        <time>2024-05-08T13:24:22Z</time>
      </trkpt>
      <trkpt lat="47.19701" lon="6.83239">
        <ele>880</ele>
        <time>2024-05-08T13:24:33Z</time>
      </trkpt>
      <trkpt lat="47.19698" lon="6.83241">
        <ele>880.1</ele>
        <time>2024-05-08T13:24:43Z</time>
      </trkpt>
      <trkpt lat="47.19697" lon="6.83241">
        <ele>880.1</ele>
        <time>2024-05-08T13:24:54Z</time>
      </trkpt>
      <trkpt lat="47.19697" lon="6.83242">
        <ele>880.1</ele>
        <time>2024-05-08T13:25:04Z</time>
      </trkpt>
      <trkpt lat="47.19697" lon="6.83242">
        <ele>880.1</ele>
        <time>2024-05-08T13:25:15Z</time>
      </trkpt>
      <trkpt lat="47.19697" lon="6.83242">
        <ele>880.1</ele>
        <time>2024-05-08T13:25:26Z</time>
      </trkpt>
      <trkpt lat="47.19697" lon="6.83242">
        <ele>880.1</ele>
        <time>2024-05-08T13:25:37Z</time>
      </trkpt>
      <trkpt lat="47.19697" lon="6.83242">
        <ele>880.1</ele>
        <time>2024-05-08T13:25:47Z</time>
      </trkpt>
      <trkpt lat="47.19697" lon="6.83242">
        <ele>880.1</ele>
        <time>2024-05-08T13:25:58Z</time>
      </trkpt>
      <trkpt lat="47.19697" lon="6.83242">
        <ele>880.1</ele>
        <time>2024-05-08T13:26:08Z</time>
      </trkpt>
      <trkpt lat="47.19694" lon="6.83243">
        <ele>880.1</ele>
        <time>2024-05-08T13:26:18Z</time>
      </trkpt>
      <trkpt lat="47.19693" lon="6.83244">
        <ele>880.1</ele>
        <time>2024-05-08T13:26:28Z</time>
      </trkpt>
      <trkpt lat="47.19693" lon="6.83244">
        <ele>880.1</ele>
        <time>2024-05-08T13:26:39Z</time>
      </trkpt>
      <trkpt lat="47.19693" lon="6.83244">
        <ele>880.1</ele>
        <time>2024-05-08T13:26:49Z</time>
      </trkpt>
      <trkpt lat="47.19693" lon="6.83243">
        <ele>880.1</ele>
        <time>2024-05-08T13:26:59Z</time>
      </trkpt>
      <trkpt lat="47.19692" lon="6.83242">
        <ele>880.1</ele>
        <time>2024-05-08T13:27:09Z</time>
      </trkpt>
      <trkpt lat="47.19676" lon="6.83246">
        <ele>880.2</ele>
        <time>2024-05-08T13:27:20Z</time>
      </trkpt>
      <trkpt lat="47.19652" lon="6.83251">
        <ele>881.2</ele>
        <time>2024-05-08T13:27:30Z</time>
      </trkpt>
      <trkpt lat="47.19628" lon="6.83256">
        <ele>882.7</ele>
        <time>2024-05-08T13:27:41Z</time>
      </trkpt>
      <trkpt lat="47.19604" lon="6.83262">
        <ele>883.7</ele>
        <time>2024-05-08T13:27:52Z</time>
      </trkpt>
      <trkpt lat="47.19576" lon="6.83273">
        <ele>883.8</ele>
        <time>2024-05-08T13:28:02Z</time>
      </trkpt>
      <trkpt lat="47.19539" lon="6.83292">
        <ele>882.6</ele>
        <time>2024-05-08T13:28:12Z</time>
      </trkpt>
      <trkpt lat="47.19501" lon="6.83312">
        <ele>881.2</ele>
        <time>2024-05-08T13:28:23Z</time>
      </trkpt>
      <trkpt lat="47.19454" lon="6.83341">
        <ele>879.5</ele>
        <time>2024-05-08T13:28:34Z</time>
      </trkpt>
      <trkpt lat="47.19415" lon="6.83372">
        <ele>877.9</ele>
        <time>2024-05-08T13:28:44Z</time>
      </trkpt>
      <trkpt lat="47.19368" lon="6.83416">
        <ele>876.5</ele>
        <time>2024-05-08T13:28:55Z</time>
      </trkpt>
      <trkpt lat="47.19334" lon="6.83462">
        <ele>873.1</ele>
        <time>2024-05-08T13:29:05Z</time>
      </trkpt>
      <trkpt lat="47.19311" lon="6.83456">
        <ele>870.4</ele>
        <time>2024-05-08T13:29:15Z</time>
      </trkpt>
      <trkpt lat="47.19284" lon="6.83387">
        <ele>868.7</ele>
        <time>2024-05-08T13:29:26Z</time>
      </trkpt>
      <trkpt lat="47.19261" lon="6.83312">
        <ele>867.4</ele>
        <time>2024-05-08T13:29:36Z</time>
      </trkpt>
      <trkpt lat="47.1924" lon="6.83229">
        <ele>866.8</ele>
        <time>2024-05-08T13:29:46Z</time>
      </trkpt>
      <trkpt lat="47.19222" lon="6.8314">
        <ele>866.5</ele>
        <time>2024-05-08T13:29:57Z</time>
      </trkpt>
      <trkpt lat="47.19214" lon="6.83058">
        <ele>866.4</ele>
        <time>2024-05-08T13:30:07Z</time>
      </trkpt>
      <trkpt lat="47.19209" lon="6.82984">
        <ele>867.7</ele>
        <time>2024-05-08T13:30:17Z</time>
      </trkpt>
      <trkpt lat="47.19198" lon="6.8291">
        <ele>869.8</ele>
        <time>2024-05-08T13:30:28Z</time>
      </trkpt>
      <trkpt lat="47.19178" lon="6.82861">
        <ele>871.7</ele>
        <time>2024-05-08T13:30:38Z</time>
      </trkpt>
      <trkpt lat="47.19152" lon="6.8282">
        <ele>873.6</ele>
        <time>2024-05-08T13:30:48Z</time>
      </trkpt>
      <trkpt lat="47.19124" lon="6.82783">
        <ele>875.5</ele>
        <time>2024-05-08T13:30:59Z</time>
      </trkpt>
      <trkpt lat="47.19097" lon="6.82751">
        <ele>877.6</ele>
        <time>2024-05-08T13:31:10Z</time>
      </trkpt>
      <trkpt lat="47.19074" lon="6.82723">
        <ele>879.3</ele>
        <time>2024-05-08T13:31:21Z</time>
      </trkpt>
      <trkpt lat="47.19046" lon="6.82686">
        <ele>880.2</ele>
        <time>2024-05-08T13:31:31Z</time>
      </trkpt>
      <trkpt lat="47.19027" lon="6.82648">
        <ele>880.3</ele>
        <time>2024-05-08T13:31:41Z</time>
      </trkpt>
      <trkpt lat="47.19015" lon="6.82609">
        <ele>880.1</ele>
        <time>2024-05-08T13:31:52Z</time>
      </trkpt>
      <trkpt lat="47.18996" lon="6.82552">
        <ele>879.3</ele>
        <time>2024-05-08T13:32:02Z</time>
      </trkpt>
      <trkpt lat="47.18972" lon="6.82484">
        <ele>878.3</ele>
        <time>2024-05-08T13:32:13Z</time>
      </trkpt>
      <trkpt lat="47.18946" lon="6.82427">
        <ele>877.3</ele>
        <time>2024-05-08T13:32:23Z</time>
      </trkpt>
      <trkpt lat="47.18926" lon="6.82391">
        <ele>876.7</ele>
        <time>2024-05-08T13:32:34Z</time>
      </trkpt>
      <trkpt lat="47.18877" lon="6.82351">
        <ele>876</ele>
        <time>2024-05-08T13:32:44Z</time>
      </trkpt>
      <trkpt lat="47.1882" lon="6.82291">
        <ele>875.5</ele>
        <time>2024-05-08T13:32:54Z</time>
      </trkpt>
      <trkpt lat="47.1877" lon="6.82228">
        <ele>877.8</ele>
        <time>2024-05-08T13:33:05Z</time>
      </trkpt>
      <trkpt lat="47.18731" lon="6.82185">
        <ele>879.9</ele>
        <time>2024-05-08T13:33:16Z</time>
      </trkpt>
      <trkpt lat="47.18689" lon="6.82157">
        <ele>881.9</ele>
        <time>2024-05-08T13:33:27Z</time>
      </trkpt>
      <trkpt lat="47.18641" lon="6.8215">
        <ele>883.1</ele>
        <time>2024-05-08T13:33:38Z</time>
      </trkpt>
      <trkpt lat="47.18585" lon="6.82152">
        <ele>883.9</ele>
        <time>2024-05-08T13:33:49Z</time>
      </trkpt>
      <trkpt lat="47.18534" lon="6.82154">
        <ele>884.4</ele>
        <time>2024-05-08T13:33:59Z</time>
      </trkpt>
      <trkpt lat="47.18483" lon="6.82153">
        <ele>884.5</ele>
        <time>2024-05-08T13:34:10Z</time>
      </trkpt>
      <trkpt lat="47.18433" lon="6.82108">
        <ele>882.7</ele>
        <time>2024-05-08T13:34:21Z</time>
      </trkpt>
      <trkpt lat="47.18359" lon="6.82112">
        <ele>880.7</ele>
        <time>2024-05-08T13:34:32Z</time>
      </trkpt>
      <trkpt lat="47.18313" lon="6.82107">
        <ele>879.4</ele>
        <time>2024-05-08T13:34:43Z</time>
      </trkpt>
      <trkpt lat="47.1833" lon="6.82114">
        <ele>879.7</ele>
        <time>2024-05-08T13:34:53Z</time>
      </trkpt>
      <trkpt lat="47.18326" lon="6.82153">
        <ele>878.8</ele>
        <time>2024-05-08T13:35:03Z</time>
      </trkpt>
      <trkpt lat="47.18284" lon="6.82202">
        <ele>878.7</ele>
        <time>2024-05-08T13:35:14Z</time>
      </trkpt>
      <trkpt lat="47.18251" lon="6.82243">
        <ele>880.8</ele>
        <time>2024-05-08T13:35:25Z</time>
      </trkpt>
      <trkpt lat="47.18222" lon="6.82261">
        <ele>883.1</ele>
        <time>2024-05-08T13:35:35Z</time>
      </trkpt>
      <trkpt lat="47.18194" lon="6.82288">
        <ele>884.9</ele>
        <time>2024-05-08T13:35:46Z</time>
      </trkpt>
      <trkpt lat="47.18154" lon="6.82312">
        <ele>884.7</ele>
        <time>2024-05-08T13:35:57Z</time>
      </trkpt>
      <trkpt lat="47.18125" lon="6.82324">
        <ele>885.3</ele>
        <time>2024-05-08T13:36:07Z</time>
      </trkpt>
      <trkpt lat="47.18099" lon="6.82328">
        <ele>886.5</ele>
        <time>2024-05-08T13:36:18Z</time>
      </trkpt>
      <trkpt lat="47.18075" lon="6.82333">
        <ele>888.6</ele>
        <time>2024-05-08T13:36:29Z</time>
      </trkpt>
      <trkpt lat="47.18057" lon="6.8234">
        <ele>891.4</ele>
        <time>2024-05-08T13:36:39Z</time>
      </trkpt>
      <trkpt lat="47.18041" lon="6.82351">
        <ele>894.7</ele>
        <time>2024-05-08T13:36:50Z</time>
      </trkpt>
      <trkpt lat="47.18027" lon="6.82363">
        <ele>897.3</ele>
        <time>2024-05-08T13:37:00Z</time>
      </trkpt>
      <trkpt lat="47.18011" lon="6.82368">
        <ele>899.5</ele>
        <time>2024-05-08T13:37:11Z</time>
      </trkpt>
      <trkpt lat="47.17995" lon="6.82367">
        <ele>901.7</ele>
        <time>2024-05-08T13:37:22Z</time>
      </trkpt>
      <trkpt lat="47.17981" lon="6.82366">
        <ele>903.5</ele>
        <time>2024-05-08T13:37:32Z</time>
      </trkpt>
      <trkpt lat="47.17964" lon="6.82362">
        <ele>905.4</ele>
        <time>2024-05-08T13:37:43Z</time>
      </trkpt>
      <trkpt lat="47.17949" lon="6.8236">
        <ele>907</ele>
        <time>2024-05-08T13:37:54Z</time>
      </trkpt>
      <trkpt lat="47.17933" lon="6.82361">
        <ele>908.8</ele>
        <time>2024-05-08T13:38:05Z</time>
      </trkpt>
      <trkpt lat="47.17917" lon="6.82366">
        <ele>911</ele>
        <time>2024-05-08T13:38:16Z</time>
      </trkpt>
      <trkpt lat="47.17902" lon="6.82379">
        <ele>913.4</ele>
        <time>2024-05-08T13:38:27Z</time>
      </trkpt>
      <trkpt lat="47.17887" lon="6.82388">
        <ele>915.3</ele>
        <time>2024-05-08T13:38:38Z</time>
      </trkpt>
      <trkpt lat="47.17875" lon="6.82387">
        <ele>916.1</ele>
        <time>2024-05-08T13:38:49Z</time>
      </trkpt>
      <trkpt lat="47.17875" lon="6.82387">
        <ele>916.1</ele>
        <time>2024-05-08T13:39:00Z</time>
      </trkpt>
      <trkpt lat="47.17858" lon="6.82406">
        <ele>917.6</ele>
        <time>2024-05-08T13:39:11Z</time>
      </trkpt>
      <trkpt lat="47.17837" lon="6.82415">
        <ele>919.6</ele>
        <time>2024-05-08T13:39:22Z</time>
      </trkpt>
      <trkpt lat="47.17819" lon="6.82426">
        <ele>921.6</ele>
        <time>2024-05-08T13:39:32Z</time>
      </trkpt>
      <trkpt lat="47.17804" lon="6.82436">
        <ele>923</ele>
        <time>2024-05-08T13:39:42Z</time>
      </trkpt>
      <trkpt lat="47.17781" lon="6.82449">
        <ele>924.6</ele>
        <time>2024-05-08T13:39:53Z</time>
      </trkpt>
      <trkpt lat="47.17763" lon="6.8246">
        <ele>925.8</ele>
        <time>2024-05-08T13:40:03Z</time>
      </trkpt>
      <trkpt lat="47.17741" lon="6.82463">
        <ele>927.1</ele>
        <time>2024-05-08T13:40:13Z</time>
      </trkpt>
      <trkpt lat="47.17722" lon="6.82455">
        <ele>928.4</ele>
        <time>2024-05-08T13:40:25Z</time>
      </trkpt>
      <trkpt lat="47.17708" lon="6.82442">
        <ele>929.7</ele>
        <time>2024-05-08T13:40:35Z</time>
      </trkpt>
      <trkpt lat="47.17691" lon="6.82425">
        <ele>930.9</ele>
        <time>2024-05-08T13:40:46Z</time>
      </trkpt>
      <trkpt lat="47.17675" lon="6.82407">
        <ele>931.6</ele>
        <time>2024-05-08T13:40:57Z</time>
      </trkpt>
      <trkpt lat="47.17652" lon="6.82393">
        <ele>932.5</ele>
        <time>2024-05-08T13:41:07Z</time>
      </trkpt>
      <trkpt lat="47.1763" lon="6.82392">
        <ele>933.8</ele>
        <time>2024-05-08T13:41:18Z</time>
      </trkpt>
      <trkpt lat="47.17605" lon="6.82389">
        <ele>936.1</ele>
        <time>2024-05-08T13:41:29Z</time>
      </trkpt>
      <trkpt lat="47.17586" lon="6.82379">
        <ele>938</ele>
        <time>2024-05-08T13:41:39Z</time>
      </trkpt>
      <trkpt lat="47.17564" lon="6.82379">
        <ele>939.8</ele>
        <time>2024-05-08T13:41:50Z</time>
      </trkpt>
      <trkpt lat="47.17548" lon="6.82384">
        <ele>941.6</ele>
        <time>2024-05-08T13:42:00Z</time>
      </trkpt>
      <trkpt lat="47.17529" lon="6.82392">
        <ele>944.1</ele>
        <time>2024-05-08T13:42:11Z</time>
      </trkpt>
      <trkpt lat="47.17508" lon="6.82395">
        <ele>946.4</ele>
        <time>2024-05-08T13:42:22Z</time>
      </trkpt>
      <trkpt lat="47.17495" lon="6.82402">
        <ele>947.5</ele>
        <time>2024-05-08T13:42:32Z</time>
      </trkpt>
      <trkpt lat="47.17474" lon="6.82402">
        <ele>949.2</ele>
        <time>2024-05-08T13:42:43Z</time>
      </trkpt>
      <trkpt lat="47.17457" lon="6.82395">
        <ele>950.5</ele>
        <time>2024-05-08T13:42:53Z</time>
      </trkpt>
      <trkpt lat="47.17437" lon="6.82385">
        <ele>952</ele>
        <time>2024-05-08T13:43:04Z</time>
      </trkpt>
      <trkpt lat="47.17418" lon="6.82373">
        <ele>953.1</ele>
        <time>2024-05-08T13:43:14Z</time>
      </trkpt>
      <trkpt lat="47.17399" lon="6.82363">
        <ele>954.2</ele>
        <time>2024-05-08T13:43:25Z</time>
      </trkpt>
      <trkpt lat="47.17379" lon="6.82364">
        <ele>955.3</ele>
        <time>2024-05-08T13:43:35Z</time>
      </trkpt>
      <trkpt lat="47.1736" lon="6.82362">
        <ele>956.3</ele>
        <time>2024-05-08T13:43:45Z</time>
      </trkpt>
      <trkpt lat="47.17336" lon="6.82352">
        <ele>957.7</ele>
        <time>2024-05-08T13:43:56Z</time>
      </trkpt>
      <trkpt lat="47.17312" lon="6.82328">
        <ele>958.8</ele>
        <time>2024-05-08T13:44:06Z</time>
      </trkpt>
      <trkpt lat="47.17287" lon="6.82305">
        <ele>959.8</ele>
        <time>2024-05-08T13:44:16Z</time>
      </trkpt>
      <trkpt lat="47.17261" lon="6.82281">
        <ele>960.8</ele>
        <time>2024-05-08T13:44:26Z</time>
      </trkpt>
      <trkpt lat="47.17236" lon="6.8225">
        <ele>961.5</ele>
        <time>2024-05-08T13:44:36Z</time>
      </trkpt>
      <trkpt lat="47.17206" lon="6.82214">
        <ele>961.8</ele>
        <time>2024-05-08T13:44:47Z</time>
      </trkpt>
      <trkpt lat="47.17166" lon="6.82183">
        <ele>962.2</ele>
        <time>2024-05-08T13:44:58Z</time>
      </trkpt>
      <trkpt lat="47.17125" lon="6.82185">
        <ele>963</ele>
        <time>2024-05-08T13:45:09Z</time>
      </trkpt>
      <trkpt lat="47.17099" lon="6.82189">
        <ele>963.6</ele>
        <time>2024-05-08T13:45:19Z</time>
      </trkpt>
      <trkpt lat="47.17097" lon="6.82189">
        <ele>963.7</ele>
        <time>2024-05-08T13:45:29Z</time>
      </trkpt>
      <trkpt lat="47.17082" lon="6.82187">
        <ele>964.1</ele>
        <time>2024-05-08T13:45:40Z</time>
      </trkpt>
      <trkpt lat="47.17053" lon="6.82193">
        <ele>964.7</ele>
        <time>2024-05-08T13:45:50Z</time>
      </trkpt>
      <trkpt lat="47.17018" lon="6.82204">
        <ele>964.7</ele>
        <time>2024-05-08T13:46:01Z</time>
      </trkpt>
      <trkpt lat="47.16983" lon="6.82212">
        <ele>964.2</ele>
        <time>2024-05-08T13:46:12Z</time>
      </trkpt>
      <trkpt lat="47.16968" lon="6.82195">
        <ele>963.7</ele>
        <time>2024-05-08T13:46:22Z</time>
      </trkpt>
      <trkpt lat="47.16964" lon="6.82203">
        <ele>963.3</ele>
        <time>2024-05-08T13:46:33Z</time>
      </trkpt>
      <trkpt lat="47.16964" lon="6.82203">
        <ele>963.3</ele>
        <time>2024-05-08T13:46:44Z</time>
      </trkpt>
      <trkpt lat="47.16962" lon="6.82208">
        <ele>963.1</ele>
        <time>2024-05-08T13:46:55Z</time>
      </trkpt>
      <trkpt lat="47.16962" lon="6.82208">
        <ele>963.1</ele>
        <time>2024-05-08T13:47:05Z</time>
      </trkpt>
      <trkpt lat="47.16962" lon="6.82208">
        <ele>963.1</ele>
        <time>2024-05-08T13:47:16Z</time>
      </trkpt>
      <trkpt lat="47.16962" lon="6.82208">
        <ele>963.1</ele>
        <time>2024-05-08T13:47:27Z</time>
      </trkpt>
      <trkpt lat="47.16962" lon="6.82208">
        <ele>963.1</ele>
        <time>2024-05-08T13:47:37Z</time>
      </trkpt>
      <trkpt lat="47.16962" lon="6.82208">
        <ele>963.1</ele>
        <time>2024-05-08T13:47:48Z</time>
      </trkpt>
      <trkpt lat="47.16962" lon="6.82208">
        <ele>963.1</ele>
        <time>2024-05-08T13:47:58Z</time>
      </trkpt>
      <trkpt lat="47.16962" lon="6.82208">
        <ele>963.1</ele>
        <time>2024-05-08T13:48:08Z</time>
      </trkpt>
      <trkpt lat="47.16951" lon="6.82235">
        <ele>961.8</ele>
        <time>2024-05-08T13:48:19Z</time>
      </trkpt>
      <trkpt lat="47.16934" lon="6.82306">
        <ele>958.4</ele>
        <time>2024-05-08T13:48:29Z</time>
      </trkpt>
      <trkpt lat="47.16923" lon="6.82418">
        <ele>956.2</ele>
        <time>2024-05-08T13:48:39Z</time>
      </trkpt>
      <trkpt lat="47.16888" lon="6.82486">
        <ele>956.6</ele>
        <time>2024-05-08T13:48:50Z</time>
      </trkpt>
      <trkpt lat="47.16866" lon="6.82454">
        <ele>956.7</ele>
        <time>2024-05-08T13:49:01Z</time>
      </trkpt>
      <trkpt lat="47.16845" lon="6.82437">
        <ele>958.2</ele>
        <time>2024-05-08T13:49:11Z</time>
      </trkpt>
      <trkpt lat="47.16815" lon="6.82426">
        <ele>960.3</ele>
        <time>2024-05-08T13:49:22Z</time>
      </trkpt>
      <trkpt lat="47.16803" lon="6.82389">
        <ele>961</ele>
        <time>2024-05-08T13:49:32Z</time>
      </trkpt>
      <trkpt lat="47.16793" lon="6.82355">
        <ele>961.7</ele>
        <time>2024-05-08T13:49:43Z</time>
      </trkpt>
      <trkpt lat="47.16803" lon="6.82388">
        <ele>961</ele>
        <time>2024-05-08T13:49:53Z</time>
      </trkpt>
      <trkpt lat="47.16824" lon="6.8245">
        <ele>959.7</ele>
        <time>2024-05-08T13:50:04Z</time>
      </trkpt>
      <trkpt lat="47.16845" lon="6.82508">
        <ele>956.7</ele>
        <time>2024-05-08T13:50:14Z</time>
      </trkpt>
      <trkpt lat="47.16857" lon="6.82534">
        <ele>955.3</ele>
        <time>2024-05-08T13:50:25Z</time>
      </trkpt>
      <trkpt lat="47.16863" lon="6.82522">
        <ele>955.7</ele>
        <time>2024-05-08T13:50:35Z</time>
      </trkpt>
      <trkpt lat="47.1687" lon="6.82512">
        <ele>956.2</ele>
        <time>2024-05-08T13:50:46Z</time>
      </trkpt>
      <trkpt lat="47.16859" lon="6.82509">
        <ele>956.7</ele>
        <time>2024-05-08T13:50:57Z</time>
      </trkpt>
      <trkpt lat="47.16835" lon="6.82482">
        <ele>958.1</ele>
        <time>2024-05-08T13:51:08Z</time>
      </trkpt>
      <trkpt lat="47.16826" lon="6.82446">
        <ele>959.8</ele>
        <time>2024-05-08T13:51:18Z</time>
      </trkpt>
      <trkpt lat="47.16811" lon="6.82411">
        <ele>960.6</ele>
        <time>2024-05-08T13:51:28Z</time>
      </trkpt>
      <trkpt lat="47.16797" lon="6.82369">
        <ele>961.4</ele>
        <time>2024-05-08T13:51:39Z</time>
      </trkpt>
      <trkpt lat="47.16776" lon="6.82324">
        <ele>962.2</ele>
        <time>2024-05-08T13:51:50Z</time>
      </trkpt>
      <trkpt lat="47.16747" lon="6.82291">
        <ele>962</ele>
        <time>2024-05-08T13:52:00Z</time>
      </trkpt>
      <trkpt lat="47.16703" lon="6.82245">
        <ele>959.8</ele>
        <time>2024-05-08T13:52:11Z</time>
      </trkpt>
      <trkpt lat="47.1664" lon="6.8218">
        <ele>957</ele>
        <time>2024-05-08T13:52:22Z</time>
      </trkpt>
      <trkpt lat="47.16578" lon="6.82115">
        <ele>957.6</ele>
        <time>2024-05-08T13:52:33Z</time>
      </trkpt>
      <trkpt lat="47.16539" lon="6.82075">
        <ele>959</ele>
        <time>2024-05-08T13:52:43Z</time>
      </trkpt>
      <trkpt lat="47.16512" lon="6.82006">
        <ele>960</ele>
        <time>2024-05-08T13:52:54Z</time>
      </trkpt>
      <trkpt lat="47.16481" lon="6.81947">
        <ele>959.1</ele>
        <time>2024-05-08T13:53:04Z</time>
      </trkpt>
      <trkpt lat="47.16434" lon="6.81872">
        <ele>956</ele>
        <time>2024-05-08T13:53:15Z</time>
      </trkpt>
      <trkpt lat="47.16392" lon="6.81791">
        <ele>956.4</ele>
        <time>2024-05-08T13:53:25Z</time>
      </trkpt>
      <trkpt lat="47.16363" lon="6.81739">
        <ele>957.9</ele>
        <time>2024-05-08T13:53:36Z</time>
      </trkpt>
      <trkpt lat="47.16324" lon="6.81673">
        <ele>956.8</ele>
        <time>2024-05-08T13:53:47Z</time>
      </trkpt>
      <trkpt lat="47.16274" lon="6.81667">
        <ele>958.7</ele>
        <time>2024-05-08T13:53:57Z</time>
      </trkpt>
      <trkpt lat="47.16238" lon="6.81669">
        <ele>962.4</ele>
        <time>2024-05-08T13:54:08Z</time>
      </trkpt>
      <trkpt lat="47.16212" lon="6.81679">
        <ele>964</ele>
        <time>2024-05-08T13:54:18Z</time>
      </trkpt>
      <trkpt lat="47.16156" lon="6.81688">
        <ele>959.3</ele>
        <time>2024-05-08T13:54:29Z</time>
      </trkpt>
      <trkpt lat="47.16082" lon="6.81623">
        <ele>952.9</ele>
        <time>2024-05-08T13:54:40Z</time>
      </trkpt>
      <trkpt lat="47.16022" lon="6.81553">
        <ele>944.7</ele>
        <time>2024-05-08T13:54:50Z</time>
      </trkpt>
      <trkpt lat="47.15987" lon="6.81458">
        <ele>942.9</ele>
        <time>2024-05-08T13:55:00Z</time>
      </trkpt>
      <trkpt lat="47.15948" lon="6.81363">
        <ele>941</ele>
        <time>2024-05-08T13:55:11Z</time>
      </trkpt>
      <trkpt lat="47.15918" lon="6.81267">
        <ele>940.1</ele>
        <time>2024-05-08T13:55:21Z</time>
      </trkpt>
      <trkpt lat="47.15877" lon="6.81172">
        <ele>936.9</ele>
        <time>2024-05-08T13:55:32Z</time>
      </trkpt>
      <trkpt lat="47.15823" lon="6.81133">
        <ele>930.8</ele>
        <time>2024-05-08T13:55:43Z</time>
      </trkpt>
      <trkpt lat="47.15784" lon="6.81148">
        <ele>929.2</ele>
        <time>2024-05-08T13:55:53Z</time>
      </trkpt>
      <trkpt lat="47.15751" lon="6.81161">
        <ele>928.7</ele>
        <time>2024-05-08T13:56:03Z</time>
      </trkpt>
      <trkpt lat="47.15711" lon="6.81164">
        <ele>928.2</ele>
        <time>2024-05-08T13:56:14Z</time>
      </trkpt>
      <trkpt lat="47.15696" lon="6.81191">
        <ele>927.1</ele>
        <time>2024-05-08T13:56:24Z</time>
      </trkpt>
      <trkpt lat="47.15694" lon="6.81191">
        <ele>926.9</ele>
        <time>2024-05-08T13:56:34Z</time>
      </trkpt>
      <trkpt lat="47.15694" lon="6.81191">
        <ele>926.9</ele>
        <time>2024-05-08T13:56:45Z</time>
      </trkpt>
      <trkpt lat="47.15694" lon="6.81191">
        <ele>926.9</ele>
        <time>2024-05-08T13:56:56Z</time>
      </trkpt>
      <trkpt lat="47.15694" lon="6.81191">
        <ele>926.9</ele>
        <time>2024-05-08T13:57:06Z</time>
      </trkpt>
      <trkpt lat="47.1569" lon="6.81197">
        <ele>926.5</ele>
        <time>2024-05-08T13:57:17Z</time>
      </trkpt>
      <trkpt lat="47.15657" lon="6.81214">
        <ele>925.5</ele>
        <time>2024-05-08T13:57:28Z</time>
      </trkpt>
      <trkpt lat="47.15627" lon="6.81246">
        <ele>925.2</ele>
        <time>2024-05-08T13:57:39Z</time>
      </trkpt>
      <trkpt lat="47.15588" lon="6.81275">
        <ele>923.1</ele>
        <time>2024-05-08T13:57:50Z</time>
      </trkpt>
      <trkpt lat="47.15541" lon="6.81259">
        <ele>920.4</ele>
        <time>2024-05-08T13:58:01Z</time>
      </trkpt>
      <trkpt lat="47.15495" lon="6.81251">
        <ele>919.8</ele>
        <time>2024-05-08T13:58:11Z</time>
      </trkpt>
      <trkpt lat="47.15448" lon="6.81267">
        <ele>919.2</ele>
        <time>2024-05-08T13:58:22Z</time>
      </trkpt>
      <trkpt lat="47.15406" lon="6.81282">
        <ele>918.4</ele>
        <time>2024-05-08T13:58:32Z</time>
      </trkpt>
      <trkpt lat="47.15364" lon="6.81305">
        <ele>917.7</ele>
        <time>2024-05-08T13:58:43Z</time>
      </trkpt>
      <trkpt lat="47.15352" lon="6.81317">
        <ele>916.8</ele>
        <time>2024-05-08T13:58:54Z</time>
      </trkpt>
      <trkpt lat="47.15353" lon="6.81321">
        <ele>916.5</ele>
        <time>2024-05-08T13:59:05Z</time>
      </trkpt>
      <trkpt lat="47.15353" lon="6.81321">
        <ele>916.5</ele>
        <time>2024-05-08T13:59:15Z</time>
      </trkpt>
      <trkpt lat="47.15353" lon="6.81321">
        <ele>916.5</ele>
        <time>2024-05-08T13:59:26Z</time>
      </trkpt>
      <trkpt lat="47.15351" lon="6.81324">
        <ele>916.3</ele>
        <time>2024-05-08T13:59:36Z</time>
      </trkpt>
      <trkpt lat="47.15351" lon="6.81324">
        <ele>916.3</ele>
        <time>2024-05-08T13:59:46Z</time>
      </trkpt>
      <trkpt lat="47.15344" lon="6.8133">
        <ele>915.5</ele>
        <time>2024-05-08T13:59:56Z</time>
      </trkpt>
      <trkpt lat="47.15335" lon="6.81339">
        <ele>914.7</ele>
        <time>2024-05-08T14:00:07Z</time>
      </trkpt>
      <trkpt lat="47.1533" lon="6.81349">
        <ele>914</ele>
        <time>2024-05-08T14:00:18Z</time>
      </trkpt>
      <trkpt lat="47.15328" lon="6.81349">
        <ele>913.8</ele>
        <time>2024-05-08T14:00:28Z</time>
      </trkpt>
      <trkpt lat="47.15328" lon="6.81349">
        <ele>913.8</ele>
        <time>2024-05-08T14:00:39Z</time>
      </trkpt>
      <trkpt lat="47.15328" lon="6.81349">
        <ele>913.8</ele>
        <time>2024-05-08T14:00:49Z</time>
      </trkpt>
      <trkpt lat="47.15328" lon="6.81349">
        <ele>913.8</ele>
        <time>2024-05-08T14:01:00Z</time>
      </trkpt>
      <trkpt lat="47.15327" lon="6.81342">
        <ele>913.5</ele>
        <time>2024-05-08T14:01:11Z</time>
      </trkpt>
      <trkpt lat="47.15328" lon="6.81345">
        <ele>913.3</ele>
        <time>2024-05-08T14:01:22Z</time>
      </trkpt>
      <trkpt lat="47.15328" lon="6.81345">
        <ele>913.3</ele>
        <time>2024-05-08T14:01:32Z</time>
      </trkpt>
      <trkpt lat="47.15328" lon="6.81345">
        <ele>913.3</ele>
        <time>2024-05-08T14:01:42Z</time>
      </trkpt>
      <trkpt lat="47.15328" lon="6.81345">
        <ele>913.3</ele>
        <time>2024-05-08T14:01:53Z</time>
      </trkpt>
      <trkpt lat="47.15328" lon="6.81345">
        <ele>913.3</ele>
        <time>2024-05-08T14:02:03Z</time>
      </trkpt>
      <trkpt lat="47.15328" lon="6.81345">
        <ele>913.3</ele>
        <time>2024-05-08T14:02:14Z</time>
      </trkpt>
      <trkpt lat="47.15328" lon="6.81345">
        <ele>913.3</ele>
        <time>2024-05-08T14:02:25Z</time>
      </trkpt>
    </trkseg>
  </trk>
</gpx>